[[{"header":{"parameterUnit":"m.s-1","parameterCategory":1,"la1":31.0,"la2":29.5877,"lo1":-88.7671,"lo2":-86.6584,"dy":0.0162,"dx":0.0185,"nx":115,"ny":88,"refTime":"2023-03-16T06:00:00:Z","depth":0,"parameterNumber":2,"parameterNumberName":"U-component_of_WINDS"},"data":[0.0,0.0,0.0,0.0,0.0,0.0,0.0,0.0,0.0,0.0,0.0,0.0,0.0,0.0,0.0,0.0,0.0,0.0,0.0,0.0,0.0,0.0,0.0,0.0,0.0,0.0,0.0,0.0,0.0,0.0,0.0,0.0,0.0,0.0,0.0,0.0,0.0,0.0,0.0,0.0,0.0,0.0,0.0,0.0,0.0,0.0,0.0,0.0,0.0,0.0,0.0,0.0,0.0,0.0,0.0,0.0,0.0,0.0,0.0,0.0,0.0,0.0,0.0,0.0,0.0,0.0,0.0,0.0,0.0,0.0,0.0,0.0,0.0,0.0,0.0,0.0,0.0,0.0,0.0,0.0,0.0,0.0,0.0,0.0,0.0,0.0,0.0,0.0,0.0,0.0,0.0,0.0,0.0,0.0,0.0,0.0,0.0,0.0,0.0,0.0,0.0,0.0,0.0,0.0,0.0,0.0,0.0,0.0,0.0,0.0,0.0,0.0,0.0,0.0,0.0,0.0,0.0,0.0,0.0,0.0,0.0,0.0,0.0,0.0,0.0,0.0,0.0,0.0,0.0,0.0,0.0,0.0,0.0,0.0,0.0,0.0,0.0,0.0,0.0,0.0,0.0,0.0,0.0,0.0,0.0,0.0,0.0,0.0,0.0,0.0,0.0,0.0,0.0,0.0,0.0,0.0,0.0,0.0,0.0,0.0,0.0,0.0,0.0,0.0,0.0,0.0,0.0,0.0,0.0,0.0,0.0,0.0,0.0,0.0,0.0,0.0,0.0,0.0,0.0,0.0,0.0,0.0,0.0,0.0,0.0,0.0,0.0,0.0,0.0,0.0,0.0,0.0,0.0,0.0,0.0,0.0,0.0,0.0,0.0,0.0,0.0,0.0,0.0,0.0,0.0,0.0,0.0,0.0,0.0,0.0,0.0,0.0,0.0,0.0,0.0,0.0,0.0,0.0,0.0,0.0,0.0,0.0,0.0,0.0,0.0,0.0,0.0,0.0,0.0,0.0,0.0,0.0,0.0,0.0,0.0,0.0,0.0,0.0,0.0,0.0,0.0,0.0,0.0,0.0,0.0,0.0,0.0,0.0,0.0,0.0,0.0,0.0,0.0,0.0,0.0,0.0,0.0,0.0,0.0,0.0,0.0,0.0,0.0,0.0,0.0,0.0,0.0,0.0,0.0,0.0,0.0,0.0,0.0,0.0,0.0,0.0,0.0,0.0,0.0,0.0,0.0,0.0,0.0,0.0,0.0,0.0,0.0,0.0,0.0,0.0,0.0,0.0,0.0,0.0,0.0,0.0,0.0,0.0,0.0,0.0,0.0,0.0,0.0,0.0,0.0,0.0,0.0,0.0,0.0,0.0,0.0,0.0,0.0,0.0,0.0,0.0,0.0,0.0,0.0,0.0,0.0,0.0,0.0,0.0,0.0,0.0,0.0,0.0,0.0,0.0,0.0,0.0,0.0,0.0,0.0,0.0,0.0,0.0,0.0,0.0,0.0,0.0,0.0,0.0,0.0,0.0,0.0,0.0,0.0,0.0,0.0,0.0,0.0,0.0,0.0,0.0,0.0,0.0,0.0,0.0,0.0,0.0,0.0,0.0,0.0,0.0,0.0,0.0,0.0,0.0,0.0,0.0,0.0,0.0,0.0,0.0,0.0,0.0,0.0,0.0,0.0,0.0,0.0,0.0,0.0,0.0,0.0,0.0,0.0,0.0,0.0,0.0,0.0,0.0,0.0,0.0,0.0,0.0,0.0,0.0,0.0,0.0,0.0,0.0,0.0,0.0,0.0,0.0,0.0,0.0,0.0,0.0,0.0,0.0,0.0,0.0,0.0,0.0,0.0,0.0,0.0,0.0,0.0,0.0,0.0,0.0,0.0,0.0,0.0,0.0,0.0,0.0,0.0,0.0,0.0,0.0,0.0,0.0,0.0,0.0,0.0,0.0,0.0,0.0,0.0,0.0,0.0,0.0,0.0,0.0,0.0,0.0,0.0,0.0,0.0,0.0,0.0,0.0,0.0,0.0,0.0,0.0,0.0,0.0,0.0,0.0,0.0,0.0,0.0,0.0,0.0,0.0,0.0,0.0,0.0,0.0,0.0,0.0,0.0,0.0,0.0,0.0,0.0,0.0,0.0,0.0,0.0,0.0,0.0,0.0,0.0,0.0,0.0,0.0,0.0,0.0,0.0,0.0,0.0,0.0,0.0,0.0,0.0,0.0,0.0,0.0,0.0,0.0,0.0,0.0,0.0,0.0,0.0,0.0,0.0,0.0,0.0,0.0,0.0,0.0,0.0,0.0,0.0,0.0,0.0,0.0,0.0,0.0,0.0,0.0,0.0,0.0,0.0,0.0,0.0,0.0,0.0,0.0,0.0,0.0,0.0,0.0,0.0,0.0,0.0,0.0,0.0,0.0,0.0,0.0,0.0,0.0,0.0,0.0,0.0,0.0,0.0,0.0,0.0,0.0,0.0,0.0,0.0,0.0,0.0,0.0,0.0,0.0,0.0,0.0,0.0,0.0,0.0,0.0,0.0,0.0,0.0,0.0,0.0,0.0,0.0,0.0,0.0,0.0,0.0,0.0,0.0,0.0,0.0,0.0,0.0,0.0,0.0,0.0,0.0,0.0,0.0,0.0,0.0,0.0,0.0,0.0,0.0,0.0,0.0,0.0,0.0,0.0,0.0,0.0,0.0,0.0,0.0,0.0,0.0,0.0,0.0,0.0,0.0,0.0,0.0,0.0,0.0,0.0,0.0,0.0,0.0,0.0,0.0,0.0,0.0,0.0,0.0,0.0,0.0,0.0,0.0,0.0,0.0,0.0,0.0,0.0,0.0,0.0,0.0,0.0,0.0,0.0,0.0,0.0,0.0,0.0,0.0,0.0,0.0,0.0,0.0,0.0,0.0,0.0,0.0,0.0,0.0,0.0,0.0,0.0,0.0,0.0,0.0,0.0,0.0,0.0,0.0,0.0,0.0,0.0,0.0,0.0,0.0,0.0,0.0,0.0,0.0,0.0,0.0,0.0,0.0,0.0,0.0,0.0,0.0,0.0,0.0,0.0,0.0,0.0,0.0,0.0,0.0,0.0,0.0,0.0,0.0,0.0,0.0,0.0,0.0,0.0,0.0,0.0,0.0,0.0,0.0,0.0,0.0,0.0,0.0,0.0,0.0,0.0,0.0,0.0,0.0,0.0,0.0,0.0,0.0,0.0,0.0,0.0,0.0,0.0,0.0,0.0,0.0,0.0,0.0,0.0,0.0,0.0,0.0,0.0,0.0,0.0,0.0,0.0,0.0,0.0,0.0,0.0,0.0,0.0,0.0,0.0,0.0,0.0,0.0,0.0,0.0,0.0,0.0,0.0,0.0,0.0,0.0,0.0,0.0,0.0,0.0,0.0,0.0,0.0,0.0,0.0,0.0,0.0,0.0,0.0,0.0,0.0,0.0,0.0,0.0,0.0,0.0,0.0,0.0,0.0,0.0,0.0,0.0,0.0,0.0,0.0,0.0,0.0,0.0,0.0,0.0,0.0,0.0,0.0,0.0,0.0,0.0,0.0,0.0,0.0,0.0,0.0,0.0,0.0,0.0,0.0,0.0,0.0,0.0,0.0,0.0,0.0,0.0,0.0,0.0,0.0,0.0,0.0,0.0,0.0,0.0,0.0,0.0,0.0,0.0,0.0,0.0,0.0,0.0,0.0,0.0,0.0,0.0,0.0,0.0,0.0,0.0,0.0,0.0,0.0,0.0,0.0,0.0,0.0,0.0,0.0,0.0,0.0,0.0,0.0,0.0,0.0,0.0,0.0,0.0,0.0,0.0,0.0,0.0,0.0,0.0,0.0,0.0,0.0,0.0,0.0,0.0,0.0,0.0,0.0,0.0,0.0,0.0,0.0,0.0,0.0,0.0,0.0,0.0,0.0,0.0,0.0,0.0,0.0,0.0,0.0,0.0,0.0,0.0,0.0,0.0,0.0,0.0,0.0,0.0,0.0,0.0,0.0,0.0,0.0,0.0,0.0,0.0,0.0,0.0,0.0,0.0,0.0,0.0,0.0,0.0,0.0,0.0,0.0,0.0,0.0,0.0,0.0,0.0,0.0,0.0,0.0,0.0,0.0,0.0,0.0,0.0,0.0,0.0,0.0,0.0,0.0,0.0,0.0,0.0,0.0,0.0,0.0,0.0,0.0,0.0,0.0,0.0,0.0,0.0,0.0,0.0,0.0,0.0,0.0,0.0,0.0,0.0,0.0,0.0,0.0,0.0,0.0,5.6483,0.0,0.0,0.0,0.0,0.0,0.0,0.0,0.0,0.0,0.0,0.0,0.0,0.0,0.0,0.0,0.0,0.0,0.0,0.0,0.0,0.0,0.0,0.0,0.0,0.0,0.0,0.0,0.0,0.0,0.0,0.0,0.0,0.0,0.0,0.0,0.0,0.0,0.0,0.0,0.0,0.0,0.0,0.0,0.0,0.0,0.0,0.0,0.0,0.0,0.0,0.0,0.0,0.0,0.0,0.0,0.0,0.0,0.0,0.0,0.0,0.0,0.0,0.0,0.0,0.0,0.0,0.0,0.0,0.0,0.0,0.0,0.0,0.0,0.0,0.0,0.0,0.0,0.0,0.0,0.0,0.0,0.0,0.0,0.0,0.0,0.0,0.0,0.0,0.0,0.0,0.0,0.0,0.0,0.0,0.0,0.0,0.0,0.0,0.0,0.0,0.0,0.0,0.0,0.0,0.0,0.0,0.0,0.0,0.0,0.0,5.6967,5.6521,5.6942,5.6973,5.6495,0.0,0.0,0.0,0.0,0.0,0.0,0.0,0.0,0.0,0.0,0.0,0.0,0.0,0.0,0.0,0.0,0.0,0.0,0.0,0.0,0.0,0.0,0.0,0.0,0.0,0.0,0.0,0.0,0.0,0.0,0.0,0.0,0.0,0.0,0.0,0.0,0.0,0.0,0.0,0.0,0.0,0.0,0.0,0.0,0.0,0.0,0.0,0.0,0.0,0.0,0.0,0.0,0.0,0.0,0.0,0.0,0.0,0.0,0.0,0.0,0.0,0.0,0.0,0.0,0.0,0.0,0.0,0.0,0.0,0.0,0.0,0.0,0.0,0.0,0.0,0.0,0.0,0.0,0.0,0.0,0.0,0.0,0.0,0.0,0.0,0.0,0.0,0.0,0.0,0.0,0.0,0.0,0.0,0.0,0.0,0.0,0.0,0.0,0.0,0.0,0.0,0.0,0.0,0.0,0.0,0.0,0.0,0.0,0.0,0.0,0.0,0.0,5.7428,5.7381,5.6546,0.0,0.0,0.0,0.0,0.0,0.0,0.0,0.0,0.0,0.0,0.0,0.0,0.0,0.0,0.0,0.0,0.0,0.0,0.0,0.0,0.0,0.0,0.0,0.0,0.0,0.0,0.0,0.0,0.0,0.0,0.0,0.0,0.0,0.0,0.0,0.0,0.0,0.0,0.0,0.0,0.0,0.0,0.0,0.0,0.0,0.0,0.0,0.0,0.0,0.0,0.0,0.0,0.0,0.0,0.0,0.0,0.0,0.0,0.0,0.0,0.0,0.0,0.0,0.0,0.0,0.0,0.0,0.0,0.0,0.0,0.0,0.0,0.0,0.0,0.0,0.0,0.0,0.0,0.0,0.0,0.0,0.0,0.0,0.0,0.0,0.0,0.0,0.0,0.0,0.0,0.0,0.0,0.0,0.0,0.0,0.0,0.0,0.0,0.0,0.0,0.0,0.0,0.0,0.0,0.0,0.0,0.0,0.0,0.0,0.0,5.7749,5.7706,5.7687,0.0,5.6584,0.0,0.0,0.0,0.0,0.0,0.0,0.0,0.0,0.0,0.0,0.0,0.0,0.0,0.0,0.0,0.0,0.0,0.0,0.0,0.0,0.0,0.0,0.0,0.0,0.0,0.0,0.0,0.0,0.0,0.0,0.0,0.0,0.0,0.0,0.0,0.0,0.0,0.0,0.0,0.0,0.0,0.0,0.0,0.0,0.0,0.0,0.0,0.0,0.0,0.0,0.0,0.0,0.0,0.0,0.0,0.0,0.0,0.0,0.0,0.0,0.0,0.0,0.0,0.0,0.0,0.0,0.0,0.0,0.0,0.0,0.0,0.0,0.0,0.0,0.0,0.0,0.0,0.0,0.0,0.0,0.0,0.0,0.0,0.0,0.0,0.0,0.0,0.0,0.0,0.0,0.0,0.0,0.0,0.0,0.0,0.0,0.0,0.0,0.0,0.0,0.0,0.0,0.0,0.0,0.0,0.0,0.0,0.0,0.0,0.0,5.8513,5.8459,5.8409,5.8015,0.0,0.0,0.0,0.0,0.0,0.0,0.0,0.0,0.0,0.0,0.0,0.0,0.0,0.0,0.0,0.0,0.0,0.0,0.0,0.0,0.0,0.0,0.0,0.0,0.0,0.0,0.0,0.0,0.0,0.0,0.0,0.0,0.0,0.0,0.0,0.0,0.0,0.0,0.0,0.0,0.0,0.0,0.0,0.0,0.0,0.0,0.0,0.0,0.0,0.0,0.0,0.0,0.0,0.0,0.0,0.0,0.0,0.0,0.0,0.0,0.0,0.0,0.0,0.0,0.0,0.0,0.0,0.0,0.0,0.0,0.0,0.0,0.0,0.0,0.0,0.0,0.0,0.0,0.0,0.0,0.0,0.0,0.0,0.0,0.0,0.0,0.0,0.0,0.0,0.0,0.0,0.0,0.0,0.0,0.0,0.0,0.0,0.0,0.0,0.0,0.0,0.0,0.0,0.0,0.0,0.0,0.0,0.0,0.0,0.0,5.8491,5.9024,5.9198,5.9003,5.8459,5.76,0.0,0.0,0.0,0.0,0.0,0.0,0.0,0.0,0.0,0.0,0.0,0.0,0.0,0.0,0.0,0.0,0.0,0.0,0.0,0.0,0.0,0.0,0.0,0.0,0.0,0.0,0.0,0.0,0.0,0.0,0.0,0.0,0.0,0.0,0.0,0.0,0.0,0.0,0.0,0.0,0.0,0.0,0.0,0.0,0.0,0.0,0.0,0.0,0.0,0.0,0.0,0.0,0.0,0.0,0.0,0.0,0.0,0.0,0.0,0.0,0.0,0.0,0.0,0.0,0.0,0.0,0.0,0.0,0.0,0.0,0.0,0.0,0.0,0.0,0.0,0.0,0.0,0.0,0.0,0.0,0.0,0.0,0.0,0.0,0.0,0.0,0.0,0.0,0.0,0.0,0.0,0.0,0.0,0.0,0.0,0.0,0.0,0.0,0.0,0.0,0.0,0.0,0.0,0.0,0.0,0.0,0.0,0.0,5.7497,5.8393,5.9206,5.9978,5.9243,5.8391,0.0,0.0,0.0,0.0,0.0,0.0,0.0,0.0,0.0,0.0,0.0,0.0,0.0,0.0,0.0,0.0,0.0,0.0,0.0,0.0,0.0,0.0,0.0,0.0,0.0,0.0,0.0,0.0,0.0,0.0,0.0,0.0,0.0,0.0,0.0,0.0,0.0,0.0,0.0,0.0,0.0,0.0,0.0,0.0,0.0,0.0,0.0,0.0,0.0,0.0,0.0,0.0,0.0,0.0,0.0,0.0,0.0,0.0,0.0,0.0,0.0,0.0,0.0,0.0,0.0,0.0,0.0,0.0,0.0,0.0,0.0,0.0,0.0,0.0,0.0,0.0,0.0,0.0,0.0,0.0,0.0,0.0,0.0,0.0,0.0,0.0,0.0,0.0,0.0,0.0,0.0,0.0,0.0,0.0,0.0,0.0,0.0,0.0,0.0,0.0,0.0,0.0,0.0,0.0,0.0,0.0,0.0,0.0,0.0,5.8276,5.9672,6.0295,6.0026,5.9717,5.8901,0.0,0.0,0.0,0.0,0.0,0.0,0.0,0.0,0.0,0.0,0.0,0.0,0.0,0.0,0.0,0.0,0.0,0.0,0.0,0.0,0.0,0.0,0.0,0.0,0.0,0.0,0.0,0.0,0.0,0.0,0.0,0.0,0.0,0.0,0.0,0.0,0.0,0.0,0.0,0.0,0.0,0.0,0.0,0.0,0.0,0.0,0.0,0.0,0.0,0.0,0.0,0.0,0.0,0.0,0.0,0.0,0.0,0.0,0.0,0.0,0.0,0.0,0.0,0.0,0.0,0.0,0.0,0.0,0.0,0.0,0.0,0.0,0.0,0.0,0.0,0.0,0.0,0.0,0.0,0.0,0.0,0.0,0.0,0.0,0.0,0.0,0.0,0.0,0.0,0.0,0.0,0.0,0.0,0.0,0.0,0.0,0.0,0.0,0.0,0.0,0.0,0.0,0.0,0.0,0.0,0.0,0.0,0.0,0.0,5.9085,0.0,6.1255,6.0406,6.0365,5.9553,0.0,0.0,0.0,0.0,0.0,0.0,0.0,0.0,0.0,0.0,0.0,0.0,0.0,0.0,0.0,0.0,0.0,0.0,0.0,0.0,0.0,0.0,0.0,0.0,0.0,0.0,0.0,0.0,0.0,0.0,0.0,0.0,0.0,0.0,0.0,0.0,0.0,0.0,0.0,0.0,0.0,0.0,0.0,0.0,0.0,0.0,0.0,0.0,0.0,0.0,0.0,0.0,0.0,0.0,0.0,0.0,0.0,0.0,0.0,0.0,0.0,0.0,0.0,0.0,0.0,0.0,0.0,0.0,0.0,0.0,0.0,0.0,0.0,0.0,0.0,0.0,0.0,0.0,0.0,0.0,0.0,0.0,0.0,0.0,0.0,0.0,0.0,0.0,0.0,0.0,0.0,0.0,0.0,0.0,0.0,0.0,0.0,0.0,0.0,0.0,0.0,0.0,0.0,0.0,0.0,0.0,0.0,0.0,5.8213,5.9922,6.158,6.2079,6.1155,6.1118,6.0306,0.0,0.0,0.0,0.0,0.0,0.0,0.0,0.0,0.0,0.0,0.0,0.0,0.0,0.0,0.0,0.0,0.0,0.0,0.0,0.0,0.0,0.0,0.0,0.0,0.0,0.0,0.0,0.0,0.0,0.0,0.0,0.0,0.0,0.0,0.0,0.0,0.0,0.0,0.0,0.0,0.0,0.0,0.0,0.0,0.0,0.0,0.0,0.0,0.0,0.0,0.0,0.0,0.0,0.0,0.0,0.0,0.0,0.0,0.0,0.0,0.0,0.0,0.0,0.0,0.0,0.0,0.0,0.0,0.0,0.0,0.0,0.0,0.0,0.0,0.0,0.0,0.0,0.0,0.0,0.0,0.0,0.0,0.0,0.0,0.0,0.0,0.0,0.0,0.0,0.0,0.0,0.0,0.0,0.0,0.0,0.0,0.0,0.0,0.0,0.0,0.0,0.0,0.0,0.0,0.0,0.0,0.0,0.0,0.0,6.1557,6.3183,6.3627,6.278,6.2196,6.0864,0.0,0.0,0.0,0.0,0.0,0.0,0.0,0.0,0.0,0.0,0.0,0.0,0.0,0.0,0.0,0.0,0.0,0.0,0.0,0.0,0.0,0.0,0.0,0.0,0.0,0.0,0.0,0.0,0.0,0.0,0.0,0.0,0.0,0.0,0.0,0.0,0.0,0.0,0.0,0.0,0.0,0.0,0.0,0.0,0.0,0.0,0.0,0.0,0.0,0.0,0.0,0.0,0.0,0.0,0.0,0.0,0.0,0.0,0.0,0.0,0.0,0.0,0.0,0.0,0.0,0.0,0.0,0.0,0.0,0.0,0.0,0.0,0.0,0.0,0.0,0.0,0.0,0.0,0.0,0.0,0.0,0.0,0.0,0.0,0.0,0.0,0.0,0.0,0.0,0.0,0.0,0.0,0.0,0.0,0.0,0.0,0.0,0.0,0.0,0.0,0.0,0.0,0.0,0.0,0.0,0.0,0.0,0.0,0.0,6.6014,6.643,6.627,6.5423,6.4914,6.316,5.9998,0.0,0.0,0.0,0.0,0.0,0.0,0.0,0.0,0.0,0.0,0.0,0.0,0.0,0.0,0.0,0.0,0.0,0.0,0.0,0.0,0.0,0.0,0.0,0.0,0.0,0.0,0.0,0.0,0.0,0.0,0.0,0.0,0.0,0.0,0.0,0.0,0.0,0.0,0.0,0.0,0.0,0.0,0.0,0.0,0.0,0.0,0.0,0.0,0.0,0.0,0.0,0.0,0.0,0.0,0.0,0.0,0.0,0.0,0.0,0.0,0.0,0.0,0.0,0.0,0.0,0.0,0.0,0.0,0.0,0.0,0.0,0.0,0.0,0.0,0.0,0.0,0.0,0.0,0.0,0.0,0.0,0.0,0.0,0.0,0.0,0.0,0.0,0.0,0.0,0.0,0.0,0.0,0.0,0.0,0.0,0.0,0.0,0.0,0.0,0.0,0.0,0.0,0.0,0.0,0.0,0.0,0.0,0.0,7.2524,7.1234,7.0069,6.9065,6.8877,6.6841,0.0,0.0,0.0,0.0,0.0,0.0,0.0,0.0,0.0,0.0,0.0,0.0,0.0,0.0,0.0,0.0,0.0,0.0,0.0,0.0,0.0,0.0,0.0,0.0,0.0,0.0,0.0,0.0,0.0,0.0,0.0,0.0,0.0,0.0,0.0,0.0,0.0,0.0,0.0,0.0,0.0,0.0,0.0,0.0,0.0,0.0,0.0,0.0,0.0,0.0,0.0,0.0,0.0,0.0,0.0,0.0,0.0,0.0,0.0,0.0,0.0,0.0,0.0,0.0,0.0,0.0,0.0,0.0,0.0,0.0,0.0,0.0,0.0,0.0,0.0,0.0,0.0,0.0,0.0,0.0,0.0,0.0,0.0,0.0,0.0,0.0,0.0,0.0,0.0,0.0,0.0,0.0,0.0,0.0,0.0,0.0,0.0,0.0,0.0,0.0,0.0,0.0,0.0,0.0,0.0,0.0,0.0,0.0,0.0,7.5853,7.7981,7.7449,7.4181,7.2296,6.9629,0.0,0.0,0.0,0.0,0.0,0.0,0.0,0.0,0.0,0.0,0.0,0.0,0.0,0.0,0.0,0.0,0.0,0.0,0.0,0.0,0.0,0.0,0.0,0.0,0.0,0.0,0.0,0.0,0.0,0.0,0.0,0.0,0.0,0.0,0.0,0.0,0.0,0.0,0.0,0.0,0.0,0.0,0.0,0.0,0.0,0.0,0.0,0.0,0.0,0.0,0.0,0.0,0.0,0.0,0.0,0.0,0.0,0.0,0.0,0.0,0.0,0.0,0.0,0.0,0.0,0.0,0.0,0.0,0.0,0.0,0.0,0.0,0.0,0.0,0.0,0.0,0.0,0.0,0.0,0.0,0.0,0.0,0.0,0.0,0.0,0.0,0.0,0.0,0.0,0.0,0.0,0.0,0.0,0.0,0.0,0.0,0.0,0.0,0.0,0.0,0.0,0.0,0.0,0.0,0.0,0.0,0.0,0.0,7.548,7.8325,8.2364,8.2939,7.9823,7.6592,7.2954,0.0,0.0,0.0,0.0,0.0,0.0,0.0,0.0,0.0,0.0,0.0,0.0,0.0,0.0,0.0,0.0,0.0,0.0,0.0,0.0,0.0,0.0,0.0,0.0,0.0,0.0,0.0,0.0,0.0,0.0,0.0,0.0,0.0,0.0,0.0,0.0,0.0,0.0,0.0,0.0,0.0,0.0,0.0,0.0,0.0,0.0,0.0,0.0,0.0,0.0,0.0,0.0,0.0,0.0,0.0,0.0,0.0,0.0,0.0,0.0,0.0,0.0,0.0,0.0,0.0,0.0,0.0,0.0,0.0,0.0,0.0,0.0,0.0,0.0,0.0,0.0,0.0,0.0,0.0,0.0,0.0,0.0,0.0,0.0,0.0,0.0,0.0,0.0,0.0,0.0,0.0,0.0,0.0,0.0,0.0,0.0,0.0,0.0,0.0,0.0,0.0,0.0,0.0,0.0,0.0,0.0,0.0,0.0,7.9094,8.0356,8.5132,8.6863,8.5128,8.0941,7.6366,0.0,0.0,0.0,0.0,0.0,0.0,0.0,0.0,0.0,0.0,0.0,0.0,0.0,0.0,0.0,0.0,0.0,0.0,0.0,0.0,0.0,0.0,0.0,0.0,0.0,0.0,0.0,0.0,0.0,0.0,0.0,0.0,0.0,0.0,0.0,0.0,0.0,0.0,0.0,0.0,0.0,0.0,0.0,0.0,0.0,0.0,0.0,0.0,0.0,0.0,0.0,0.0,0.0,0.0,0.0,0.0,0.0,0.0,0.0,0.0,0.0,0.0,0.0,0.0,0.0,0.0,0.0,0.0,0.0,0.0,0.0,0.0,0.0,0.0,0.0,0.0,0.0,0.0,0.0,0.0,0.0,0.0,0.0,0.0,0.0,0.0,0.0,0.0,0.0,0.0,0.0,0.0,0.0,0.0,0.0,0.0,0.0,0.0,0.0,0.0,0.0,0.0,0.0,0.0,0.0,0.0,0.0,0.0,8.025,8.3779,8.7434,8.8551,8.6903,8.2089,7.8052,0.0,0.0,0.0,0.0,0.0,0.0,0.0,0.0,0.0,0.0,0.0,0.0,0.0,0.0,0.0,0.0,0.0,0.0,0.0,0.0,0.0,0.0,0.0,0.0,0.0,0.0,0.0,0.0,0.0,0.0,0.0,0.0,0.0,0.0,0.0,0.0,0.0,0.0,0.0,0.0,0.0,0.0,0.0,0.0,0.0,0.0,0.0,0.0,6.4193,0.0,0.0,0.0,0.0,0.0,0.0,0.0,0.0,0.0,0.0,0.0,0.0,0.0,0.0,0.0,0.0,0.0,0.0,0.0,0.0,0.0,0.0,0.0,0.0,0.0,0.0,0.0,0.0,0.0,0.0,0.0,0.0,0.0,0.0,0.0,0.0,0.0,0.0,0.0,0.0,0.0,0.0,0.0,0.0,0.0,0.0,0.0,0.0,0.0,0.0,0.0,0.0,0.0,0.0,0.0,0.0,0.0,0.0,0.0,8.2172,8.5976,8.8588,8.9282,8.7942,8.4245,8.0435,0.0,0.0,0.0,0.0,0.0,0.0,0.0,0.0,0.0,0.0,0.0,0.0,0.0,0.0,0.0,0.0,0.0,0.0,0.0,0.0,0.0,0.0,0.0,0.0,0.0,0.0,0.0,0.0,0.0,0.0,0.0,0.0,0.0,0.0,0.0,0.0,0.0,0.0,0.0,0.0,0.0,0.0,0.0,0.0,0.0,0.0,0.0,0.0,0.0,0.0,0.0,0.0,0.0,0.0,0.0,0.0,0.0,0.0,0.0,0.0,0.0,0.0,0.0,0.0,0.0,0.0,0.0,0.0,0.0,0.0,0.0,0.0,0.0,0.0,0.0,0.0,0.0,0.0,0.0,0.0,0.0,0.0,0.0,0.0,0.0,0.0,0.0,0.0,0.0,0.0,0.0,0.0,0.0,0.0,0.0,0.0,0.0,0.0,0.0,0.0,0.0,0.0,0.0,0.0,0.0,0.0,0.0,8.0056,8.4288,8.7865,8.9631,9.0052,8.906,8.6594,8.2901,7.7863,0.0,0.0,0.0,0.0,0.0,0.0,0.0,0.0,0.0,0.0,0.0,0.0,0.0,0.0,0.0,0.0,0.0,0.0,0.0,0.0,0.0,0.0,0.0,0.0,0.0,0.0,0.0,0.0,0.0,0.0,0.0,0.0,0.0,0.0,0.0,0.0,0.0,0.0,6.183,6.3311,0.0,0.0,0.0,0.0,0.0,0.0,0.0,0.0,6.4652,0.0,0.0,0.0,0.0,0.0,0.0,0.0,0.0,0.0,0.0,0.0,0.0,0.0,0.0,0.0,0.0,0.0,0.0,0.0,0.0,0.0,0.0,0.0,0.0,0.0,0.0,0.0,0.0,0.0,0.0,0.0,0.0,0.0,0.0,0.0,0.0,0.0,0.0,0.0,0.0,0.0,0.0,0.0,0.0,0.0,0.0,0.0,0.0,0.0,0.0,0.0,0.0,0.0,0.0,0.0,0.0,7.7826,8.1483,8.5715,9.0441,9.2212,9.2366,9.0787,8.8325,8.463,7.9588,0.0,0.0,0.0,0.0,0.0,0.0,0.0,0.0,0.0,0.0,0.0,0.0,0.0,0.0,0.0,0.0,0.0,0.0,0.0,0.0,0.0,0.0,0.0,0.0,0.0,0.0,0.0,0.0,0.0,0.0,0.0,0.0,0.0,0.0,0.0,0.0,0.0,0.0,0.0,6.4514,6.5173,0.0,0.0,0.0,0.0,0.0,0.0,0.0,0.0,6.7408,0.0,0.0,0.0,0.0,0.0,0.0,0.0,0.0,0.0,0.0,0.0,0.0,0.0,0.0,0.0,0.0,0.0,0.0,0.0,0.0,0.0,0.0,0.0,0.0,0.0,0.0,0.0,0.0,0.0,0.0,0.0,0.0,0.0,0.0,0.0,0.0,0.0,0.0,0.0,0.0,0.0,0.0,0.0,0.0,0.0,0.0,0.0,0.0,0.0,0.0,0.0,0.0,0.0,0.0,0.0,7.9712,8.3638,8.8021,9.2943,9.3468,9.3246,9.2398,8.9089,8.5072,0.0,0.0,0.0,0.0,0.0,0.0,0.0,0.0,0.0,0.0,0.0,0.0,0.0,0.0,0.0,0.0,0.0,0.0,0.0,0.0,0.0,0.0,0.0,0.0,0.0,0.0,0.0,0.0,0.0,0.0,0.0,0.0,0.0,0.0,0.0,0.0,0.0,0.0,0.0,0.0,6.6716,6.7366,6.7702,0.0,0.0,0.0,0.0,0.0,0.0,6.9185,6.9199,0.0,0.0,0.0,0.0,0.0,0.0,0.0,0.0,0.0,0.0,0.0,0.0,0.0,0.0,0.0,0.0,0.0,0.0,0.0,0.0,0.0,0.0,0.0,0.0,0.0,0.0,0.0,0.0,0.0,0.0,0.0,0.0,0.0,0.0,0.0,0.0,0.0,0.0,0.0,0.0,0.0,0.0,0.0,0.0,0.0,0.0,0.0,0.0,0.0,0.0,0.0,0.0,0.0,0.0,0.0,8.1556,8.5944,9.0355,9.4724,9.4563,9.4199,9.3755,8.9462,8.5204,0.0,0.0,0.0,0.0,0.0,0.0,0.0,0.0,0.0,0.0,0.0,0.0,0.0,0.0,0.0,0.0,0.0,0.0,0.0,0.0,0.0,0.0,0.0,0.0,0.0,0.0,0.0,0.0,0.0,0.0,0.0,0.0,0.0,0.0,0.0,0.0,0.0,0.0,0.0,0.0,0.0,7.0093,7.0302,6.9332,0.0,0.0,0.0,0.0,7.0551,7.1243,0.0,0.0,0.0,0.0,0.0,0.0,0.0,0.0,0.0,0.0,0.0,0.0,0.0,0.0,0.0,0.0,0.0,0.0,0.0,0.0,0.0,0.0,0.0,0.0,0.0,0.0,0.0,0.0,0.0,0.0,0.0,0.0,0.0,0.0,0.0,0.0,0.0,0.0,0.0,0.0,0.0,0.0,0.0,0.0,0.0,0.0,0.0,0.0,0.0,0.0,0.0,0.0,0.0,0.0,0.0,0.0,8.3214,8.825,9.2089,9.4734,9.6223,9.6212,9.4581,8.9727,8.5459,0.0,0.0,0.0,0.0,0.0,0.0,0.0,0.0,0.0,0.0,0.0,0.0,0.0,0.0,0.0,0.0,0.0,0.0,0.0,0.0,0.0,0.0,0.0,0.0,0.0,0.0,0.0,0.0,0.0,0.0,0.0,0.0,0.0,0.0,0.0,0.0,0.0,0.0,0.0,0.0,0.0,7.2879,7.1452,7.1635,7.1681,0.0,0.0,7.1277,7.2936,7.5084,0.0,0.0,0.0,0.0,0.0,0.0,0.0,0.0,0.0,0.0,0.0,0.0,0.0,0.0,0.0,0.0,0.0,0.0,0.0,0.0,0.0,0.0,0.0,0.0,0.0,0.0,0.0,0.0,0.0,0.0,0.0,0.0,0.0,0.0,0.0,0.0,0.0,0.0,0.0,0.0,0.0,0.0,0.0,0.0,0.0,0.0,0.0,0.0,0.0,0.0,0.0,0.0,0.0,0.0,0.0,7.9556,8.4978,8.9997,9.3982,9.6818,9.759,9.7311,9.6029,9.0574,8.6291,0.0,0.0,0.0,0.0,0.0,0.0,0.0,0.0,0.0,0.0,0.0,0.0,0.0,0.0,0.0,0.0,0.0,0.0,0.0,0.0,0.0,0.0,0.0,0.0,0.0,0.0,0.0,0.0,0.0,0.0,0.0,0.0,0.0,0.0,0.0,0.0,0.0,0.0,0.0,0.0,0.0,0.0,7.213,7.3027,0.0,0.0,0.0,7.5111,7.6261,0.0,0.0,0.0,0.0,0.0,0.0,0.0,0.0,0.0,0.0,0.0,0.0,0.0,0.0,0.0,0.0,0.0,0.0,0.0,0.0,0.0,0.0,0.0,0.0,0.0,0.0,0.0,0.0,0.0,0.0,0.0,0.0,0.0,0.0,0.0,0.0,0.0,0.0,0.0,0.0,0.0,0.0,0.0,0.0,0.0,0.0,0.0,0.0,0.0,0.0,0.0,0.0,0.0,0.0,0.0,0.0,0.0,8.6637,9.1827,9.5806,9.8391,9.8579,9.8093,9.6946,9.1825,0.0,0.0,0.0,0.0,0.0,0.0,0.0,0.0,0.0,0.0,0.0,0.0,0.0,0.0,0.0,0.0,0.0,0.0,0.0,0.0,0.0,0.0,0.0,0.0,0.0,0.0,0.0,6.2217,0.0,0.0,0.0,0.0,0.0,0.0,0.0,0.0,0.0,0.0,0.0,0.0,0.0,0.0,7.4054,7.3765,7.5239,7.637,0.0,0.0,7.8349,7.9356,8.0611,8.0609,0.0,0.0,0.0,0.0,0.0,0.0,0.0,0.0,0.0,0.0,0.0,0.0,0.0,0.0,0.0,0.0,0.0,0.0,0.0,0.0,0.0,0.0,0.0,0.0,0.0,0.0,0.0,0.0,0.0,0.0,0.0,0.0,0.0,0.0,0.0,0.0,0.0,0.0,0.0,0.0,0.0,0.0,0.0,0.0,0.0,0.0,0.0,0.0,0.0,0.0,0.0,0.0,0.0,0.0,0.0,8.8248,9.3995,9.7395,9.8328,9.908,9.8675,9.6914,9.3426,8.9258,0.0,0.0,0.0,0.0,0.0,0.0,0.0,0.0,0.0,0.0,0.0,0.0,0.0,0.0,0.0,0.0,0.0,0.0,0.0,0.0,0.0,0.0,0.0,0.0,0.0,0.0,0.0,0.0,0.0,0.0,0.0,0.0,0.0,0.0,0.0,0.0,0.0,0.0,0.0,0.0,0.0,7.8044,7.7186,7.9163,8.0664,0.0,0.0,8.0188,8.1796,8.4094,8.4046,7.927,0.0,0.0,0.0,0.0,0.0,0.0,0.0,0.0,0.0,0.0,0.0,0.0,0.0,0.0,0.0,0.0,0.0,0.0,0.0,0.0,0.0,0.0,0.0,0.0,0.0,0.0,0.0,0.0,0.0,0.0,0.0,0.0,0.0,0.0,0.0,0.0,0.0,0.0,0.0,0.0,0.0,0.0,0.0,0.0,0.0,0.0,0.0,0.0,0.0,0.0,0.0,0.0,0.0,8.4047,8.9072,9.4367,9.7954,9.9756,10.0104,9.9662,9.8467,9.4643,9.0975,0.0,0.0,0.0,0.0,0.0,0.0,0.0,0.0,0.0,0.0,0.0,0.0,0.0,0.0,0.0,0.0,0.0,0.0,0.0,0.0,0.0,0.0,0.0,0.0,0.0,0.0,0.0,0.0,6.8452,6.896,6.9304,0.0,0.0,0.0,0.0,0.0,0.0,0.0,0.0,0.0,0.0,7.7225,7.7402,7.9934,0.0,0.0,8.2889,8.355,8.3139,8.4793,8.4563,8.009,7.8477,0.0,0.0,0.0,0.0,0.0,0.0,0.0,0.0,0.0,0.0,0.0,0.0,0.0,0.0,0.0,0.0,0.0,0.0,0.0,0.0,0.0,0.0,0.0,0.0,0.0,0.0,0.0,0.0,0.0,0.0,0.0,0.0,0.0,0.0,0.0,0.0,0.0,0.0,0.0,0.0,0.0,0.0,0.0,0.0,0.0,0.0,0.0,0.0,0.0,0.0,0.0,0.0,8.4917,9.0212,9.4947,9.8694,10.146,10.0915,10.0333,9.9687,9.6172,9.2806,0.0,0.0,0.0,0.0,0.0,0.0,0.0,0.0,0.0,0.0,0.0,0.0,0.0,0.0,0.0,0.0,0.0,0.0,0.0,0.0,0.0,0.0,0.0,0.0,0.0,0.0,0.0,0.0,7.0241,7.0521,7.0513,0.0,0.0,0.0,0.0,0.0,0.0,0.0,0.0,0.0,0.0,7.768,7.8728,8.1047,8.2753,8.3024,8.4142,8.474,8.4079,8.4779,8.4277,8.1053,0.0,0.0,0.0,0.0,0.0,0.0,0.0,0.0,0.0,0.0,0.0,0.0,0.0,0.0,0.0,0.0,0.0,0.0,0.0,0.0,0.0,0.0,0.0,0.0,0.0,0.0,0.0,0.0,0.0,0.0,0.0,0.0,0.0,0.0,0.0,0.0,0.0,0.0,0.0,0.0,0.0,0.0,0.0,0.0,0.0,0.0,0.0,0.0,0.0,0.0,0.0,0.0,0.0,0.0,9.1676,9.5948,9.9725,10.2949,10.1483,10.0636,10.0524,9.812,9.4832,9.0626,0.0,0.0,0.0,0.0,0.0,0.0,0.0,0.0,0.0,0.0,0.0,0.0,0.0,0.0,0.0,0.0,0.0,0.0,0.0,0.0,0.0,0.0,0.0,0.0,0.0,0.0,6.9825,7.1173,7.2141,0.0,0.0,0.0,0.0,0.0,0.0,0.0,0.0,0.0,0.0,7.7666,8.0385,8.1909,8.2951,8.3838,8.471,8.3486,8.3022,8.4637,8.4235,8.3336,0.0,0.0,0.0,0.0,0.0,0.0,0.0,0.0,0.0,0.0,0.0,0.0,0.0,0.0,0.0,0.0,0.0,0.0,0.0,0.0,0.0,0.0,0.0,0.0,0.0,0.0,0.0,0.0,6.9544,0.0,0.0,0.0,0.0,0.0,0.0,0.0,0.0,0.0,0.0,0.0,7.8034,7.8299,0.0,0.0,0.0,0.0,0.0,0.0,0.0,0.0,0.0,0.0,0.0,0.0,8.7305,9.258,9.7353,10.0868,10.3093,10.2635,10.2056,10.148,9.9029,9.4943,8.9139,0.0,0.0,0.0,0.0,0.0,0.0,0.0,0.0,0.0,0.0,0.0,0.0,0.0,0.0,0.0,0.0,0.0,0.0,0.0,0.0,0.0,0.0,0.0,0.0,0.0,7.2818,0.0,0.0,0.0,0.0,0.0,0.0,0.0,0.0,0.0,0.0,0.0,7.4006,7.6124,7.8391,8.0237,8.1337,8.2702,8.4296,0.0,0.0,0.0,0.0,0.0,0.0,0.0,0.0,0.0,0.0,0.0,0.0,0.0,0.0,7.7315,7.4743,7.4222,7.4145,7.4141,0.0,0.0,0.0,0.0,0.0,0.0,0.0,0.0,0.0,0.0,0.0,0.0,0.0,0.0,0.0,0.0,7.2864,0.0,0.0,0.0,0.0,0.0,0.0,0.0,0.0,7.9436,8.0656,8.1468,8.2082,8.2462,0.0,8.3252,8.1839,0.0,0.0,0.0,0.0,0.0,0.0,0.0,0.0,8.8604,9.3876,9.8347,10.1862,10.4316,10.3628,10.3205,10.3158,9.9904,9.5784,9.0863,8.8756,8.6044,0.0,0.0,0.0,0.0,0.0,0.0,0.0,0.0,0.0,0.0,0.0,0.0,0.0,0.0,0.0,0.0,0.0,0.0,0.0,0.0,0.0,0.0,0.0,7.4161,0.0,0.0,0.0,0.0,0.0,0.0,0.0,0.0,0.0,7.4457,7.4926,7.61,7.8282,7.9752,8.0859,8.1429,0.0,0.0,0.0,0.0,0.0,0.0,0.0,8.5194,8.351,8.465,8.5595,8.5053,8.4715,8.4698,8.5264,0.0,0.0,7.9253,7.8505,7.8426,7.8426,7.8937,7.9628,8.0504,8.1155,8.1918,0.0,0.0,0.0,0.0,0.0,0.0,0.0,0.0,7.8132,7.7714,0.0,7.6876,0.0,0.0,0.0,0.0,0.0,0.0,0.0,0.0,8.5198,8.6421,8.5853,8.7386,8.7842,8.707,8.7185,8.7147,8.6877,8.4635,0.0,0.0,0.0,0.0,0.0,0.0,8.9862,9.5637,9.9114,10.274,10.6567,10.4545,10.4046,10.5374,10.0789,9.7353,9.5566,9.1698,8.9065,8.8074,8.3415,0.0,0.0,0.0,0.0,0.0,0.0,0.0,0.0,0.0,0.0,0.0,0.0,0.0,0.0,0.0,0.0,0.0,0.0,0.0,0.0,7.4081,0.0,0.0,0.0,0.0,0.0,0.0,0.0,0.0,0.0,0.0,7.6363,7.7597,7.9211,8.0935,0.0,0.0,0.0,0.0,8.4846,8.5163,8.5074,8.5334,8.6254,8.6975,8.741,8.7241,0.0,0.0,8.997,8.9361,8.8805,8.884,8.8149,8.6731,8.4429,8.3698,8.3575,8.3579,8.3654,8.4091,8.4929,8.5311,8.5825,8.4589,0.0,0.0,0.0,0.0,7.9744,8.0812,8.1583,8.1583,8.1769,8.2039,8.085,0.0,0.0,0.0,0.0,0.0,0.0,8.2264,8.4511,8.6734,8.8532,9.0023,9.1128,9.2162,9.3077,9.3683,9.3688,9.3077,9.3003,8.9526,8.2959,0.0,0.0,0.0,0.0,9.3612,9.8241,10.2244,10.4839,10.6026,10.5918,10.523,10.3931,10.1289,9.8805,9.6595,9.4761,9.2274,8.91,8.7045,0.0,0.0,0.0,0.0,0.0,0.0,0.0,0.0,0.0,0.0,0.0,0.0,0.0,0.0,0.0,0.0,0.0,0.0,0.0,7.7187,7.716,7.6436,0.0,0.0,0.0,0.0,0.0,0.0,0.0,0.0,0.0,8.1318,8.0789,8.0956,0.0,0.0,8.3453,8.4061,8.5057,8.66,8.9035,0.0,0.0,0.0,8.9821,8.9156,8.9128,9.0575,9.1941,9.2518,9.2418,9.2266,9.2253,9.2048,9.16,9.0846,8.8189,8.6307,8.6185,8.7112,8.8462,8.9848,9.0689,9.1669,9.1402,8.6913,8.4741,8.3439,8.292,8.4212,8.5241,8.6011,8.6011,8.5934,8.5746,8.475,8.3639,8.2416,8.1621,0.0,0.0,0.0,8.5817,8.8601,9.029,9.1857,9.3347,9.4875,9.5945,9.6627,9.7468,9.7779,9.7547,9.743,9.5025,9.0328,0.0,0.0,9.0323,9.3456,9.7162,10.1294,10.4539,10.6485,10.7169,10.7329,10.6376,10.4237,10.2517,10.0607,9.8423,9.6898,9.4799,9.193,8.9714,8.7045,0.0,0.0,0.0,0.0,0.0,0.0,0.0,0.0,0.0,0.0,0.0,7.264,7.3477,0.0,0.0,0.0,7.7718,7.8675,7.9331,7.8819,0.0,0.0,0.0,0.0,0.0,0.0,0.0,7.9708,8.2122,8.4222,8.5438,8.5018,8.4844,8.5493,8.5845,8.6142,8.6396,0.0,8.9307,9.1409,9.1425,9.1744,9.3217,9.3181,9.3,9.3303,9.4185,9.5035,9.5537,9.5658,9.5654,9.5638,9.5185,9.4825,9.517,9.2742,9.0481,8.9905,9.0868,9.2287,9.3633,9.4597,9.5607,9.7629,9.7178,9.2073,8.9415,8.8697,8.9522,9.0289,9.1053,9.1112,9.0247,8.8841,8.8726,8.7768,8.6156,8.5361,0.0,0.0,8.8339,9.0443,9.3571,9.5178,9.5948,9.6101,9.847,9.9228,9.8532,9.9381,10.0186,10.083,9.9449,9.9108,9.9769,9.6095,9.4834,9.6136,9.7847,10.0674,10.4654,10.6335,10.7937,10.9344,10.8624,10.7478,10.5912,10.4272,10.2594,10.0827,9.8499,9.6706,9.5566,9.1892,8.9294,8.8112,0.0,0.0,0.0,0.0,0.0,0.0,0.0,0.0,0.0,0.0,0.0,0.0,0.0,0.0,0.0,7.9984,0.0,8.1271,7.9903,0.0,0.0,0.0,7.9552,8.1246,8.2119,8.2927,8.3789,0.0,0.0,0.0,0.0,8.9964,8.9357,8.9712,8.9807,8.9156,9.1066,9.2688,9.2954,9.4235,9.5252,9.5377,9.6513,9.7529,9.7983,9.8681,9.8499,9.8414,9.8442,9.859,9.8531,9.7491,9.6674,9.745,9.6779,9.6068,9.4439,9.4815,9.5675,9.6589,9.7387,9.8233,10.119,10.122,9.946,9.6559,9.3219,9.428,9.4832,9.504,9.528,9.5178,9.4758,9.4111,9.3229,9.2149,9.1355,9.193,9.3497,9.3732,9.4949,9.6927,9.8006,9.8814,9.9458,10.0715,10.1559,10.202,10.282,10.3317,10.3505,10.3772,10.3995,10.4154,10.3816,10.2552,10.0598,10.2738,10.4995,10.7252,10.8936,10.9659,10.9385,10.8621,10.8016,10.7596,10.5988,10.431,10.2635,10.076,9.8426,9.5754,9.4646,9.2542,8.9177,8.6041,0.0,0.0,0.0,0.0,0.0,0.0,0.0,0.0,0.0,7.5242,7.6038,0.0,7.8168,0.0,8.362,8.5181,8.4608,8.4255,0.0,0.0,8.2488,8.2708,8.3848,8.4581,8.5362,8.6389,8.7853,8.9243,9.0459,9.1833,9.3123,9.4124,9.2871,9.2007,9.2416,9.402,9.5392,9.6019,9.7015,9.7733,9.7844,9.8712,9.9356,9.8834,9.9291,9.95,9.8755,9.8611,9.8596,9.8503,9.8275,9.8073,9.8309,9.8583,9.8777,9.8401,9.86,9.9139,9.9938,10.0679,10.1466,10.4989,10.4801,10.3998,10.1991,9.9286,9.8704,9.824,9.7914,9.8066,9.7719,9.701,9.6676,9.6262,9.5843,9.5886,9.6404,9.7282,9.7665,9.8729,10.041,10.1635,10.2435,10.2929,10.4113,10.4574,10.4351,10.553,10.5915,10.5571,10.6752,10.7516,10.7937,10.8745,10.8437,10.7014,10.7593,10.8777,11.0382,11.1337,11.1605,11.1067,10.9927,10.8975,10.8169,10.6179,10.3963,10.1603,9.9881,9.7773,9.5214,9.434,9.285,9.0517,8.7646,8.4893,0.0,0.0,0.0,0.0,0.0,0.0,0.0,0.0,0.0,0.0,0.0,8.112,0.0,8.552,0.0,8.6265,8.5968,8.5698,8.5646,8.5962,8.6673,8.7955,8.8752,8.9419,8.9986,9.1138,9.2071,9.2715,9.3832,9.51,9.6439,9.5768,9.5325,9.5813,9.7217,9.8438,9.8853,9.9941,10.0791,10.0796,10.1231,10.1434,10.0968,10.1226,10.132,10.0797,10.07,10.0664,10.0685,10.0374,10.0292,10.0648,10.0685,10.0918,10.1356,10.1822,10.2018,10.1795,10.2317,10.3076,10.8239,10.7881,10.6877,10.6125,10.5455,10.2976,10.1316,10.0299,10.0337,9.9487,9.8033,9.8215,9.8373,9.8569,9.9534,10.0119,10.0377,10.0954,10.2099,10.374,10.5111,10.5837,10.5909,10.7555,10.7593,10.6291,10.7899,10.8249,10.7449,10.9083,11.0226,11.0885,11.1844,11.2678,11.3283,11.2031,11.1993,11.3321,11.3283,11.3168,11.3015,11.142,10.9777,10.8207,10.5708,10.2872,9.9672,9.793,9.62,9.4441,9.293,9.2067,9.1871,8.8962,8.6862,0.0,8.3013,0.0,0.0,0.0,0.0,0.0,0.0,0.0,0.0,8.3221,8.4441,8.6001,8.6956,8.749,8.7699,8.7054,8.7286,8.8807,8.9617,9.0659,9.2097,9.293,9.3421,9.3554,9.42,9.4732,9.4985,9.5627,9.6381,9.7561,9.8241,9.8655,9.9155,10.0186,10.1005,10.1267,10.2536,10.3088,10.321,10.3449,10.3465,10.3334,10.3296,10.3448,10.318,10.3157,10.3275,10.3269,10.2629,10.2523,10.3321,10.2857,10.2818,10.3533,10.4349,10.4415,10.3147,10.3438,10.3881,10.8759,10.9785,10.9078,10.8693,10.8476,10.7328,10.5541,10.3448,10.3703,10.3273,10.2277,10.1609,10.1889,10.2797,10.3045,10.3995,10.5406,10.4656,10.498,10.6214,10.6295,10.6467,10.6749,10.8395,10.9,10.8812,11.0462,11.0847,11.001,11.1681,11.2216,11.1837,11.3296,11.4098,0.0,0.0,0.0,0.0,11.3557,11.29,11.2181,11.0532,10.9198,10.8166,10.5631,0.0,10.0385,9.8573,9.6534,9.4216,9.3851,0.0,0.0,0.0,0.0,0.0,0.0,0.0,0.0,0.0,0.0,0.0,8.6808,8.6658,8.5048,8.6846,8.8525,8.9554,9.0361,9.1136,9.1842,9.1804,9.1849,9.2258,9.2424,9.2689,9.3115,9.3248,9.3532,9.4354,9.4518,9.5115,9.6445,9.6776,9.7631,9.954,10.0156,10.0791,10.2061,10.2019,10.2115,10.2687,10.324,10.3426,10.347,10.4122,10.4294,10.3755,10.4064,10.4143,10.3563,10.3376,10.3306,10.3326,10.3105,10.3062,10.33,10.3617,10.4203,10.5103,10.5914,10.6048,10.4669,10.544,10.6242,11.0022,0.0,11.0079,10.9687,0.0,10.8957,10.7821,10.6152,10.5221,10.4356,10.3648,10.3356,10.3777,10.4779,10.5489,10.653,10.7675,10.7665,10.8122,10.8928,10.9343,10.9605,10.9788,11.0807,11.0837,11.0115,11.1799,11.1949,11.085,11.2831,11.3633,11.3254,11.4477,11.5314,11.5738,11.6578,11.6349,11.5123,11.4665,11.4241,11.3786,11.2563,11.1111,10.9465,0.0,0.0,0.0,0.0,0.0,0.0,0.0,0.0,0.0,0.0,0.0,9.1097,8.9787,8.8934,8.8667,8.9024,8.9442,8.99,9.1082,9.0893,8.8795,9.0208,9.1355,9.1813,9.2233,9.2618,9.3036,9.3112,9.3095,9.3187,9.3886,9.4254,9.4023,9.491,9.5664,9.5753,9.6104,9.6664,9.7522,9.7596,9.8205,9.9808,10.0412,10.1253,10.28,10.3226,10.3528,10.4299,10.4471,10.4536,10.46,10.4912,10.5147,10.4759,10.495,10.5006,10.4568,10.4485,10.4479,10.4443,10.4429,10.4417,10.4451,10.4769,10.5186,10.5641,10.6332,10.6716,10.6007,10.6781,10.7557,11.1834,11.1217,11.107,11.0605,10.993,10.9785,10.9192,10.8221,0.0,0.0,0.0,10.4493,10.5114,10.5981,10.7218,10.8126,10.8748,10.9621,11.0324,11.0788,11.1668,11.2235,11.2502,11.2901,11.2514,11.1497,11.3095,11.3091,11.1726,11.398,11.5095,11.5015,11.5776,11.6495,11.7218,11.7864,11.7496,11.6115,11.5975,11.5849,11.5693,11.4698,11.2987,11.0432,10.7802,10.421,9.9689,9.7638,9.5932,9.4623,9.3624,9.3847,9.5459,9.4142,9.342,9.3712,9.3058,9.2684,9.2848,9.2883,9.32,9.3884,9.4607,9.4236,9.2424,9.3038,9.3535,9.3535,9.3666,9.3767,9.3726,9.3884,9.3958,9.3961,9.5205,9.5751,9.5211,9.6739,9.7706,9.7318,9.7771,9.8412,9.8579,9.877,9.9181,10.0148,10.1142,10.1824,10.3287,10.4231,10.4782,10.5383,10.5444,10.5603,10.5686,10.5657,10.5679,10.5586,10.5615,10.5679,10.5718,10.5832,10.5909,10.5841,10.5982,10.6132,10.6138,10.6176,10.6214,10.6326,10.6867,10.7411,10.7602,10.8137,10.8522,11.4071,11.3384,11.3322,11.2834,11.2004,11.1335,11.0247,10.8886,10.7363,10.6296,10.5696,10.5746,10.6447,10.7663,10.787,10.8523,10.9503,10.948,10.9601,0.0,10.9812,11.047,11.1685,11.2437,11.3207,11.4047,11.5655,11.596,11.5273,11.6846,11.7384,11.6836,11.7495,11.7989,11.809,11.7886,11.7668,11.7409,11.7011,11.6457,11.5693,11.3917,11.1762,10.9312,10.7119,10.4565,10.1682,9.9809,9.8522,9.7819,9.6238,9.5971,9.7216,9.6218,9.6012,9.6927,9.6818,9.6739,9.6826,9.6981,9.7081,9.7236,9.7348,9.6478,9.4286,9.4799,9.526,9.529,9.5762,9.6195,9.623,9.6699,9.7013,9.7133,9.7482,9.7653,9.75,9.7941,9.8249,9.8117,9.87,9.9578,10.0172,10.0827,10.1744,10.3161,10.3314,10.4119,10.488,10.5418,10.5533,10.5679,10.5679,10.5679,10.5855,10.5715,10.5817,10.5679,10.5744,10.5814,10.5664,10.6281,10.6667,10.6717,10.7198,10.7647,10.7739,10.7863,10.7937,10.8354,10.8695,10.9083,10.9704,11.0086,10.9853,11.6085,11.5709,11.5268,11.4859,11.4451,11.3633,11.242,11.0984,11.0778,10.9416,10.7546,10.8312,10.9116,10.9864,11.0878,11.1539,11.1887,11.2444,11.2621,11.2591,11.309,11.369,11.4322,11.4895,11.521,11.5438,11.6709,11.6936,11.6337,11.7601,11.7986,11.7474,11.8487,11.9083,11.9113,11.98,11.9864,11.9257,11.7851,11.672,11.588,11.4974,11.3491,11.1485,10.9443,10.7187,10.4686,10.2734,10.1464,10.0832,9.9226,9.9062,10.07,9.9363,9.865,9.8928,9.8896,9.8468,9.7614,9.7709,9.7786,9.7789,9.7789,9.7353,9.6298,9.6538,9.6729,9.6767,9.7051,9.7249,9.7249,9.762,9.7896,9.7896,9.8809,9.9261,9.9075,10.0157,10.0651,10.0331,10.0933,10.1582,10.1941,10.2361,10.2782,10.3663,10.4084,10.473,10.5568,10.608,10.6344,10.6349,10.6374,10.6579,10.684,10.6942,10.6722,10.6239,10.6589,10.6477,10.5997,10.6614,10.7319,10.7061,10.7625,10.8118,10.8204,10.8204,10.8398,10.8624,10.9156,10.9694,11.0465,11.1016,11.0949,11.7117,11.6894,11.6306,11.6072,11.605,11.5507,11.4446,11.3183,11.3559,11.2177,10.9893,11.0869,11.151,11.1862,11.3298,11.3789,11.374,11.4714,11.5068,11.4965,11.5747,11.6299,11.655,11.6675,11.6453,11.6278,11.7221,11.7379,11.6988,11.7947,11.8438,11.8435,11.9687,12.0312,12.0157,12.151,12.1706,12.0648,11.8719,11.7275,11.6443,11.6118,11.517,11.3564,11.1712,10.9813,10.7787,10.6046,10.4845,10.4204,10.2656,10.2426,10.3768,10.2171,10.0969,10.072,10.0498,9.9877,9.8729,9.8681,9.876,9.8792,9.8817,9.8814,9.8754,9.8804,9.8588,9.8153,9.84,9.8666,9.8755,9.898,9.9043,9.9126,10.0301,10.0945,10.0571,10.2059,10.2973,10.2397,10.2929,10.3425,10.3511,10.3819,10.4125,10.4278,10.4428,10.4953,10.5644,10.6398,10.6882,10.7154,10.7174,10.7294,10.7877,10.7907,10.7594,10.6861,10.7413,10.7301,10.6754,10.7508,10.8157,10.7825,10.8284,10.8819,10.8822,10.8822,10.8898,10.9086,10.9468,10.9962,11.0579,11.1376,11.1768,11.6403,11.5695,11.5785,11.5671,11.5868,11.6029,11.5545,11.4738,11.4116,11.3322,11.2477,11.2594,11.2779,11.294,11.3202,11.3351,11.3347,11.4048,11.4478,11.4487,11.4496,11.5119,11.6116,11.5465,11.5571,11.6564,11.7463,11.7846,11.7804,11.8635,11.9378,12.0144,12.1715,12.2014,12.1464,12.1904,12.1801,12.096,11.9727,11.8633,11.7654,11.6454,11.5105,11.3637,11.2253,11.1254,11.0514,10.9667,10.898,10.8497,10.67,10.5686,10.5427,10.37,10.2666,10.2784,10.2055,10.1673,10.1791,10.1877,10.1849,10.2074,10.2054,10.1983,10.1801,10.2102,10.1376,9.9974,10.0506,10.1145,10.1354,10.1936,10.2288,10.2297,10.2748,10.2905,10.2893,10.3037,10.3143,10.3129,10.3933,10.4306,10.4568,10.5565,10.6364,10.6126,10.5849,10.5744,10.5959,10.6636,10.7344,10.7871,10.7983,10.7897,10.7965,10.7914,10.7983,10.7716,10.7929,10.7963,10.7895,10.8373,10.9194,10.8889,10.9659,11.0162,11.0277,11.0468,11.0353,11.0197,11.0388,11.0656,11.0815,11.1529,11.1994,11.9403,11.9065,11.8585,11.7569,11.6447,11.647,11.6095,11.5512,11.6179,11.5859,11.4934,11.5321,11.4915,11.3967,11.4859,11.5307,11.5307,11.5648,11.6059,11.647,11.6022,11.6333,11.715,11.6935,11.7029,11.7531,11.8503,11.8988,11.9106,11.9816,12.038,12.0739,12.1568,12.1785,12.1503,12.1939,12.1761,12.0843,12.0378,11.94,11.7944,11.6895,11.5796,11.4528,11.3109,11.2263,11.1968,11.0792,11.0116,11.0161,10.8982,10.8176,10.7808,10.64,10.5286,10.4557,10.3357,10.2826,10.3115,10.3235,10.3125,10.2719,10.3165,10.3214,10.2739,10.3664,10.3916,10.3147,10.2604,10.2516,10.303,10.3468,10.3928,10.4408,10.5007,10.5358,10.5269,10.5325,10.554,10.593,10.5503,10.5585,10.6469,10.7139,10.7288,10.7015,10.6821,10.7018,10.7086,10.7756,10.8292,10.8663,10.8932,10.9236,10.9252,10.9342,10.9104,10.8778,10.902,10.9261,10.8448,10.9299,11.0,10.9535,11.0153,11.0656,11.0621,11.0697,11.0697,11.0812,11.1684,11.2063,11.157,11.2554,11.3134,12.0901,12.0691,12.0374,11.9304,11.7757,11.7781,11.7337,11.6683,11.762,11.7233,11.6033,11.6712,11.6254,11.516,11.5893,11.6522,11.6933,11.6975,11.7572,11.8392,11.7684,11.7758,11.8509,11.8313,11.8238,11.8363,11.9021,11.9467,11.9574,12.0479,12.0945,12.0978,12.1498,12.1685,12.1557,12.2069,12.1915,12.1024,12.0774,11.9945,11.8686,11.7826,11.6746,11.5329,11.3846,11.3049,11.2931,11.182,11.1154,11.1204,11.0637,11.0147,10.9767,10.8798,10.7691,10.6493,10.5202,10.4667,10.511,10.4951,10.4708,10.4441,10.4849,10.4842,10.453,10.5457,10.614,10.6032,10.5021,10.4653,10.5002,10.5225,10.5581,10.621,10.6903,10.7208,10.7091,10.7199,10.7393,10.7806,10.6973,10.6905,10.8109,10.8208,10.7783,10.7679,10.7838,10.8052,10.82,10.883,10.9512,10.948,11.0159,11.065,11.0706,11.0557,11.0208,11.0083,11.0263,11.0165,10.8991,11.0069,11.0659,11.0118,11.0503,11.0656,11.0697,11.0697,11.0697,11.0962,11.1761,11.2518,11.157,11.2875,11.3404,11.9228,11.8828,11.9627,12.011,12.0201,12.028,11.9659,11.8267,11.7795,11.6648,11.5433,11.6107,11.6244,11.603,11.5562,11.5973,11.7236,11.7395,11.8218,11.9497,11.8807,11.8945,11.9747,11.8977,11.8595,11.8595,11.8796,11.8897,11.894,12.0117,12.0718,12.0803,12.1951,12.2315,12.1804,12.2267,12.2343,12.1539,12.0826,12.0315,12.0119,11.9351,11.7844,11.5784,11.4481,11.3783,11.3487,11.329,11.2801,11.1899,11.1754,11.1578,11.1148,11.0307,10.9439,10.866,10.7825,10.7758,10.8305,10.7565,10.719,10.7917,10.7804,10.7698,10.7329,10.7696,10.7908,10.7904,10.7769,10.7791,10.7858,10.7702,10.7835,10.8033,10.8121,10.8201,10.8185,10.8182,10.81,10.8159,10.8144,10.8281,10.9134,10.8538,10.8642,10.8856,10.8698,10.8475,10.8835,10.9707,11.0364,11.0728,11.1458,11.2262,11.1377,11.1207,11.1258,11.1149,11.1191,11.1342,11.0893,11.0584,11.0636,11.0672,11.0789,11.0824,11.0716,11.0697,11.0697,11.1,11.1646,11.1914,11.1837,11.1863,11.2561,12.0593,12.074,12.0646,12.0631,12.0608,11.9665,11.9026,11.8749,11.8982,11.8049,11.6773,11.7726,11.7546,11.6192,11.6452,11.7115,11.8113,11.8055,11.8584,11.948,11.8807,11.8763,11.9288,11.905,11.8896,11.9013,11.9499,12.0017,12.053,12.1044,12.1263,12.1266,12.1578,12.1825,12.2017,12.174,12.1664,12.1817,12.1106,12.045,11.9989,11.9598,11.8715,11.739,11.6176,11.543,11.5326,11.3835,11.2902,11.2853,11.2368,11.1895,11.1483,11.0813,11.0378,11.0178,10.9598,10.9467,10.984,10.9736,10.9413,10.9284,10.97,10.9616,10.9186,10.9105,10.9218,10.9356,10.9431,10.9573,10.9621,10.9312,10.9198,10.9701,10.9777,10.9704,10.9608,10.929,10.9102,10.9491,10.9616,10.9415,10.8903,10.9336,10.9993,10.9872,11.0423,11.0841,11.1105,11.1601,11.1772,11.1935,11.2235,11.2523,11.2873,11.2295,11.2106,11.2179,11.2245,11.2194,11.1915,11.1769,11.1859,11.1662,11.1523,11.1309,11.1339,11.1101,11.1031,11.105,11.1737,11.227,11.2372,11.2585,11.3306,12.1211,12.1585,12.1132,12.0923,12.0854,11.9788,11.9344,11.9478,11.998,11.9392,11.8457,11.9432,11.9295,11.8415,11.8866,11.9618,12.0255,11.9563,11.9454,12.0091,11.9605,11.9548,11.982,11.9644,11.9491,11.965,12.0389,12.1096,12.1602,12.2049,12.223,12.2219,12.1991,12.2155,12.2487,12.2018,12.1976,12.2313,12.194,12.1291,12.052,12.0416,12.0037,11.9173,11.8065,11.7011,11.6301,11.4399,11.343,11.3563,11.3129,11.2805,11.2706,11.2358,11.2267,11.2369,11.1674,11.1417,11.1691,11.148,11.1055,11.0802,11.1083,11.1099,11.0568,11.0526,11.0495,11.0507,11.0458,11.0526,11.0318,11.0061,11.0141,11.0601,11.0697,11.0662,11.0536,11.0101,11.0105,11.0415,11.0655,11.0145,10.943,11.0666,11.1173,11.0789,11.1772,11.241,11.2544,11.2719,11.2769,11.2896,11.2981,11.3277,11.352,11.3301,11.2975,11.3012,11.289,11.289,11.2823,11.2791,11.276,11.2597,11.2362,11.214,11.1876,11.1651,11.1467,11.1351,11.1824,11.2465,11.2902,11.3498,11.3849,12.0985,12.1095,12.0912,12.108,12.1215,12.1,12.0914,12.0685,12.0715,12.0422,11.9984,12.0813,12.1432,12.1963,12.209,12.3146,12.3283,12.1759,12.1129,12.1551,12.1562,12.1514,12.1437,12.0866,12.0622,12.061,12.1283,12.1616,12.1828,12.2816,12.3378,12.3447,12.3187,12.3126,12.331,12.3084,12.3108,12.3145,12.2998,12.2674,12.2166,12.1878,12.1474,12.0734,11.984,11.8383,11.631,11.5313,11.4708,11.4377,11.4189,11.4492,11.4701,11.4756,11.5086,11.4894,11.4043,11.3823,11.4205,11.2864,11.2361,11.2612,11.2523,11.2258,11.2099,11.1986,11.173,11.1288,11.1046,11.0776,11.0298,11.0615,11.0914,11.0762,11.0846,11.0942,11.0764,11.0719,11.0729,11.0907,11.1269,11.1506,11.1591,11.1998,11.2299,11.2141,11.2326,11.2558,11.2684,11.3026,11.3195,11.3362,11.3598,11.3899,11.4129,11.425,11.4014,11.3817,11.3585,11.3429,11.318,11.307,11.3096,11.2975,11.2808,11.255,11.2246,11.2042,11.2142,11.2133,11.2541,11.2725,11.3083,11.3482,11.3543,12.2557,12.2484,12.1946,12.1774,12.1735,12.1258,12.1212,12.1636,12.1679,12.1623,12.1746,12.2476,12.2796,12.2799,12.3338,12.3714,12.3817,12.3547,12.3352,12.3096,12.3151,12.2801,12.2304,12.2508,12.2592,12.2455,12.264,12.2762,12.2824,12.3235,12.3377,12.3389,12.3371,12.3591,12.4038,12.3084,12.271,12.3181,12.2747,12.2056,12.1395,12.1841,12.1731,12.0912,12.0073,11.9162,11.8495,11.7168,11.6423,11.621,11.5212,11.4549,11.4401,11.4487,11.4676,11.484,11.4518,11.4416,11.4858,11.4496,11.3959,11.3985,11.3788,11.3474,11.3029,11.255,11.2303,11.2207,11.188,11.1448,11.1786,11.1971,11.1817,11.1003,11.1599,11.1776,11.1364,11.1432,11.1817,11.2209,11.2423,11.2396,11.2271,11.2687,11.3016,11.2869,11.3153,11.3536,11.3704,11.3682,11.398,11.412,11.4338,11.4438,11.4586,11.4646,11.4506,11.4411,11.4234,11.3868,11.3584,11.3608,11.3552,11.3373,11.3208,11.3009,11.271,11.2596,11.2713,11.2717,11.2888,11.3017,11.3123,11.332,11.3566,12.3922,12.4105,12.364,12.342,12.3347,12.257,12.2557,12.2997,12.2788,12.2779,12.3091,12.3495,12.3756,12.3763,12.4153,12.457,12.4961,12.5428,12.5484,12.5098,12.4347,12.3685,12.2879,12.3234,12.3462,12.3396,12.3591,12.3738,12.3775,12.4032,12.4185,12.4215,12.4179,12.4442,12.4846,12.4001,12.3714,12.4032,12.375,12.3047,12.2453,12.2423,12.2313,12.1756,12.0991,12.0599,12.0446,11.9517,11.8593,11.7633,11.6354,11.5441,11.4924,11.5039,11.5165,11.5301,11.528,11.5313,11.5515,11.5394,11.5227,11.4905,11.4859,11.4692,11.417,11.3487,11.3126,11.2893,11.2286,11.1838,11.197,11.2553,11.2423,11.1908,11.2274,11.2391,11.19,11.1955,11.2178,11.2557,11.2919,11.292,11.2822,11.3245,11.3567,11.3425,11.3713,11.4094,11.4174,11.4069,11.429,11.4524,11.4643,11.4784,11.5034,11.503,11.4972,11.4939,11.4878,11.4393,11.3999,11.4347,11.4464,11.3986,11.3743,11.3725,11.3468,11.3382,11.3431,11.3369,11.3253,11.3409,11.3554,11.3684,11.3884,12.5109,12.5733,12.5696,12.5519,12.5402,12.4735,12.4552,12.4748,12.4214,12.4095,12.4327,12.4531,12.48,12.5237,12.5334,12.5925,12.7035,12.6966,12.7159,12.7012,12.5832,12.4393,12.3805,12.3671,12.3701,12.3922,12.4325,12.4589,12.4803,12.5213,12.5709,12.5519,12.5439,12.5629,12.5519,12.5592,12.5262,12.5219,12.5329,12.4882,12.4148,12.3701,12.3261,12.3151,12.2459,12.1988,12.1805,12.1511,12.0587,11.8709,11.7712,11.7077,11.6615,11.6487,11.6435,11.6525,11.6365,11.6153,11.6075,11.5851,11.5613,11.5498,11.5466,11.558,11.5144,11.4505,11.3946,11.3426,11.2749,11.2066,11.1855,11.2625,11.3313,11.3266,11.312,11.2786,11.244,11.2399,11.2611,11.2808,11.316,11.3585,11.3494,11.4112,11.4233,11.4088,11.4099,11.4234,11.4265,11.4492,11.4426,11.4711,11.5135,11.5297,11.5569,11.5613,11.5547,11.5541,11.557,11.5375,11.4723,11.4911,11.4982,11.4543,11.4163,11.4233,11.412,11.3851,11.376,11.3685,11.3696,11.3842,11.3871,11.3885,11.3945,12.6381,12.6497,12.5953,12.5709,12.5666,12.5439,12.5764,12.6297,12.6114,12.6292,12.6856,12.7034,12.6992,12.7292,12.7235,12.7516,12.7804,12.782,12.7813,12.7892,12.6895,12.5955,12.5288,12.4717,12.4938,12.5702,12.55,12.569,12.6197,12.591,12.5739,12.5709,12.5739,12.5739,12.5666,12.5249,12.4846,12.4809,12.4846,12.4515,12.3958,12.4068,12.3885,12.3292,12.3114,12.268,12.2098,12.1505,12.0697,11.9486,11.9119,11.8617,11.7786,11.7235,11.6951,11.6853,11.6439,11.6154,11.6283,11.6245,11.5994,11.5603,11.5597,11.5322,11.4889,11.4714,11.4493,11.4364,11.4295,11.4244,11.4352,11.4815,11.5193,11.5158,11.431,11.3736,11.3843,11.3547,11.3585,11.4752,11.5099,11.5256,11.5454,11.5663,11.5744,11.5496,11.5398,11.5374,11.5231,11.5262,11.537,11.5644,11.5937,11.5983,11.6096,11.6141,11.6158,11.6167,11.6311,11.6592,11.5859,11.537,11.5178,11.4804,11.4328,11.4206,11.3982,11.3704,11.3754,11.3783,11.373,11.3677,11.3717,11.3765,11.3829,12.81,12.8363,12.7892,12.7715,12.7672,12.7342,12.7482,12.777,12.7549,12.7635,12.8039,12.8076,12.8076,12.8076,12.8076,12.8296,12.859,12.8583,12.8804,12.892,12.7929,12.6836,12.5998,12.5367,12.5796,12.673,12.6461,12.6454,12.6748,12.6424,12.6057,12.5843,12.6026,12.6204,12.6247,12.6167,12.5983,12.602,12.5727,12.5243,12.4907,12.4546,12.4515,12.4185,12.4038,12.3444,12.2606,12.1536,12.0508,11.978,11.9565,11.9082,11.8006,11.7486,11.7046,11.6758,11.6305,11.6233,11.6383,11.6478,11.6379,11.6088,11.6005,11.5843,11.5512,11.5238,11.5053,11.509,11.4997,11.5,11.5285,11.5754,11.6127,11.6063,11.5503,11.5033,11.5218,11.4477,11.4695,11.5613,11.6083,11.6158,11.6487,11.6512,11.6406,11.6212,11.6036,11.6068,11.6071,11.6248,11.6356,11.6565,11.6773,11.6855,11.7085,11.723,11.716,11.7127,11.7071,11.7385,11.6798,11.5982,11.5543,11.5144,11.4605,11.4178,11.4048,11.3815,11.3578,11.3565,11.3519,11.3544,11.3586,11.397,11.3992,12.9715,13.0382,13.0382,13.0419,13.0235,12.9715,12.9305,12.9274,12.8694,12.8443,12.8516,12.8406,12.859,12.8333,12.8663,12.8804,12.9421,12.9421,12.9715,12.9575,12.8767,12.7514,12.6358,12.6009,12.6455,12.7182,12.7115,12.7146,12.7256,12.7109,12.6601,12.6283,12.6608,12.6748,12.6748,12.7262,12.7709,12.7268,12.6644,12.6314,12.6014,12.5323,12.4992,12.5262,12.4668,12.4111,12.3224,12.208,12.0881,11.9933,11.978,11.915,11.789,11.7633,11.7235,11.6824,11.6809,11.6745,11.6703,11.6963,11.6949,11.6901,11.6801,11.674,11.6486,11.5958,11.5495,11.5559,11.4917,11.4989,11.5285,11.5923,11.6468,11.6614,11.6495,11.6244,11.603,11.5339,11.517,11.6086,11.624,11.6273,11.6385,11.6423,11.6484,11.6936,11.6814,11.6842,11.6846,11.6882,11.7107,11.7314,11.7516,11.7718,11.8061,11.8398,11.8257,11.8159,11.7971,11.7971,11.7475,11.6757,11.6136,11.5614,11.5398,11.4944,11.4464,11.4137,11.385,11.3917,11.4254,11.3875,11.3538,11.421,11.4526,12.9385,12.9568,12.9568,12.9935,13.0419,13.0302,13.0235,13.0199,13.0045,12.9831,12.9942,12.9948,12.9911,12.9942,12.9838,13.0088,13.0162,13.0125,13.0088,12.9458,12.9305,12.851,12.7562,12.7048,12.7446,12.8247,12.807,12.8143,12.8357,12.7549,12.7152,12.7348,12.6467,12.6314,12.6852,12.6681,12.621,12.6216,12.61,12.6137,12.61,12.5739,12.5482,12.5629,12.4919,12.4442,12.4148,12.3298,12.2417,12.1658,12.0924,12.0324,11.9774,11.9266,11.8789,11.847,11.8095,11.7922,11.7964,11.7912,11.7991,11.7885,11.7424,11.7098,11.7055,11.636,11.595,11.5936,11.5924,11.6049,11.6491,11.7334,11.7546,11.7285,11.6838,11.6675,11.6947,11.6165,11.5884,11.6428,11.6756,11.6914,11.7522,11.7551,11.7579,11.7662,11.7611,11.7635,11.7595,11.7503,11.7615,11.7788,11.7846,11.7979,11.8083,11.8375,11.8382,11.8377,11.8358,11.8306,11.7811,11.7502,11.6833,11.6522,11.6355,11.5785,11.502,11.5086,11.4941,11.5001,11.4877,11.4521,11.4338,11.48,11.4969,12.9525,12.9862,12.9862,13.0082,13.0455,13.0499,13.0499,13.0499,13.0499,13.0499,13.0499,13.0499,13.0499,13.0499,13.0499,13.0492,13.0499,13.0499,13.0272,12.9825,12.9531,12.9274,12.9171,12.851,12.854,12.9195,12.8907,12.8834,12.8473,12.7959,12.7275,12.7018,12.6467,12.6571,12.6925,12.6761,12.6944,12.6834,12.6424,12.6277,12.6277,12.588,12.5709,12.5555,12.4956,12.4478,12.4405,12.3701,12.3114,12.257,12.1909,12.1065,12.0367,11.9859,11.9492,11.9009,11.8709,11.8416,11.8385,11.8416,11.8397,11.8458,11.7969,11.7602,11.7303,11.6801,11.6617,11.6561,11.6755,11.704,11.7824,11.8285,11.8421,11.8269,11.7805,11.7821,11.7949,11.6985,11.641,11.7108,11.7433,11.762,11.7936,11.8027,11.8024,11.7812,11.7826,11.7841,11.7904,11.7857,11.7901,11.8004,11.8046,11.8088,11.8081,11.8149,11.8187,11.8174,11.8184,11.8179,11.8002,11.7752,11.7548,11.7203,11.6786,11.6266,11.5675,11.5828,11.5689,11.5171,11.4928,11.4946,11.5013,11.5128,11.5213,12.9715,13.0309,13.0302,13.0376,13.0499,13.0499,13.0499,13.0499,13.0499,13.0499,13.0499,13.0499,13.0499,13.0499,13.0499,13.0499,13.0499,13.0499,13.0382,13.0309,12.9862,12.9905,13.0015,12.9715,12.9421,12.9488,12.9495,12.9207,12.881,12.8296,12.7966,12.6834,12.6601,12.6968,12.7225,12.7342,12.7311,12.7128,12.6681,12.6491,12.6454,12.5983,12.5739,12.5555,12.5182,12.4815,12.4699,12.4215,12.3665,12.3432,12.2827,12.1695,12.0587,11.9963,11.9633,11.8966,11.9187,11.926,11.9113,11.8966,11.8966,11.8783,11.8416,11.819,11.7749,11.7382,11.7235,11.7413,11.7581,11.7962,11.8728,11.9069,11.9156,11.9033,11.9065,11.9122,11.8853,11.7758,11.7588,11.7785,11.7926,11.7975,11.7884,11.7872,11.7937,11.8024,11.7992,11.8019,11.8034,11.8016,11.7924,11.7883,11.7846,11.7837,11.7825,11.7856,11.7889,11.7907,11.7947,11.7947,11.7942,11.7761,11.7517,11.7401,11.7004,11.6605,11.6379,11.6437,11.6053,11.5336,11.5387,11.5795,11.5704,11.5425,11.5547,12.9378,12.9488,12.9488,12.9862,13.0455,13.0499,13.0499,13.0499,13.0499,13.0499,13.0499,13.0499,13.0499,13.0499,13.0499,13.0499,13.0499,13.0499,13.0499,13.0499,13.0235,13.0382,13.0382,13.0309,13.0229,13.0302,13.0229,13.0015,12.9685,12.9464,12.8804,12.8994,12.7702,12.7195,12.7305,12.6871,12.6467,12.654,12.621,12.6063,12.5953,12.5843,12.5776,12.5776,12.5519,12.5439,12.5482,12.5366,12.4992,12.4362,12.4185,12.3524,12.2637,12.1946,12.1285,12.0697,12.0808,12.0771,12.0324,12.0361,12.0435,12.0178,11.9333,11.8899,11.8715,11.8085,11.7823,11.8226,11.8727,11.9103,11.8821,11.9473,11.9557,11.9333,11.9256,11.925,11.9142,11.8864,11.8444,11.8521,11.8373,11.8161,11.8004,11.7847,11.7798,11.7755,11.77,11.769,11.7687,11.7635,11.7584,11.7548,11.7464,11.7486,11.7496,11.7512,11.7552,11.7593,11.7619,11.7624,11.7603,11.7537,11.7402,11.7382,11.7487,11.7401,11.7227,11.7056,11.6827,11.6378,11.6533,11.6746,11.6428,11.6106,11.6242,12.9562,12.9935,12.9935,13.0155,13.0455,13.0499,13.0499,13.0499,13.0499,13.0499,13.0499,13.0499,13.0499,13.0499,13.0499,13.0499,13.0529,13.0499,13.0499,13.0499,13.0499,13.0499,13.0529,13.0529,13.0499,13.0492,13.0455,13.0015,12.9318,12.8847,12.884,12.8283,12.7335,12.7335,12.7715,12.7018,12.6387,12.6277,12.5959,12.5739,12.5739,12.5739,12.588,12.613,12.5953,12.5916,12.6204,12.5843,12.5549,12.5109,12.4699,12.4332,12.3922,12.3481,12.279,12.1915,12.1915,12.1762,12.1095,12.0912,12.0875,12.0802,12.0031,11.9633,11.9492,11.8972,11.8636,11.904,11.9743,12.0152,11.997,12.0257,12.0273,12.0117,11.9985,11.9991,12.0016,12.0022,11.9662,11.9164,11.8977,11.866,11.8118,11.7896,11.7694,11.7577,11.7471,11.7471,11.7492,11.7582,11.7661,11.7583,11.7615,11.7545,11.7508,11.7439,11.7412,11.7412,11.7412,11.7412,11.7417,11.7428,11.7442,11.7497,11.7669,11.7739,11.7585,11.7217,11.7279,11.7334,11.7112,11.6942,11.6883,11.6846,11.6895,12.9898,13.0499,13.0499,13.0499,13.0499,13.0499,13.0499,13.0499,13.0499,13.0499,13.0499,13.0499,13.0499,13.0535,13.0712,13.0859,13.0926,13.1043,13.1116,13.1153,13.1116,13.1006,13.0786,13.0712,13.0719,13.0499,13.0499,12.9758,12.895,12.881,12.8259,12.8033,12.7513,12.7623,12.807,12.7599,12.7256,12.6932,12.6577,12.618,12.599,12.6137,12.6247,12.6711,12.6314,12.6424,12.6387,12.624,12.588,12.5555,12.5145,12.4729,12.4735,12.4735,12.4038,12.2869,12.2459,12.1909,12.1358,12.0912,12.0912,12.0875,12.0691,12.0294,12.0147,11.989,11.9859,12.0,12.0367,12.0808,12.0691,12.085,12.0862,12.0832,12.0807,12.0856,12.0782,12.0677,12.0497,12.0078,11.9707,11.9247,11.8773,11.8369,11.8259,11.8044,11.7938,11.7891,11.7944,11.8038,11.808,11.7949,11.7843,11.7726,11.7635,11.7497,11.7434,11.7412,11.7412,11.7412,11.7412,11.7417,11.7464,11.7564,11.748,11.7523,11.7423,11.7407,11.7386,11.7328,11.7207,11.7143,11.7117,11.7127,11.7132,13.0419,13.0492,13.0529,13.0499,13.0566,13.0602,13.0529,13.0529,13.0566,13.0499,13.0499,13.0492,13.0492,13.0719,13.127,13.1887,13.2327,13.2394,13.2314,13.2284,13.2321,13.1997,13.1606,13.157,13.1013,13.0602,13.0499,13.0015,12.9318,12.9611,12.9648,12.8974,12.8754,12.9085,12.9011,12.8363,12.7966,12.7923,12.7819,12.7415,12.6975,12.7348,12.7011,12.6724,12.6944,12.7275,12.6608,12.6608,12.6534,12.5916,12.5733,12.5586,12.5555,12.5549,12.5109,12.4295,12.3555,12.282,12.2025,12.1505,12.1095,12.1028,12.0551,12.0294,12.0514,12.0734,12.0734,12.0734,12.0875,12.0912,12.0912,12.0912,12.0912,12.0912,12.0912,12.0912,12.0912,12.0918,12.0788,12.0984,12.061,12.0103,11.9614,11.9187,11.8832,11.8625,11.8479,11.8427,11.837,11.8468,11.8633,11.8524,11.8434,11.8325,11.8198,11.798,11.7731,11.7598,11.7449,11.7476,11.7546,11.7604,11.7551,11.7572,11.7503,11.7615,11.7758,11.7726,11.7503,11.7365,11.7297,11.7323,11.737,11.7366,11.7361,13.1844,13.1844,13.185,13.1844,13.1844,13.1844,13.1587,13.127,13.1196,13.0896,13.0529,13.0492,13.0749,13.1196,13.16,13.2114,13.2761,13.2982,13.2908,13.2945,13.2872,13.2474,13.182,13.1643,13.127,13.0682,13.0419,13.0045,12.9715,12.9598,12.9562,12.9415,12.9385,12.9525,12.9782,12.9164,12.8877,12.8657,12.837,12.7929,12.7739,12.7892,12.8009,12.7709,12.7996,12.7856,12.7776,12.7489,12.7482,12.7054,12.7054,12.6797,12.6497,12.6314,12.602,12.5219,12.4405,12.3634,12.2863,12.2417,12.2013,12.1793,12.1542,12.1799,12.1689,12.1548,12.1285,12.0912,12.0912,12.0912,12.0912,12.0912,12.0912,12.0912,12.0912,12.0912,12.0912,12.0912,12.0966,12.1285,12.1554,12.1163,12.0745,12.0242,11.9784,11.9346,11.9163,11.901,11.8932,11.8836,11.9039,11.9216,11.9143,11.907,11.8908,11.8739,11.833,11.8081,11.7587,11.763,11.7795,11.7816,11.7869,11.7958,11.8097,11.8182,11.8201,11.7938,11.7641,11.7514,11.7412,11.7546,11.7668,11.7393,11.7381,13.3532,13.3495,13.3085,13.2908,13.2872,13.2695,13.2364,13.2004,13.149,13.1153,13.0823,13.0676,13.1043,13.1857,13.2114,13.2658,13.3562,13.3495,13.3349,13.3275,13.3062,13.2628,13.2004,13.1637,13.127,13.0499,13.0499,13.0199,12.9935,12.9825,12.9935,12.9385,12.9935,13.0088,13.0199,12.9935,12.9605,12.9531,12.914,12.8737,12.851,12.8663,12.8773,12.8804,12.884,12.8804,12.8871,12.8724,12.84,12.8002,12.7935,12.7599,12.7262,12.6895,12.6608,12.5916,12.5249,12.4589,12.3958,12.3481,12.3035,12.282,12.2747,12.2674,12.2135,12.2105,12.1768,12.0985,12.0912,12.0912,12.0912,12.0912,12.0912,12.0912,12.0912,12.0912,12.0985,12.1181,12.1401,12.1725,12.2123,12.2637,12.2115,12.1494,12.0869,12.0181,11.9852,11.9744,11.9687,11.9642,11.979,12.0115,11.9833,11.9823,11.9764,11.9524,11.911,11.867,11.8134,11.7906,11.8129,11.8275,11.8364,11.8474,11.8646,11.8307,11.8077,11.7936,11.7832,11.8044,11.8175,11.8017,11.7927,11.7651,11.7463,13.5221,13.511,13.3562,13.3018,13.2938,13.2114,13.2254,13.2578,13.1336,13.1153,13.138,13.0969,13.141,13.2401,13.2761,13.3532,13.5067,13.5184,13.4633,13.42,13.3913,13.3142,13.2334,13.1747,13.1343,13.0609,13.0499,13.0462,13.0572,13.0866,13.0382,12.9678,13.0566,13.0792,13.0829,13.0639,13.0419,13.0345,13.0088,12.9721,12.9568,12.9611,12.9618,12.892,12.9434,12.9728,12.8406,12.8877,12.9024,12.8443,12.8443,12.8296,12.7996,12.7549,12.7189,12.6748,12.6057,12.5549,12.5213,12.4325,12.3475,12.3292,12.3261,12.3188,12.2649,12.2245,12.1768,12.1322,12.1389,12.1169,12.1059,12.0948,12.1101,12.0912,12.0948,12.1065,12.1254,12.1676,12.189,12.2172,12.268,12.3304,12.3701,12.3107,12.2317,12.1624,12.138,12.1271,12.1013,12.0975,12.1018,12.1066,12.0669,12.0564,12.0631,12.0306,11.9837,11.9439,11.9031,11.8717,11.8566,11.8717,11.8853,11.9035,11.9124,11.8553,11.8258,11.8682,11.8987,11.8987,11.8899,11.8603,11.8578,11.8545,11.8136,13.5411,13.5337,13.467,13.4413,13.4413,13.4089,13.3569,13.2982,13.2768,13.2224,13.168,13.1416,13.1563,13.2181,13.2798,13.3495,13.456,13.5221,13.5037,13.5037,13.4713,13.3906,13.2988,13.2181,13.1807,13.0823,13.0529,13.0499,13.0572,13.149,13.1013,13.0756,13.138,13.1777,13.1777,13.138,13.1196,13.1049,13.0749,13.0272,13.0235,13.0235,13.0199,12.9831,12.9942,13.0235,12.9721,12.9862,12.9795,12.9611,12.9501,12.9244,12.8877,12.843,12.8063,12.7592,12.6865,12.6497,12.6283,12.5396,12.4809,12.4662,12.4368,12.3854,12.3414,12.3487,12.3157,12.271,12.227,12.208,12.1689,12.1658,12.1585,12.1138,12.1059,12.1285,12.1664,12.2159,12.2704,12.309,12.364,12.4234,12.4595,12.4784,12.391,12.312,12.2955,12.2704,12.23,12.2097,12.2125,12.2126,12.1795,12.1694,12.1735,12.1197,12.0538,12.0176,11.9878,11.9763,11.9527,11.9176,11.9333,11.9514,11.9798,11.9655,11.969,11.9996,11.9875,11.9341,11.9094,11.8977,11.9079,11.9397,11.8916,13.5411,13.5411,13.5411,13.5257,13.5044,13.5007,13.4376,13.3459,13.3502,13.3025,13.171,13.1673,13.1857,13.2217,13.2915,13.3752,13.4603,13.5117,13.511,13.5007,13.4677,13.4119,13.3349,13.2761,13.2327,13.1336,13.119,13.1293,13.141,13.2077,13.2151,13.2077,13.2077,13.2584,13.2107,13.2034,13.171,13.149,13.0969,13.0492,13.0492,13.0749,13.0639,13.0566,13.0712,13.0676,13.0455,13.0345,13.0382,13.0352,13.0309,13.0155,12.9782,12.9415,12.9018,12.8437,12.7782,12.7299,12.7011,12.632,12.5739,12.5409,12.5176,12.4772,12.4582,12.4478,12.3885,12.3292,12.3181,12.3071,12.2466,12.2423,12.2386,12.208,12.2007,12.2196,12.2508,12.2967,12.3549,12.4087,12.4601,12.5005,12.5115,12.5292,12.4717,12.4014,12.3775,12.3432,12.2949,12.2881,12.3028,12.3032,12.299,12.2943,12.291,12.247,12.1885,12.0782,12.0619,12.0877,12.0695,12.0393,12.0568,12.1226,12.1358,12.1035,12.0966,12.1068,12.0291,11.9306,11.9437,11.9735,12.0105,12.0374,11.9766,13.5411,13.5411,13.5411,13.4927,13.4273,13.4169,13.4126,13.3869,13.3275,13.2584,13.1894,13.182,13.2181,13.2841,13.3539,13.4236,13.486,13.5221,13.511,13.464,13.4603,13.3796,13.3312,13.2982,13.2908,13.2908,13.2578,13.2394,13.2615,13.3055,13.3429,13.3576,13.3362,13.3215,13.1937,13.179,13.1753,13.16,13.1006,13.0823,13.0792,13.13,13.13,13.119,13.1373,13.141,13.1116,13.0792,13.0792,13.0756,13.0566,13.0419,13.0272,12.9745,12.9415,12.9238,12.851,12.8113,12.7935,12.654,12.5996,12.5739,12.5439,12.5256,12.4735,12.4509,12.4436,12.3958,12.3665,12.3512,12.3328,12.3255,12.3181,12.2961,12.2851,12.3004,12.3316,12.3573,12.4124,12.4681,12.5225,12.5672,12.5629,12.5592,12.5219,12.4821,12.4595,12.4203,12.3744,12.3781,12.402,12.3946,12.3964,12.3684,12.366,12.3747,12.3216,12.1965,12.1493,12.1859,12.2106,12.2022,12.2365,12.2955,12.2619,12.1983,12.1964,12.2074,12.1275,12.0607,12.0582,12.0843,12.1226,12.1156,12.0444,13.5411,13.5411,13.5411,13.4897,13.4236,13.475,13.464,13.4016,13.3275,13.2725,13.2548,13.2511,13.2584,13.3098,13.3722,13.4346,13.4603,13.5301,13.5081,13.5007,13.4897,13.4413,13.3936,13.3642,13.3459,13.3055,13.2908,13.3018,13.2835,13.3495,13.3349,13.3349,13.4016,13.3802,13.3435,13.3252,13.3135,13.2584,13.2181,13.1924,13.1453,13.2034,13.2321,13.2027,13.2327,13.2291,13.1924,13.1526,13.1306,13.1159,13.0896,13.0566,13.0529,13.0045,13.0045,12.9898,12.9311,12.8614,12.8259,12.7415,12.6754,12.621,12.5812,12.5733,12.5329,12.5286,12.5109,12.4925,12.4668,12.4515,12.4258,12.4105,12.3916,12.3328,12.3218,12.3585,12.3867,12.4142,12.4565,12.5103,12.5666,12.5702,12.5709,12.5709,12.5445,12.5366,12.5109,12.5152,12.4834,12.4944,12.5115,12.4943,12.4803,12.446,12.4281,12.432,12.4026,12.2957,12.279,12.3176,12.3386,12.3381,12.3389,12.3512,12.323,12.2912,12.2998,12.2992,12.2538,12.215,12.1715,12.1235,12.1176,12.1148,12.084,13.4964,13.4927,13.4964,13.464,13.4273,13.5044,13.489,13.4126,13.3539,13.3165,13.2975,13.3165,13.3349,13.3569,13.4119,13.453,13.4603,13.5081,13.5411,13.5411,13.5411,13.5007,13.467,13.4493,13.434,13.3826,13.3752,13.3826,13.3936,13.3819,13.3936,13.4119,13.4266,13.453,13.442,13.4163,13.3796,13.3245,13.2945,13.2541,13.2438,13.2731,13.3135,13.2982,13.3055,13.3165,13.2835,13.2438,13.2004,13.1673,13.127,13.0786,13.0639,13.0529,13.0492,13.0309,13.0045,12.9311,12.8767,12.8547,12.7813,12.6871,12.654,12.6394,12.621,12.613,12.588,12.5739,12.5812,12.5482,12.5109,12.4956,12.4766,12.4179,12.4215,12.4582,12.4668,12.4944,12.4993,12.5531,12.5702,12.5702,12.5709,12.5709,12.5629,12.5666,12.5666,12.5709,12.5709,12.5709,12.5709,12.5537,12.5341,12.4938,12.4748,12.4766,12.4396,12.3848,12.4007,12.4296,12.4256,12.4203,12.4161,12.4161,12.4203,12.4215,12.4105,12.3885,12.3352,12.2703,12.2036,12.1612,12.1243,12.1091,12.1024,13.4126,13.4089,13.4133,13.4163,13.4236,13.5037,13.4897,13.4126,13.4053,13.3649,13.3018,13.3752,13.4053,13.4273,13.5,13.5257,13.5257,13.5367,13.5411,13.5411,13.5411,13.5294,13.5301,13.5227,13.5037,13.5227,13.5154,13.486,13.5294,13.5,13.5037,13.5184,13.5117,13.5191,13.497,13.4677,13.42,13.3796,13.3679,13.3275,13.3208,13.3679,13.3789,13.3752,13.3826,13.3789,13.3495,13.3055,13.2584,13.2181,13.1783,13.1306,13.0896,13.0596,13.0566,13.0529,13.0566,12.9935,12.9531,12.9348,12.9054,12.8296,12.8186,12.7746,12.7195,12.6938,12.6724,12.643,12.629,12.6106,12.5886,12.5916,12.591,12.569,12.5623,12.5696,12.5659,12.5672,12.5605,12.5702,12.5702,12.5709,12.5709,12.5709,12.5709,12.5709,12.5709,12.5709,12.5709,12.5709,12.5709,12.5702,12.5506,12.5286,12.5183,12.5153,12.4987,12.4484,12.4895,12.5159,12.5091,12.4975,12.4962,12.506,12.5458,12.5445,12.4999,12.4515,12.4007,12.3316,12.2416,12.1711,12.1256,12.125,12.1191,13.467,13.4169,13.4743,13.4677,13.4273,13.5037,13.489,13.4169,13.4089,13.3943,13.3752,13.3979,13.4456,13.5044,13.5294,13.5374,13.5411,13.5411,13.5411,13.5411,13.5411,13.5411,13.5448,13.5478,13.5448,13.5478,13.5514,13.5631,13.5484,13.5484,13.5521,13.5374,13.5558,13.5521,13.5374,13.5154,13.4677,13.4383,13.4376,13.4156,13.4083,13.4523,13.456,13.467,13.4713,13.4633,13.4487,13.3979,13.3576,13.3355,13.2805,13.2358,13.2284,13.2174,13.2101,13.1343,13.0896,13.0345,13.0199,13.0155,12.9935,12.9685,12.9654,12.8957,12.8259,12.7746,12.7635,12.7238,12.7054,12.6981,12.6944,12.6981,12.6975,12.6901,12.6754,12.6497,12.6387,12.6063,12.5953,12.5709,12.5709,12.5709,12.5709,12.5709,12.5709,12.5709,12.5709,12.5709,12.5709,12.5709,12.5709,12.5709,12.5666,12.5476,12.5519,12.5507,12.5403,12.5274,12.5549,12.5666,12.5494,12.5427,12.5635,12.5709,12.5709,12.5709,12.5592,12.5072,12.4509,12.3518,12.2625,12.1926,12.1385,12.1333,12.1232,13.4567,13.4206,13.464,13.4743,13.475,13.5147,13.5074,13.4633,13.4603,13.4493,13.4163,13.4493,13.4897,13.5301,13.5374,13.5411,13.5411,13.5411,13.5411,13.5411,13.5448,13.5668,13.5734,13.5888,13.6182,13.6182,13.6329,13.6556,13.6299,13.6329,13.6402,13.6409,13.6115,13.5888,13.5815,13.5521,13.511,13.4964,13.4964,13.5007,13.5037,13.511,13.5301,13.5411,13.5411,13.5411,13.5374,13.475,13.4493,13.4163,13.3495,13.2988,13.2584,13.2107,13.2107,13.1343,13.0933,13.0823,13.0823,13.0609,13.0535,13.0499,13.0499,12.9985,12.9397,12.884,12.84,12.8002,12.8002,12.8002,12.8039,12.8076,12.8039,12.8002,12.7629,12.7262,12.6858,12.6461,12.6137,12.5812,12.5709,12.5709,12.5709,12.5709,12.5709,12.5709,12.5709,12.5709,12.5709,12.5709,12.5709,12.5709,12.5709,12.5666,12.5709,12.5709,12.5592,12.5513,12.5592,12.5702,12.5709,12.5709,12.5709,12.5709,12.5709,12.5709,12.5702,12.5402,12.4846,12.3891,12.323,12.2869,12.2122,12.1369,12.1234,13.4163,13.4089,13.4089,13.4603,13.5337,13.5411,13.5367,13.5411,13.5337,13.497,13.4493,13.5037,13.5331,13.5411,13.5411,13.5411,13.5411,13.5411,13.5411,13.5448,13.5668,13.5888,13.6145,13.6629,13.6776,13.7407,13.7627,13.7297,13.7627,13.748,13.7333,13.7664,13.6886,13.6365,13.6035,13.5668,13.5294,13.5257,13.5264,13.5301,13.5337,13.5374,13.5411,13.5411,13.5411,13.5411,13.5411,13.5221,13.5,13.442,13.3876,13.3252,13.2297,13.138,13.138,13.1196,13.0896,13.0859,13.0933,13.0749,13.0572,13.0499,13.0499,13.0389,12.9942,12.9648,12.9207,12.895,12.895,12.892,12.8957,12.8957,12.8957,12.8663,12.8259,12.7813,12.7335,12.6828,12.6204,12.5916,12.5812,12.5776,12.5709,12.5709,12.5709,12.5709,12.5709,12.5709,12.5709,12.5709,12.5709,12.5709,12.5709,12.5709,12.5709,12.5709,12.5709,12.5702,12.5709,12.5709,12.5709,12.5709,12.5709,12.5709,12.5709,12.5709,12.5666,12.5292,12.4962,12.4478,12.3965,12.3854,12.3114,12.2086,12.1805,13.4713,13.4089,13.4089,13.4597,13.5367,13.5411,13.5411,13.5411,13.5411,13.5294,13.5154,13.5301,13.5411,13.5411,13.5411,13.5411,13.5411,13.5411,13.5411,13.5668,13.5925,13.5998,13.6108,13.6886,13.7186,13.715,13.737,13.7921,13.8031,13.7927,13.7517,13.7076,13.6702,13.6549,13.6072,13.5624,13.5411,13.5411,13.5411,13.5448,13.5521,13.5448,13.5411,13.5411,13.5411,13.5411,13.5411,13.5374,13.486,13.4273,13.4126,13.3539,13.2688,13.1857,13.157,13.1533,13.1013,13.0829,13.0823,13.0749,13.0529,13.0499,13.0499,13.0499,13.0382,13.0272,13.0125,12.9905,12.9831,12.9795,12.9795,12.9795,12.9721,12.9324,12.892,12.8406,12.7856,12.7158,12.6418,12.6204,12.6026,12.588,12.5812,12.5702,12.5709,12.5709,12.5709,12.5709,12.5709,12.5709,12.5709,12.5709,12.5709,12.5709,12.5709,12.5709,12.5709,12.5709,12.5709,12.5709,12.5709,12.5709,12.5709,12.5709,12.5709,12.5709,12.5519,12.5072,12.4742,12.4631,12.4442,12.4258,12.3958,12.3114,12.2918,13.511,13.4677,13.4677,13.4934,13.5374,13.5411,13.5588,13.5815,13.5558,13.5808,13.6218,13.5778,13.5411,13.5411,13.5411,13.5411,13.5411,13.5411,13.5705,13.6035,13.6035,13.6335,13.6666,13.7069,13.7216,13.7253,13.795,13.8471,13.8655,13.8875,13.8655,13.7994,13.762,13.6886,13.6335,13.5925,13.5484,13.5411,13.5484,13.5631,13.5771,13.5668,13.5448,13.5411,13.5448,13.5448,13.5411,13.5411,13.5154,13.4603,13.4383,13.4016,13.3208,13.2297,13.201,13.1783,13.1373,13.0639,13.0823,13.0712,13.0529,13.0566,13.0529,13.0529,13.0499,13.0382,13.0382,13.0199,13.0199,13.0205,13.0199,13.0199,13.0199,12.9948,12.9728,12.9354,12.8657,12.7923,12.7452,12.7268,12.6938,12.6461,12.624,12.5812,12.5812,12.5709,12.5709,12.5709,12.5709,12.5709,12.5709,12.5709,12.5709,12.5709,12.5709,12.5709,12.5709,12.5709,12.5709,12.5709,12.5709,12.5709,12.5709,12.5709,12.5709,12.5709,12.5445,12.5109,12.5145,12.5219,12.4925,12.4589,12.4325,12.4179,12.4167,13.5411,13.5411,13.5411,13.5411,13.5411,13.5411,13.5771,13.6225,13.5734,13.6108,13.6959,13.5888,13.5514,13.5558,13.5558,13.5478,13.5441,13.5411,13.5851,13.5998,13.5851,13.6335,13.6849,13.729,13.773,13.8244,13.8868,13.9419,13.9866,13.9859,13.9749,13.9756,13.8948,13.7884,13.7407,13.6666,13.5918,13.6035,13.6152,13.6255,13.6145,13.5991,13.5851,13.5741,13.5705,13.5661,13.5631,13.5558,13.5558,13.4817,13.4266,13.3869,13.3465,13.2621,13.2541,13.2284,13.1557,13.127,13.1306,13.0902,13.0749,13.0633,13.0602,13.0676,13.0676,13.0712,13.0719,13.0676,13.0676,13.0529,13.0529,13.0499,13.0499,13.0419,13.0235,13.0052,12.9281,12.8547,12.8333,12.8149,12.7739,12.7189,12.6638,12.6173,12.5959,12.5849,12.5739,12.5709,12.5709,12.5709,12.5709,12.5709,12.5709,12.5709,12.5702,12.5776,12.5776,12.5709,12.5709,12.5709,12.5709,12.5709,12.5709,12.5709,12.5709,12.5709,12.5709,12.5519,12.5592,12.5592,12.5366,12.5072,12.5145,12.5072,12.5335,13.5411,13.5411,13.5411,13.5411,13.5411,13.5411,13.5478,13.5588,13.5558,13.5624,13.6035,13.5851,13.5698,13.6365,13.6372,13.6115,13.5411,13.5411,13.5411,13.5521,13.5925,13.6445,13.7033,13.773,13.8905,13.9345,13.9602,13.9969,14.0197,14.0153,13.9852,13.9338,13.9192,13.8428,13.7817,13.7216,13.7069,13.704,13.7076,13.726,13.718,13.7069,13.6923,13.7033,13.737,13.6923,13.6592,13.6402,13.5558,13.4567,13.3863,13.3612,13.3319,13.3098,13.2952,13.2761,13.1997,13.174,13.16,13.1226,13.1116,13.1447,13.1453,13.1453,13.149,13.149,13.1453,13.138,13.1226,13.0786,13.0676,13.0529,13.0492,13.0309,13.0125,12.9862,12.9348,12.8914,12.859,12.8553,12.8437,12.7813,12.7152,12.6754,12.6467,12.632,12.6069,12.6039,12.6156,12.5954,12.5825,12.5935,12.5978,12.5702,12.5696,12.588,12.5916,12.5812,12.5776,12.5923,12.5923,12.5702,12.5709,12.5709,12.5709,12.5709,12.5709,12.5709,12.5702,12.5666,12.5666,12.5592,12.5709,12.5709,12.5709]},{"header":{"parameterUnit":"m.s-1","parameterCategory":1,"la1":31.0,"la2":29.5877,"lo1":-88.7671,"lo2":-86.6584,"dy":0.0162,"dx":0.0185,"nx":115,"ny":88,"refTime":"2023-03-16T06:00:00:Z","depth":0,"parameterNumber":3,"parameterNumberName":"V-component_of_WINDS"},"data":[0.0,0.0,0.0,0.0,0.0,0.0,0.0,0.0,0.0,0.0,0.0,0.0,0.0,0.0,0.0,0.0,0.0,0.0,0.0,0.0,0.0,0.0,0.0,0.0,0.0,0.0,0.0,0.0,0.0,0.0,0.0,0.0,0.0,0.0,0.0,0.0,0.0,0.0,0.0,0.0,0.0,0.0,0.0,0.0,0.0,0.0,0.0,0.0,0.0,0.0,0.0,0.0,0.0,0.0,0.0,0.0,0.0,0.0,0.0,0.0,0.0,0.0,0.0,0.0,0.0,0.0,0.0,0.0,0.0,0.0,0.0,0.0,0.0,0.0,0.0,0.0,0.0,0.0,0.0,0.0,0.0,0.0,0.0,0.0,0.0,0.0,0.0,0.0,0.0,0.0,0.0,0.0,0.0,0.0,0.0,0.0,0.0,0.0,0.0,0.0,0.0,0.0,0.0,0.0,0.0,0.0,0.0,0.0,0.0,0.0,0.0,0.0,0.0,0.0,0.0,0.0,0.0,0.0,0.0,0.0,0.0,0.0,0.0,0.0,0.0,0.0,0.0,0.0,0.0,0.0,0.0,0.0,0.0,0.0,0.0,0.0,0.0,0.0,0.0,0.0,0.0,0.0,0.0,0.0,0.0,0.0,0.0,0.0,0.0,0.0,0.0,0.0,0.0,0.0,0.0,0.0,0.0,0.0,0.0,0.0,0.0,0.0,0.0,0.0,0.0,0.0,0.0,0.0,0.0,0.0,0.0,0.0,0.0,0.0,0.0,0.0,0.0,0.0,0.0,0.0,0.0,0.0,0.0,0.0,0.0,0.0,0.0,0.0,0.0,0.0,0.0,0.0,0.0,0.0,0.0,0.0,0.0,0.0,0.0,0.0,0.0,0.0,0.0,0.0,0.0,0.0,0.0,0.0,0.0,0.0,0.0,0.0,0.0,0.0,0.0,0.0,0.0,0.0,0.0,0.0,0.0,0.0,0.0,0.0,0.0,0.0,0.0,0.0,0.0,0.0,0.0,0.0,0.0,0.0,0.0,0.0,0.0,0.0,0.0,0.0,0.0,0.0,0.0,0.0,0.0,0.0,0.0,0.0,0.0,0.0,0.0,0.0,0.0,0.0,0.0,0.0,0.0,0.0,0.0,0.0,0.0,0.0,0.0,0.0,0.0,0.0,0.0,0.0,0.0,0.0,0.0,0.0,0.0,0.0,0.0,0.0,0.0,0.0,0.0,0.0,0.0,0.0,0.0,0.0,0.0,0.0,0.0,0.0,0.0,0.0,0.0,0.0,0.0,0.0,0.0,0.0,0.0,0.0,0.0,0.0,0.0,0.0,0.0,0.0,0.0,0.0,0.0,0.0,0.0,0.0,0.0,0.0,0.0,0.0,0.0,0.0,0.0,0.0,0.0,0.0,0.0,0.0,0.0,0.0,0.0,0.0,0.0,0.0,0.0,0.0,0.0,0.0,0.0,0.0,0.0,0.0,0.0,0.0,0.0,0.0,0.0,0.0,0.0,0.0,0.0,0.0,0.0,0.0,0.0,0.0,0.0,0.0,0.0,0.0,0.0,0.0,0.0,0.0,0.0,0.0,0.0,0.0,0.0,0.0,0.0,0.0,0.0,0.0,0.0,0.0,0.0,0.0,0.0,0.0,0.0,0.0,0.0,0.0,0.0,0.0,0.0,0.0,0.0,0.0,0.0,0.0,0.0,0.0,0.0,0.0,0.0,0.0,0.0,0.0,0.0,0.0,0.0,0.0,0.0,0.0,0.0,0.0,0.0,0.0,0.0,0.0,0.0,0.0,0.0,0.0,0.0,0.0,0.0,0.0,0.0,0.0,0.0,0.0,0.0,0.0,0.0,0.0,0.0,0.0,0.0,0.0,0.0,0.0,0.0,0.0,0.0,0.0,0.0,0.0,0.0,0.0,0.0,0.0,0.0,0.0,0.0,0.0,0.0,0.0,0.0,0.0,0.0,0.0,0.0,0.0,0.0,0.0,0.0,0.0,0.0,0.0,0.0,0.0,0.0,0.0,0.0,0.0,0.0,0.0,0.0,0.0,0.0,0.0,0.0,0.0,0.0,0.0,0.0,0.0,0.0,0.0,0.0,0.0,0.0,0.0,0.0,0.0,0.0,0.0,0.0,0.0,0.0,0.0,0.0,0.0,0.0,0.0,0.0,0.0,0.0,0.0,0.0,0.0,0.0,0.0,0.0,0.0,0.0,0.0,0.0,0.0,0.0,0.0,0.0,0.0,0.0,0.0,0.0,0.0,0.0,0.0,0.0,0.0,0.0,0.0,0.0,0.0,0.0,0.0,0.0,0.0,0.0,0.0,0.0,0.0,0.0,0.0,0.0,0.0,0.0,0.0,0.0,0.0,0.0,0.0,0.0,0.0,0.0,0.0,0.0,0.0,0.0,0.0,0.0,0.0,0.0,0.0,0.0,0.0,0.0,0.0,0.0,0.0,0.0,0.0,0.0,0.0,0.0,0.0,0.0,0.0,0.0,0.0,0.0,0.0,0.0,0.0,0.0,0.0,0.0,0.0,0.0,0.0,0.0,0.0,0.0,0.0,0.0,0.0,0.0,0.0,0.0,0.0,0.0,0.0,0.0,0.0,0.0,0.0,0.0,0.0,0.0,0.0,0.0,0.0,0.0,0.0,0.0,0.0,0.0,0.0,0.0,0.0,0.0,0.0,0.0,0.0,0.0,0.0,0.0,0.0,0.0,0.0,0.0,0.0,0.0,0.0,0.0,0.0,0.0,0.0,0.0,0.0,0.0,0.0,0.0,0.0,0.0,0.0,0.0,0.0,0.0,0.0,0.0,0.0,0.0,0.0,0.0,0.0,0.0,0.0,0.0,0.0,0.0,0.0,0.0,0.0,0.0,0.0,0.0,0.0,0.0,0.0,0.0,0.0,0.0,0.0,0.0,0.0,0.0,0.0,0.0,0.0,0.0,0.0,0.0,0.0,0.0,0.0,0.0,0.0,0.0,0.0,0.0,0.0,0.0,0.0,0.0,0.0,0.0,0.0,0.0,0.0,0.0,0.0,0.0,0.0,0.0,0.0,0.0,0.0,0.0,0.0,0.0,0.0,0.0,0.0,0.0,0.0,0.0,0.0,0.0,0.0,0.0,0.0,0.0,0.0,0.0,0.0,0.0,0.0,0.0,0.0,0.0,0.0,0.0,0.0,0.0,0.0,0.0,0.0,0.0,0.0,0.0,0.0,0.0,0.0,0.0,0.0,0.0,0.0,0.0,0.0,0.0,0.0,0.0,0.0,0.0,0.0,0.0,0.0,0.0,0.0,0.0,0.0,0.0,0.0,0.0,0.0,0.0,0.0,0.0,0.0,0.0,0.0,0.0,0.0,0.0,0.0,0.0,0.0,0.0,0.0,0.0,0.0,0.0,0.0,0.0,0.0,0.0,0.0,0.0,0.0,0.0,0.0,0.0,0.0,0.0,0.0,0.0,0.0,0.0,0.0,0.0,0.0,0.0,0.0,0.0,0.0,0.0,0.0,0.0,0.0,0.0,0.0,0.0,0.0,0.0,0.0,0.0,0.0,0.0,0.0,0.0,0.0,0.0,0.0,0.0,0.0,0.0,0.0,0.0,0.0,0.0,0.0,0.0,0.0,0.0,0.0,0.0,0.0,0.0,0.0,0.0,0.0,0.0,0.0,0.0,0.0,0.0,0.0,0.0,0.0,0.0,0.0,0.0,0.0,0.0,0.0,0.0,0.0,0.0,0.0,0.0,0.0,0.0,0.0,0.0,0.0,0.0,0.0,0.0,0.0,0.0,0.0,0.0,0.0,0.0,0.0,0.0,0.0,0.0,0.0,0.0,0.0,0.0,0.0,0.0,0.0,0.0,0.0,0.0,0.0,0.0,0.0,0.0,0.0,0.0,0.0,0.0,0.0,0.0,0.0,0.0,0.0,0.0,0.0,0.0,0.0,0.0,0.0,0.0,0.0,0.0,0.0,0.0,0.0,0.0,0.0,0.0,0.0,0.0,0.0,0.0,0.0,0.0,0.0,0.0,0.0,0.0,0.0,0.0,0.0,0.0,0.0,0.0,0.0,0.0,0.0,0.0,0.0,0.0,0.0,0.0,0.0,0.0,0.0,0.0,0.0,0.0,0.0,0.0,0.0,0.0,0.0,0.0,0.0,0.0,0.0,0.0,0.0,0.0,0.0,0.0,0.0,0.0,0.0,0.0,0.0,0.0,0.0,0.0,0.0,0.0,0.0,0.0,0.0,0.0,0.0,0.0,0.0,0.2991,0.0,0.0,0.0,0.0,0.0,0.0,0.0,0.0,0.0,0.0,0.0,0.0,0.0,0.0,0.0,0.0,0.0,0.0,0.0,0.0,0.0,0.0,0.0,0.0,0.0,0.0,0.0,0.0,0.0,0.0,0.0,0.0,0.0,0.0,0.0,0.0,0.0,0.0,0.0,0.0,0.0,0.0,0.0,0.0,0.0,0.0,0.0,0.0,0.0,0.0,0.0,0.0,0.0,0.0,0.0,0.0,0.0,0.0,0.0,0.0,0.0,0.0,0.0,0.0,0.0,0.0,0.0,0.0,0.0,0.0,0.0,0.0,0.0,0.0,0.0,0.0,0.0,0.0,0.0,0.0,0.0,0.0,0.0,0.0,0.0,0.0,0.0,0.0,0.0,0.0,0.0,0.0,0.0,0.0,0.0,0.0,0.0,0.0,0.0,0.0,0.0,0.0,0.0,0.0,0.0,0.0,0.0,0.0,0.0,0.0,0.2713,0.3024,0.3179,0.3336,0.3471,0.0,0.0,0.0,0.0,0.0,0.0,0.0,0.0,0.0,0.0,0.0,0.0,0.0,0.0,0.0,0.0,0.0,0.0,0.0,0.0,0.0,0.0,0.0,0.0,0.0,0.0,0.0,0.0,0.0,0.0,0.0,0.0,0.0,0.0,0.0,0.0,0.0,0.0,0.0,0.0,0.0,0.0,0.0,0.0,0.0,0.0,0.0,0.0,0.0,0.0,0.0,0.0,0.0,0.0,0.0,0.0,0.0,0.0,0.0,0.0,0.0,0.0,0.0,0.0,0.0,0.0,0.0,0.0,0.0,0.0,0.0,0.0,0.0,0.0,0.0,0.0,0.0,0.0,0.0,0.0,0.0,0.0,0.0,0.0,0.0,0.0,0.0,0.0,0.0,0.0,0.0,0.0,0.0,0.0,0.0,0.0,0.0,0.0,0.0,0.0,0.0,0.0,0.0,0.0,0.0,0.0,0.0,0.0,0.0,0.0,0.0,0.0,0.3567,0.3698,0.3892,0.0,0.0,0.0,0.0,0.0,0.0,0.0,0.0,0.0,0.0,0.0,0.0,0.0,0.0,0.0,0.0,0.0,0.0,0.0,0.0,0.0,0.0,0.0,0.0,0.0,0.0,0.0,0.0,0.0,0.0,0.0,0.0,0.0,0.0,0.0,0.0,0.0,0.0,0.0,0.0,0.0,0.0,0.0,0.0,0.0,0.0,0.0,0.0,0.0,0.0,0.0,0.0,0.0,0.0,0.0,0.0,0.0,0.0,0.0,0.0,0.0,0.0,0.0,0.0,0.0,0.0,0.0,0.0,0.0,0.0,0.0,0.0,0.0,0.0,0.0,0.0,0.0,0.0,0.0,0.0,0.0,0.0,0.0,0.0,0.0,0.0,0.0,0.0,0.0,0.0,0.0,0.0,0.0,0.0,0.0,0.0,0.0,0.0,0.0,0.0,0.0,0.0,0.0,0.0,0.0,0.0,0.0,0.0,0.0,0.0,0.3445,0.3506,0.3805,0.0,0.391,0.0,0.0,0.0,0.0,0.0,0.0,0.0,0.0,0.0,0.0,0.0,0.0,0.0,0.0,0.0,0.0,0.0,0.0,0.0,0.0,0.0,0.0,0.0,0.0,0.0,0.0,0.0,0.0,0.0,0.0,0.0,0.0,0.0,0.0,0.0,0.0,0.0,0.0,0.0,0.0,0.0,0.0,0.0,0.0,0.0,0.0,0.0,0.0,0.0,0.0,0.0,0.0,0.0,0.0,0.0,0.0,0.0,0.0,0.0,0.0,0.0,0.0,0.0,0.0,0.0,0.0,0.0,0.0,0.0,0.0,0.0,0.0,0.0,0.0,0.0,0.0,0.0,0.0,0.0,0.0,0.0,0.0,0.0,0.0,0.0,0.0,0.0,0.0,0.0,0.0,0.0,0.0,0.0,0.0,0.0,0.0,0.0,0.0,0.0,0.0,0.0,0.0,0.0,0.0,0.0,0.0,0.0,0.0,0.0,0.0,0.4316,0.4505,0.4645,0.4669,0.0,0.0,0.0,0.0,0.0,0.0,0.0,0.0,0.0,0.0,0.0,0.0,0.0,0.0,0.0,0.0,0.0,0.0,0.0,0.0,0.0,0.0,0.0,0.0,0.0,0.0,0.0,0.0,0.0,0.0,0.0,0.0,0.0,0.0,0.0,0.0,0.0,0.0,0.0,0.0,0.0,0.0,0.0,0.0,0.0,0.0,0.0,0.0,0.0,0.0,0.0,0.0,0.0,0.0,0.0,0.0,0.0,0.0,0.0,0.0,0.0,0.0,0.0,0.0,0.0,0.0,0.0,0.0,0.0,0.0,0.0,0.0,0.0,0.0,0.0,0.0,0.0,0.0,0.0,0.0,0.0,0.0,0.0,0.0,0.0,0.0,0.0,0.0,0.0,0.0,0.0,0.0,0.0,0.0,0.0,0.0,0.0,0.0,0.0,0.0,0.0,0.0,0.0,0.0,0.0,0.0,0.0,0.0,0.0,0.0,0.5077,0.5253,0.5505,0.5487,0.5436,0.5388,0.0,0.0,0.0,0.0,0.0,0.0,0.0,0.0,0.0,0.0,0.0,0.0,0.0,0.0,0.0,0.0,0.0,0.0,0.0,0.0,0.0,0.0,0.0,0.0,0.0,0.0,0.0,0.0,0.0,0.0,0.0,0.0,0.0,0.0,0.0,0.0,0.0,0.0,0.0,0.0,0.0,0.0,0.0,0.0,0.0,0.0,0.0,0.0,0.0,0.0,0.0,0.0,0.0,0.0,0.0,0.0,0.0,0.0,0.0,0.0,0.0,0.0,0.0,0.0,0.0,0.0,0.0,0.0,0.0,0.0,0.0,0.0,0.0,0.0,0.0,0.0,0.0,0.0,0.0,0.0,0.0,0.0,0.0,0.0,0.0,0.0,0.0,0.0,0.0,0.0,0.0,0.0,0.0,0.0,0.0,0.0,0.0,0.0,0.0,0.0,0.0,0.0,0.0,0.0,0.0,0.0,0.0,0.0,0.6027,0.6105,0.6215,0.6345,0.6235,0.6121,0.0,0.0,0.0,0.0,0.0,0.0,0.0,0.0,0.0,0.0,0.0,0.0,0.0,0.0,0.0,0.0,0.0,0.0,0.0,0.0,0.0,0.0,0.0,0.0,0.0,0.0,0.0,0.0,0.0,0.0,0.0,0.0,0.0,0.0,0.0,0.0,0.0,0.0,0.0,0.0,0.0,0.0,0.0,0.0,0.0,0.0,0.0,0.0,0.0,0.0,0.0,0.0,0.0,0.0,0.0,0.0,0.0,0.0,0.0,0.0,0.0,0.0,0.0,0.0,0.0,0.0,0.0,0.0,0.0,0.0,0.0,0.0,0.0,0.0,0.0,0.0,0.0,0.0,0.0,0.0,0.0,0.0,0.0,0.0,0.0,0.0,0.0,0.0,0.0,0.0,0.0,0.0,0.0,0.0,0.0,0.0,0.0,0.0,0.0,0.0,0.0,0.0,0.0,0.0,0.0,0.0,0.0,0.0,0.0,0.6801,0.6972,0.7028,0.6972,0.6928,0.6841,0.0,0.0,0.0,0.0,0.0,0.0,0.0,0.0,0.0,0.0,0.0,0.0,0.0,0.0,0.0,0.0,0.0,0.0,0.0,0.0,0.0,0.0,0.0,0.0,0.0,0.0,0.0,0.0,0.0,0.0,0.0,0.0,0.0,0.0,0.0,0.0,0.0,0.0,0.0,0.0,0.0,0.0,0.0,0.0,0.0,0.0,0.0,0.0,0.0,0.0,0.0,0.0,0.0,0.0,0.0,0.0,0.0,0.0,0.0,0.0,0.0,0.0,0.0,0.0,0.0,0.0,0.0,0.0,0.0,0.0,0.0,0.0,0.0,0.0,0.0,0.0,0.0,0.0,0.0,0.0,0.0,0.0,0.0,0.0,0.0,0.0,0.0,0.0,0.0,0.0,0.0,0.0,0.0,0.0,0.0,0.0,0.0,0.0,0.0,0.0,0.0,0.0,0.0,0.0,0.0,0.0,0.0,0.0,0.0,0.759,0.0,0.7861,0.7726,0.7738,0.7626,0.0,0.0,0.0,0.0,0.0,0.0,0.0,0.0,0.0,0.0,0.0,0.0,0.0,0.0,0.0,0.0,0.0,0.0,0.0,0.0,0.0,0.0,0.0,0.0,0.0,0.0,0.0,0.0,0.0,0.0,0.0,0.0,0.0,0.0,0.0,0.0,0.0,0.0,0.0,0.0,0.0,0.0,0.0,0.0,0.0,0.0,0.0,0.0,0.0,0.0,0.0,0.0,0.0,0.0,0.0,0.0,0.0,0.0,0.0,0.0,0.0,0.0,0.0,0.0,0.0,0.0,0.0,0.0,0.0,0.0,0.0,0.0,0.0,0.0,0.0,0.0,0.0,0.0,0.0,0.0,0.0,0.0,0.0,0.0,0.0,0.0,0.0,0.0,0.0,0.0,0.0,0.0,0.0,0.0,0.0,0.0,0.0,0.0,0.0,0.0,0.0,0.0,0.0,0.0,0.0,0.0,0.0,0.0,0.8206,0.8397,0.8672,0.8768,0.8603,0.859,0.8475,0.0,0.0,0.0,0.0,0.0,0.0,0.0,0.0,0.0,0.0,0.0,0.0,0.0,0.0,0.0,0.0,0.0,0.0,0.0,0.0,0.0,0.0,0.0,0.0,0.0,0.0,0.0,0.0,0.0,0.0,0.0,0.0,0.0,0.0,0.0,0.0,0.0,0.0,0.0,0.0,0.0,0.0,0.0,0.0,0.0,0.0,0.0,0.0,0.0,0.0,0.0,0.0,0.0,0.0,0.0,0.0,0.0,0.0,0.0,0.0,0.0,0.0,0.0,0.0,0.0,0.0,0.0,0.0,0.0,0.0,0.0,0.0,0.0,0.0,0.0,0.0,0.0,0.0,0.0,0.0,0.0,0.0,0.0,0.0,0.0,0.0,0.0,0.0,0.0,0.0,0.0,0.0,0.0,0.0,0.0,0.0,0.0,0.0,0.0,0.0,0.0,0.0,0.0,0.0,0.0,0.0,0.0,0.0,0.0,0.9105,0.9584,0.9784,0.9637,0.9321,0.8986,0.0,0.0,0.0,0.0,0.0,0.0,0.0,0.0,0.0,0.0,0.0,0.0,0.0,0.0,0.0,0.0,0.0,0.0,0.0,0.0,0.0,0.0,0.0,0.0,0.0,0.0,0.0,0.0,0.0,0.0,0.0,0.0,0.0,0.0,0.0,0.0,0.0,0.0,0.0,0.0,0.0,0.0,0.0,0.0,0.0,0.0,0.0,0.0,0.0,0.0,0.0,0.0,0.0,0.0,0.0,0.0,0.0,0.0,0.0,0.0,0.0,0.0,0.0,0.0,0.0,0.0,0.0,0.0,0.0,0.0,0.0,0.0,0.0,0.0,0.0,0.0,0.0,0.0,0.0,0.0,0.0,0.0,0.0,0.0,0.0,0.0,0.0,0.0,0.0,0.0,0.0,0.0,0.0,0.0,0.0,0.0,0.0,0.0,0.0,0.0,0.0,0.0,0.0,0.0,0.0,0.0,0.0,0.0,0.0,1.0446,1.0568,1.058,1.0435,1.0154,0.9739,0.9226,0.0,0.0,0.0,0.0,0.0,0.0,0.0,0.0,0.0,0.0,0.0,0.0,0.0,0.0,0.0,0.0,0.0,0.0,0.0,0.0,0.0,0.0,0.0,0.0,0.0,0.0,0.0,0.0,0.0,0.0,0.0,0.0,0.0,0.0,0.0,0.0,0.0,0.0,0.0,0.0,0.0,0.0,0.0,0.0,0.0,0.0,0.0,0.0,0.0,0.0,0.0,0.0,0.0,0.0,0.0,0.0,0.0,0.0,0.0,0.0,0.0,0.0,0.0,0.0,0.0,0.0,0.0,0.0,0.0,0.0,0.0,0.0,0.0,0.0,0.0,0.0,0.0,0.0,0.0,0.0,0.0,0.0,0.0,0.0,0.0,0.0,0.0,0.0,0.0,0.0,0.0,0.0,0.0,0.0,0.0,0.0,0.0,0.0,0.0,0.0,0.0,0.0,0.0,0.0,0.0,0.0,0.0,0.0,1.2269,1.1691,1.1313,1.1161,1.1102,1.0717,0.0,0.0,0.0,0.0,0.0,0.0,0.0,0.0,0.0,0.0,0.0,0.0,0.0,0.0,0.0,0.0,0.0,0.0,0.0,0.0,0.0,0.0,0.0,0.0,0.0,0.0,0.0,0.0,0.0,0.0,0.0,0.0,0.0,0.0,0.0,0.0,0.0,0.0,0.0,0.0,0.0,0.0,0.0,0.0,0.0,0.0,0.0,0.0,0.0,0.0,0.0,0.0,0.0,0.0,0.0,0.0,0.0,0.0,0.0,0.0,0.0,0.0,0.0,0.0,0.0,0.0,0.0,0.0,0.0,0.0,0.0,0.0,0.0,0.0,0.0,0.0,0.0,0.0,0.0,0.0,0.0,0.0,0.0,0.0,0.0,0.0,0.0,0.0,0.0,0.0,0.0,0.0,0.0,0.0,0.0,0.0,0.0,0.0,0.0,0.0,0.0,0.0,0.0,0.0,0.0,0.0,0.0,0.0,0.0,1.3194,1.3498,1.3363,1.2778,1.221,1.1584,0.0,0.0,0.0,0.0,0.0,0.0,0.0,0.0,0.0,0.0,0.0,0.0,0.0,0.0,0.0,0.0,0.0,0.0,0.0,0.0,0.0,0.0,0.0,0.0,0.0,0.0,0.0,0.0,0.0,0.0,0.0,0.0,0.0,0.0,0.0,0.0,0.0,0.0,0.0,0.0,0.0,0.0,0.0,0.0,0.0,0.0,0.0,0.0,0.0,0.0,0.0,0.0,0.0,0.0,0.0,0.0,0.0,0.0,0.0,0.0,0.0,0.0,0.0,0.0,0.0,0.0,0.0,0.0,0.0,0.0,0.0,0.0,0.0,0.0,0.0,0.0,0.0,0.0,0.0,0.0,0.0,0.0,0.0,0.0,0.0,0.0,0.0,0.0,0.0,0.0,0.0,0.0,0.0,0.0,0.0,0.0,0.0,0.0,0.0,0.0,0.0,0.0,0.0,0.0,0.0,0.0,0.0,0.0,1.3288,1.38,1.4511,1.4624,1.4075,1.3279,1.2536,0.0,0.0,0.0,0.0,0.0,0.0,0.0,0.0,0.0,0.0,0.0,0.0,0.0,0.0,0.0,0.0,0.0,0.0,0.0,0.0,0.0,0.0,0.0,0.0,0.0,0.0,0.0,0.0,0.0,0.0,0.0,0.0,0.0,0.0,0.0,0.0,0.0,0.0,0.0,0.0,0.0,0.0,0.0,0.0,0.0,0.0,0.0,0.0,0.0,0.0,0.0,0.0,0.0,0.0,0.0,0.0,0.0,0.0,0.0,0.0,0.0,0.0,0.0,0.0,0.0,0.0,0.0,0.0,0.0,0.0,0.0,0.0,0.0,0.0,0.0,0.0,0.0,0.0,0.0,0.0,0.0,0.0,0.0,0.0,0.0,0.0,0.0,0.0,0.0,0.0,0.0,0.0,0.0,0.0,0.0,0.0,0.0,0.0,0.0,0.0,0.0,0.0,0.0,0.0,0.0,0.0,0.0,0.0,1.3935,1.4203,1.5011,1.5316,1.5034,1.4261,1.3433,0.0,0.0,0.0,0.0,0.0,0.0,0.0,0.0,0.0,0.0,0.0,0.0,0.0,0.0,0.0,0.0,0.0,0.0,0.0,0.0,0.0,0.0,0.0,0.0,0.0,0.0,0.0,0.0,0.0,0.0,0.0,0.0,0.0,0.0,0.0,0.0,0.0,0.0,0.0,0.0,0.0,0.0,0.0,0.0,0.0,0.0,0.0,0.0,0.0,0.0,0.0,0.0,0.0,0.0,0.0,0.0,0.0,0.0,0.0,0.0,0.0,0.0,0.0,0.0,0.0,0.0,0.0,0.0,0.0,0.0,0.0,0.0,0.0,0.0,0.0,0.0,0.0,0.0,0.0,0.0,0.0,0.0,0.0,0.0,0.0,0.0,0.0,0.0,0.0,0.0,0.0,0.0,0.0,0.0,0.0,0.0,0.0,0.0,0.0,0.0,0.0,0.0,0.0,0.0,0.0,0.0,0.0,0.0,1.4128,1.4808,1.5454,1.5639,1.5311,1.4498,1.3774,0.0,0.0,0.0,0.0,0.0,0.0,0.0,0.0,0.0,0.0,0.0,0.0,0.0,0.0,0.0,0.0,0.0,0.0,0.0,0.0,0.0,0.0,0.0,0.0,0.0,0.0,0.0,0.0,0.0,0.0,0.0,0.0,0.0,0.0,0.0,0.0,0.0,0.0,0.0,0.0,0.0,0.0,0.0,0.0,0.0,0.0,0.0,0.0,0.6208,0.0,0.0,0.0,0.0,0.0,0.0,0.0,0.0,0.0,0.0,0.0,0.0,0.0,0.0,0.0,0.0,0.0,0.0,0.0,0.0,0.0,0.0,0.0,0.0,0.0,0.0,0.0,0.0,0.0,0.0,0.0,0.0,0.0,0.0,0.0,0.0,0.0,0.0,0.0,0.0,0.0,0.0,0.0,0.0,0.0,0.0,0.0,0.0,0.0,0.0,0.0,0.0,0.0,0.0,0.0,0.0,0.0,0.0,0.0,1.4478,1.5172,1.5658,1.5768,1.5494,1.4867,1.4205,0.0,0.0,0.0,0.0,0.0,0.0,0.0,0.0,0.0,0.0,0.0,0.0,0.0,0.0,0.0,0.0,0.0,0.0,0.0,0.0,0.0,0.0,0.0,0.0,0.0,0.0,0.0,0.0,0.0,0.0,0.0,0.0,0.0,0.0,0.0,0.0,0.0,0.0,0.0,0.0,0.0,0.0,0.0,0.0,0.0,0.0,0.0,0.0,0.0,0.0,0.0,0.0,0.0,0.0,0.0,0.0,0.0,0.0,0.0,0.0,0.0,0.0,0.0,0.0,0.0,0.0,0.0,0.0,0.0,0.0,0.0,0.0,0.0,0.0,0.0,0.0,0.0,0.0,0.0,0.0,0.0,0.0,0.0,0.0,0.0,0.0,0.0,0.0,0.0,0.0,0.0,0.0,0.0,0.0,0.0,0.0,0.0,0.0,0.0,0.0,0.0,0.0,0.0,0.0,0.0,0.0,0.0,1.4105,1.485,1.5481,1.5817,1.5904,1.5679,1.5269,1.4618,1.3718,0.0,0.0,0.0,0.0,0.0,0.0,0.0,0.0,0.0,0.0,0.0,0.0,0.0,0.0,0.0,0.0,0.0,0.0,0.0,0.0,0.0,0.0,0.0,0.0,0.0,0.0,0.0,0.0,0.0,0.0,0.0,0.0,0.0,0.0,0.0,0.0,0.0,0.0,0.4485,0.4575,0.0,0.0,0.0,0.0,0.0,0.0,0.0,0.0,0.6323,0.0,0.0,0.0,0.0,0.0,0.0,0.0,0.0,0.0,0.0,0.0,0.0,0.0,0.0,0.0,0.0,0.0,0.0,0.0,0.0,0.0,0.0,0.0,0.0,0.0,0.0,0.0,0.0,0.0,0.0,0.0,0.0,0.0,0.0,0.0,0.0,0.0,0.0,0.0,0.0,0.0,0.0,0.0,0.0,0.0,0.0,0.0,0.0,0.0,0.0,0.0,0.0,0.0,0.0,0.0,0.0,1.3701,1.4333,1.5078,1.5947,1.6247,1.6274,1.6008,1.5574,1.4934,1.4056,0.0,0.0,0.0,0.0,0.0,0.0,0.0,0.0,0.0,0.0,0.0,0.0,0.0,0.0,0.0,0.0,0.0,0.0,0.0,0.0,0.0,0.0,0.0,0.0,0.0,0.0,0.0,0.0,0.0,0.0,0.0,0.0,0.0,0.0,0.0,0.0,0.0,0.0,0.0,0.5237,0.5326,0.0,0.0,0.0,0.0,0.0,0.0,0.0,0.0,0.7745,0.0,0.0,0.0,0.0,0.0,0.0,0.0,0.0,0.0,0.0,0.0,0.0,0.0,0.0,0.0,0.0,0.0,0.0,0.0,0.0,0.0,0.0,0.0,0.0,0.0,0.0,0.0,0.0,0.0,0.0,0.0,0.0,0.0,0.0,0.0,0.0,0.0,0.0,0.0,0.0,0.0,0.0,0.0,0.0,0.0,0.0,0.0,0.0,0.0,0.0,0.0,0.0,0.0,0.0,0.0,1.4033,1.4712,1.5496,1.6375,1.677,1.6901,1.676,1.6399,1.5779,0.0,0.0,0.0,0.0,0.0,0.0,0.0,0.0,0.0,0.0,0.0,0.0,0.0,0.0,0.0,0.0,0.0,0.0,0.0,0.0,0.0,0.0,0.0,0.0,0.0,0.0,0.0,0.0,0.0,0.0,0.0,0.0,0.0,0.0,0.0,0.0,0.0,0.0,0.0,0.0,0.6075,0.6255,0.6845,0.0,0.0,0.0,0.0,0.0,0.0,0.9848,0.887,0.0,0.0,0.0,0.0,0.0,0.0,0.0,0.0,0.0,0.0,0.0,0.0,0.0,0.0,0.0,0.0,0.0,0.0,0.0,0.0,0.0,0.0,0.0,0.0,0.0,0.0,0.0,0.0,0.0,0.0,0.0,0.0,0.0,0.0,0.0,0.0,0.0,0.0,0.0,0.0,0.0,0.0,0.0,0.0,0.0,0.0,0.0,0.0,0.0,0.0,0.0,0.0,0.0,0.0,0.0,1.4369,1.513,1.5983,1.6849,1.73,1.7552,1.7588,1.7162,1.655,0.0,0.0,0.0,0.0,0.0,0.0,0.0,0.0,0.0,0.0,0.0,0.0,0.0,0.0,0.0,0.0,0.0,0.0,0.0,0.0,0.0,0.0,0.0,0.0,0.0,0.0,0.0,0.0,0.0,0.0,0.0,0.0,0.0,0.0,0.0,0.0,0.0,0.0,0.0,0.0,0.0,0.727,0.7515,0.7029,0.0,0.0,0.0,0.0,1.2887,1.1393,0.0,0.0,0.0,0.0,0.0,0.0,0.0,0.0,0.0,0.0,0.0,0.0,0.0,0.0,0.0,0.0,0.0,0.0,0.0,0.0,0.0,0.0,0.0,0.0,0.0,0.0,0.0,0.0,0.0,0.0,0.0,0.0,0.0,0.0,0.0,0.0,0.0,0.0,0.0,0.0,0.0,0.0,0.0,0.0,0.0,0.0,0.0,0.0,0.0,0.0,0.0,0.0,0.0,0.0,0.0,0.0,1.4638,1.5548,1.6497,1.7451,1.778,1.8049,1.8264,1.7441,1.6672,0.0,0.0,0.0,0.0,0.0,0.0,0.0,0.0,0.0,0.0,0.0,0.0,0.0,0.0,0.0,0.0,0.0,0.0,0.0,0.0,0.0,0.0,0.0,0.0,0.0,0.0,0.0,0.0,0.0,0.0,0.0,0.0,0.0,0.0,0.0,0.0,0.0,0.0,0.0,0.0,0.0,0.8384,0.8141,0.8915,0.8861,0.0,0.0,1.2378,1.3528,1.2828,0.0,0.0,0.0,0.0,0.0,0.0,0.0,0.0,0.0,0.0,0.0,0.0,0.0,0.0,0.0,0.0,0.0,0.0,0.0,0.0,0.0,0.0,0.0,0.0,0.0,0.0,0.0,0.0,0.0,0.0,0.0,0.0,0.0,0.0,0.0,0.0,0.0,0.0,0.0,0.0,0.0,0.0,0.0,0.0,0.0,0.0,0.0,0.0,0.0,0.0,0.0,0.0,0.0,0.0,0.0,1.4017,1.4984,1.6211,1.722,1.7999,1.8749,1.9163,1.9197,1.8389,1.7691,0.0,0.0,0.0,0.0,0.0,0.0,0.0,0.0,0.0,0.0,0.0,0.0,0.0,0.0,0.0,0.0,0.0,0.0,0.0,0.0,0.0,0.0,0.0,0.0,0.0,0.0,0.0,0.0,0.0,0.0,0.0,0.0,0.0,0.0,0.0,0.0,0.0,0.0,0.0,0.0,0.0,0.0,0.9947,1.1107,0.0,0.0,0.0,1.3794,1.4231,0.0,0.0,0.0,0.0,0.0,0.0,0.0,0.0,0.0,0.0,0.0,0.0,0.0,0.0,0.0,0.0,0.0,0.0,0.0,0.0,0.0,0.0,0.0,0.0,0.0,0.0,0.0,0.0,0.0,0.0,0.0,0.0,0.0,0.0,0.0,0.0,0.0,0.0,0.0,0.0,0.0,0.0,0.0,0.0,0.0,0.0,0.0,0.0,0.0,0.0,0.0,0.0,0.0,0.0,0.0,0.0,0.0,1.5691,1.7058,1.8095,1.8722,1.9595,2.0027,1.9985,1.9283,0.0,0.0,0.0,0.0,0.0,0.0,0.0,0.0,0.0,0.0,0.0,0.0,0.0,0.0,0.0,0.0,0.0,0.0,0.0,0.0,0.0,0.0,0.0,0.0,0.0,0.0,0.0,0.9446,0.0,0.0,0.0,0.0,0.0,0.0,0.0,0.0,0.0,0.0,0.0,0.0,0.0,0.0,1.0572,1.1189,1.2612,1.3412,0.0,0.0,1.4753,1.4898,1.4327,1.3659,0.0,0.0,0.0,0.0,0.0,0.0,0.0,0.0,0.0,0.0,0.0,0.0,0.0,0.0,0.0,0.0,0.0,0.0,0.0,0.0,0.0,0.0,0.0,0.0,0.0,0.0,0.0,0.0,0.0,0.0,0.0,0.0,0.0,0.0,0.0,0.0,0.0,0.0,0.0,0.0,0.0,0.0,0.0,0.0,0.0,0.0,0.0,0.0,0.0,0.0,0.0,0.0,0.0,0.0,0.0,1.7066,1.8204,1.9138,1.9852,2.0074,2.03,2.0517,1.9832,1.896,0.0,0.0,0.0,0.0,0.0,0.0,0.0,0.0,0.0,0.0,0.0,0.0,0.0,0.0,0.0,0.0,0.0,0.0,0.0,0.0,0.0,0.0,0.0,0.0,0.0,0.0,0.0,0.0,0.0,0.0,0.0,0.0,0.0,0.0,0.0,0.0,0.0,0.0,0.0,0.0,0.0,1.1631,1.102,1.2826,1.403,0.0,0.0,1.4907,1.5449,1.5266,1.4642,1.3376,0.0,0.0,0.0,0.0,0.0,0.0,0.0,0.0,0.0,0.0,0.0,0.0,0.0,0.0,0.0,0.0,0.0,0.0,0.0,0.0,0.0,0.0,0.0,0.0,0.0,0.0,0.0,0.0,0.0,0.0,0.0,0.0,0.0,0.0,0.0,0.0,0.0,0.0,0.0,0.0,0.0,0.0,0.0,0.0,0.0,0.0,0.0,0.0,0.0,0.0,0.0,0.0,0.0,1.6361,1.7327,1.8744,1.9734,2.0281,2.0722,2.0928,2.0916,2.0117,1.9337,0.0,0.0,0.0,0.0,0.0,0.0,0.0,0.0,0.0,0.0,0.0,0.0,0.0,0.0,0.0,0.0,0.0,0.0,0.0,0.0,0.0,0.0,0.0,0.0,0.0,0.0,0.0,0.0,1.1033,1.1076,1.1394,0.0,0.0,0.0,0.0,0.0,0.0,0.0,0.0,0.0,0.0,1.208,1.1957,1.3432,0.0,0.0,1.4685,1.5202,1.5057,1.513,1.4863,1.3908,1.3606,0.0,0.0,0.0,0.0,0.0,0.0,0.0,0.0,0.0,0.0,0.0,0.0,0.0,0.0,0.0,0.0,0.0,0.0,0.0,0.0,0.0,0.0,0.0,0.0,0.0,0.0,0.0,0.0,0.0,0.0,0.0,0.0,0.0,0.0,0.0,0.0,0.0,0.0,0.0,0.0,0.0,0.0,0.0,0.0,0.0,0.0,0.0,0.0,0.0,0.0,0.0,0.0,1.6999,1.8008,1.9425,2.0402,2.0916,2.1234,2.1341,2.1189,2.0442,1.974,0.0,0.0,0.0,0.0,0.0,0.0,0.0,0.0,0.0,0.0,0.0,0.0,0.0,0.0,0.0,0.0,0.0,0.0,0.0,0.0,0.0,0.0,0.0,0.0,0.0,0.0,0.0,0.0,1.1715,1.1693,1.1978,0.0,0.0,0.0,0.0,0.0,0.0,0.0,0.0,0.0,0.0,1.2695,1.3064,1.4108,1.4778,1.4593,1.5002,1.5204,1.4908,1.4985,1.4908,1.452,0.0,0.0,0.0,0.0,0.0,0.0,0.0,0.0,0.0,0.0,0.0,0.0,0.0,0.0,0.0,0.0,0.0,0.0,0.0,0.0,0.0,0.0,0.0,0.0,0.0,0.0,0.0,0.0,0.0,0.0,0.0,0.0,0.0,0.0,0.0,0.0,0.0,0.0,0.0,0.0,0.0,0.0,0.0,0.0,0.0,0.0,0.0,0.0,0.0,0.0,0.0,0.0,0.0,0.0,1.9421,2.0367,2.1197,2.1809,2.1571,2.142,2.1381,2.0856,2.0171,1.9289,0.0,0.0,0.0,0.0,0.0,0.0,0.0,0.0,0.0,0.0,0.0,0.0,0.0,0.0,0.0,0.0,0.0,0.0,0.0,0.0,0.0,0.0,0.0,0.0,0.0,0.0,1.2292,1.252,1.2649,0.0,0.0,0.0,0.0,0.0,0.0,0.0,0.0,0.0,0.0,1.3019,1.3576,1.4167,1.4778,1.5148,1.5151,1.4897,1.4826,1.5114,1.4924,1.4847,0.0,0.0,0.0,0.0,0.0,0.0,0.0,0.0,0.0,0.0,0.0,0.0,0.0,0.0,0.0,0.0,0.0,0.0,0.0,0.0,0.0,0.0,0.0,0.0,0.0,0.0,0.0,0.0,1.4762,0.0,0.0,0.0,0.0,0.0,0.0,0.0,0.0,0.0,0.0,0.0,1.6531,1.6598,0.0,0.0,0.0,0.0,0.0,0.0,0.0,0.0,0.0,0.0,0.0,0.0,1.857,1.9678,2.0707,2.1455,2.1884,2.1786,2.1693,2.1585,2.1092,2.0208,1.896,0.0,0.0,0.0,0.0,0.0,0.0,0.0,0.0,0.0,0.0,0.0,0.0,0.0,0.0,0.0,0.0,0.0,0.0,0.0,0.0,0.0,0.0,0.0,0.0,0.0,1.286,0.0,0.0,0.0,0.0,0.0,0.0,0.0,0.0,0.0,0.0,0.0,1.2405,1.323,1.3646,1.3979,1.4262,1.4618,1.4804,0.0,0.0,0.0,0.0,0.0,0.0,0.0,0.0,0.0,0.0,0.0,0.0,0.0,0.0,1.322,1.319,1.3442,1.3648,1.3668,0.0,0.0,0.0,0.0,0.0,0.0,0.0,0.0,0.0,0.0,0.0,0.0,0.0,0.0,0.0,0.0,1.5488,0.0,0.0,0.0,0.0,0.0,0.0,0.0,0.0,1.6885,1.7156,1.7282,1.74,1.7493,0.0,1.772,1.7419,0.0,0.0,0.0,0.0,0.0,0.0,0.0,0.0,1.8846,1.9967,2.0918,2.1666,2.2143,2.1997,2.1922,2.1956,2.1292,2.0387,1.9301,1.8878,1.8301,0.0,0.0,0.0,0.0,0.0,0.0,0.0,0.0,0.0,0.0,0.0,0.0,0.0,0.0,0.0,0.0,0.0,0.0,0.0,0.0,0.0,0.0,0.0,1.3118,0.0,0.0,0.0,0.0,0.0,0.0,0.0,0.0,0.0,1.2784,1.2822,1.3141,1.3814,1.4253,1.4496,1.4415,0.0,0.0,0.0,0.0,0.0,0.0,0.0,1.5106,1.4984,1.5045,1.5081,1.5009,1.4676,1.4542,1.4938,0.0,0.0,1.4376,1.4561,1.4768,1.4768,1.4586,1.45,1.4705,1.4618,1.4341,0.0,0.0,0.0,0.0,0.0,0.0,0.0,0.0,1.663,1.653,0.0,1.6341,0.0,0.0,0.0,0.0,0.0,0.0,0.0,0.0,1.8146,1.8406,1.8261,1.8562,1.8671,1.8545,1.8569,1.8561,1.8516,1.7978,0.0,0.0,0.0,0.0,0.0,0.0,1.9126,2.0328,2.1067,2.1853,2.2636,2.2192,2.2101,2.2428,2.1452,2.0707,2.0286,1.9504,1.8931,1.8708,1.7707,0.0,0.0,0.0,0.0,0.0,0.0,0.0,0.0,0.0,0.0,0.0,0.0,0.0,0.0,0.0,0.0,0.0,0.0,0.0,0.0,1.3344,0.0,0.0,0.0,0.0,0.0,0.0,0.0,0.0,0.0,0.0,1.3454,1.365,1.3945,1.4294,0.0,0.0,0.0,0.0,1.4603,1.4371,1.5552,1.6081,1.4942,1.5128,1.5585,1.6083,0.0,0.0,1.5915,1.5543,1.5322,1.5577,1.589,1.583,1.4947,1.4817,1.4842,1.4819,1.4845,1.4839,1.5035,1.5343,1.5351,1.9626,0.0,0.0,0.0,0.0,1.6939,1.7177,1.7306,1.7306,1.7369,1.7415,1.7185,0.0,0.0,0.0,0.0,0.0,0.0,1.7486,1.7999,1.8436,1.8806,1.9122,1.937,1.9577,1.9784,1.994,1.9914,1.9784,1.9755,1.9017,1.7598,0.0,0.0,0.0,0.0,1.9898,2.0854,2.1747,2.2314,2.2552,2.2498,2.2352,2.2076,2.1544,2.1016,2.0518,2.0128,1.9613,1.8952,1.8477,0.0,0.0,0.0,0.0,0.0,0.0,0.0,0.0,0.0,0.0,0.0,0.0,0.0,0.0,0.0,0.0,0.0,0.0,0.0,1.4382,1.3877,1.3488,0.0,0.0,0.0,0.0,0.0,0.0,0.0,0.0,0.0,1.4373,1.4223,1.44,0.0,0.0,1.5079,1.5663,1.4986,1.454,1.4899,0.0,0.0,0.0,1.5863,1.5808,1.5966,1.6085,1.6212,1.6313,1.6205,1.6165,1.6241,1.6502,1.6564,1.6121,1.6109,1.6191,1.6204,1.6133,1.6134,1.6374,1.6335,1.6177,2.2379,1.9978,1.8956,1.8152,1.759,1.79,1.8131,1.827,1.827,1.8254,1.8201,1.8002,1.7778,1.7518,1.7314,0.0,0.0,0.0,1.8241,1.8858,1.9179,1.9512,1.9828,2.0153,2.038,2.0553,2.0731,2.077,2.0734,2.0723,2.0198,1.9187,0.0,0.0,1.9212,1.9878,2.0666,2.1516,2.2221,2.2649,2.281,2.2813,2.2596,2.2141,2.1776,2.137,2.0934,2.0596,2.0137,1.954,1.9069,1.8477,0.0,0.0,0.0,0.0,0.0,0.0,0.0,0.0,0.0,0.0,0.0,1.5037,1.5231,0.0,0.0,0.0,1.5547,1.5337,1.4815,1.4364,0.0,0.0,0.0,0.0,0.0,0.0,0.0,1.4055,1.4758,1.5218,1.5077,1.4979,1.5068,1.5435,1.5463,1.5577,1.5927,0.0,1.5396,1.5386,1.6211,1.6862,1.6843,1.6601,1.6503,1.6806,1.6978,1.7105,1.7182,1.6948,1.6745,1.6837,1.6931,1.6947,1.6794,1.6836,1.6821,1.6714,1.6662,1.6714,1.6958,1.6893,1.6791,2.5007,2.4722,2.2264,2.0425,1.9157,1.922,1.9372,1.9536,1.9444,1.9195,1.8858,1.8834,1.8643,1.8338,1.8132,0.0,0.0,1.8777,1.9211,1.9902,2.0231,2.0367,2.0399,2.0902,2.1092,2.0986,2.1124,2.1281,2.1446,2.1181,2.1094,2.1178,2.0426,2.0158,2.0421,2.0826,2.1428,2.2245,2.2602,2.2958,2.3289,2.3104,2.2861,2.2527,2.2164,2.1792,2.146,2.0951,2.0556,2.0286,1.9532,1.898,1.8716,0.0,0.0,0.0,0.0,0.0,0.0,0.0,0.0,0.0,0.0,0.0,0.0,0.0,0.0,0.0,1.6557,0.0,1.5281,1.4944,0.0,0.0,0.0,1.4038,1.4326,1.4549,1.4692,1.4751,0.0,0.0,0.0,0.0,1.5952,1.5794,1.6248,1.6379,1.5808,1.6442,1.6695,1.5855,1.6696,1.7439,1.7408,1.7276,1.7362,1.7925,1.8234,1.8145,1.8171,1.758,1.719,1.7526,1.7355,1.7264,1.7361,1.7337,1.7101,1.6891,1.6785,1.6857,1.7072,1.7268,1.7418,2.8464,2.7625,2.6345,2.4621,2.2676,2.1929,2.1621,2.1587,2.0687,2.0231,2.0141,1.999,1.9817,1.9639,1.9431,1.954,1.9873,1.9897,2.0182,2.0644,2.0832,2.0975,2.114,2.1422,2.1587,2.1671,2.1855,2.1961,2.2015,2.2072,2.2149,2.2153,2.2052,2.1798,2.1411,2.1867,2.2332,2.2797,2.314,2.3309,2.3282,2.3119,2.296,2.287,2.2544,2.2172,2.1786,2.1403,2.0921,2.034,2.0104,1.967,1.8968,1.8313,0.0,0.0,0.0,0.0,0.0,0.0,0.0,0.0,0.0,1.595,1.6151,0.0,1.6649,0.0,1.7298,1.727,1.695,1.6521,0.0,0.0,1.5149,1.5026,1.4867,1.564,1.5929,1.5306,1.6208,1.6641,1.6065,1.6593,1.7141,1.7312,1.6781,1.6508,1.6881,1.6565,1.6431,1.6701,1.7352,1.7769,1.7817,1.7628,1.7575,1.7608,1.7717,1.788,1.8261,1.7748,1.7607,1.8548,1.8908,1.8925,1.8734,1.8758,1.8781,1.8668,1.8024,1.7453,1.765,1.8163,1.842,3.0524,2.9619,2.93,2.821,2.6546,2.4581,2.3684,2.3535,2.2894,2.249,2.2257,2.1612,2.1313,2.122,2.0655,2.0477,2.0664,2.0745,2.0999,2.1357,2.1603,2.1788,2.1907,2.216,2.2243,2.2166,2.2446,2.2513,2.244,2.2706,2.2869,2.2958,2.3099,2.3049,2.2792,2.2885,2.3137,2.3478,2.3681,2.3738,2.364,2.3366,2.3148,2.2992,2.2584,2.2113,2.1567,2.1216,2.0796,2.0252,2.0039,1.9723,1.924,1.8655,1.8081,0.0,0.0,0.0,0.0,0.0,0.0,0.0,0.0,0.0,0.0,0.0,1.7231,0.0,1.7946,0.0,1.7624,1.732,1.6876,1.6321,1.6333,1.6357,1.6301,1.6925,1.7179,1.6703,1.7342,1.7662,1.7197,1.7603,1.8042,1.8323,1.7871,1.7694,1.8055,1.7771,1.7606,1.7945,1.8932,1.9478,1.9037,1.8834,1.8814,1.897,1.9075,1.9208,1.945,1.9332,1.9311,1.9614,2.0179,2.039,1.9806,1.9614,1.9645,1.9644,1.9288,1.8879,1.8795,1.9194,1.938,3.1933,3.1349,3.1579,3.1231,3.0317,2.7562,2.604,2.5444,2.5293,2.4992,2.4527,2.3452,2.2952,2.2799,2.1895,2.1409,2.1322,2.1617,2.1862,2.2036,2.2537,2.2692,2.2542,2.2877,2.2885,2.2623,2.295,2.2994,2.2808,2.3202,2.3461,2.3554,2.3741,2.395,2.4111,2.3797,2.3789,2.4119,2.4111,2.4087,2.4054,2.3667,2.3318,2.3,2.2544,2.1984,2.1257,2.0997,2.0681,2.0316,1.9912,1.9648,1.9633,1.9036,1.8587,0.0,1.7716,0.0,0.0,0.0,0.0,0.0,0.0,0.0,0.0,1.7677,1.7949,1.8317,1.852,1.8447,1.8017,1.786,1.7697,1.7463,1.7597,1.7763,1.7941,1.8156,1.8291,1.8225,1.8377,1.8508,1.8436,1.8615,1.883,1.9102,1.9291,1.9414,1.9498,1.9318,1.9191,1.9484,2.0919,2.134,2.034,2.0138,2.0258,2.0716,2.0708,2.0944,2.089,2.1002,2.1011,2.0644,2.1245,2.1558,2.0581,2.0314,2.0306,2.0521,2.0623,2.0488,2.005,2.0194,2.0369,3.3852,3.3974,3.3349,3.3004,3.2777,3.1983,3.0014,2.7311,2.6322,2.5794,2.5589,2.5201,2.4549,2.3762,2.3553,2.307,2.2465,2.3336,2.3319,2.2607,2.3702,2.3649,2.2721,2.3056,2.3215,2.316,2.3479,2.3545,2.3352,2.3754,2.3868,2.3772,2.4049,2.422,0.0,0.0,0.0,0.0,2.4137,2.403,2.3845,2.3526,2.3226,2.3007,2.2905,0.0,2.2025,2.2079,2.1885,2.1333,2.082,0.0,0.0,0.0,0.0,0.0,0.0,0.0,0.0,0.0,0.0,0.0,1.8464,1.842,1.8102,1.8472,1.8842,1.9074,1.922,1.9333,1.9391,1.9383,1.917,1.8731,1.8699,1.8568,1.8231,1.8561,1.8737,1.8407,1.8787,1.8987,1.8911,1.925,1.9752,2.0167,2.0662,2.1065,2.1287,2.0322,2.0037,2.1155,2.1944,2.1822,2.0435,2.0357,2.0494,2.0403,2.0449,2.0656,2.0967,2.0709,2.0857,2.1345,2.2018,2.2215,2.1663,2.167,2.1733,2.2011,2.2136,2.1877,2.0612,2.0943,2.1314,3.4525,0.0,3.4213,3.3895,0.0,3.3344,3.2242,3.0438,2.9134,2.8298,2.7772,2.7046,2.6507,2.6049,2.4946,2.461,2.4859,2.4903,2.5008,2.5164,2.5275,2.5005,2.4371,2.3916,2.3591,2.3421,2.3764,2.3811,2.353,2.3983,2.4153,2.4057,2.4316,2.4511,2.4584,2.4763,2.4714,2.447,2.4373,2.4299,2.4186,2.3926,2.3617,2.3283,0.0,0.0,0.0,0.0,0.0,0.0,0.0,0.0,0.0,0.0,0.0,1.9883,1.9841,1.9538,1.8923,1.8935,1.9037,1.9134,1.9399,1.9346,1.8887,1.9187,1.9431,1.9529,1.9618,1.9687,1.9789,1.9805,1.9695,1.9449,1.9542,1.9498,1.9263,1.9606,1.9817,1.9576,1.9812,1.9996,1.9896,2.012,2.0455,2.0803,2.1157,2.1522,2.1763,2.1251,2.1137,2.2036,2.2355,2.2235,2.1549,2.1389,2.1407,2.1358,2.1397,2.1513,2.1705,2.1525,2.1553,2.2111,2.2361,2.2418,2.2261,2.2269,2.2373,2.2485,2.2617,2.2501,2.1688,2.1998,2.2295,3.5144,3.45,3.497,3.4757,3.4035,3.3974,3.3775,3.3345,0.0,0.0,0.0,2.8979,2.8488,2.8274,2.6438,2.6177,2.7083,2.6476,2.6725,2.7623,2.6986,2.646,2.6005,2.4949,2.4156,2.3683,2.4055,2.4071,2.3732,2.4211,2.4415,2.4414,2.4592,2.4778,2.4949,2.5288,2.5326,2.5062,2.4783,2.4624,2.4608,2.4592,2.4371,2.3804,2.4656,2.4583,2.3502,2.4174,2.4071,2.3017,2.2828,2.2571,2.2203,2.2005,2.1662,2.1084,2.0964,2.0667,2.0106,1.9942,1.9956,2.0116,2.0285,2.0151,1.9659,1.9776,1.9882,1.9882,2.0016,2.0105,2.0109,2.0116,2.0146,2.0133,2.0291,2.0353,2.0265,2.059,2.074,2.0686,2.081,2.0988,2.0954,2.0994,2.1124,2.1273,2.1484,2.1658,2.191,2.1977,2.2018,2.2385,2.2473,2.2477,2.2464,2.2413,2.2493,2.2368,2.2419,2.2493,2.2501,2.2526,2.2542,2.2482,2.2572,2.262,2.2591,2.2599,2.2607,2.2646,2.273,2.28,2.2841,2.2954,2.3021,3.6875,3.6585,3.665,3.6509,3.6156,3.594,3.524,3.4234,3.308,3.2023,3.1167,3.0994,3.0115,2.8785,2.8463,2.7971,2.7445,2.8329,2.8329,0.0,2.8447,2.7767,2.5897,2.5764,2.5194,2.4274,2.46,2.4665,2.4518,2.482,2.4917,2.4868,2.4958,2.5079,2.5168,2.6286,2.6896,2.6803,2.5539,2.477,2.4608,2.5418,2.5562,2.5064,2.6351,2.6738,2.6031,2.6248,2.5766,2.4417,2.4455,2.3914,2.2584,2.3239,2.3258,2.2447,2.2742,2.2737,2.2187,2.1681,2.1411,2.1432,2.147,2.1058,2.0108,2.0137,2.0221,2.0268,2.086,2.1257,2.1279,2.1327,2.1355,2.1353,2.104,2.0799,2.0766,2.0762,2.0813,2.0869,2.1134,2.1322,2.1349,2.146,2.1655,2.1942,2.1975,2.2131,2.2308,2.2407,2.2432,2.2493,2.2493,2.2493,2.2606,2.2516,2.2598,2.2493,2.2567,2.2612,2.2565,2.2667,2.2733,2.2683,2.2862,2.3004,2.2947,2.2927,2.2958,2.3062,2.315,2.3202,2.3287,2.3368,2.3334,3.7753,3.7648,3.7488,3.7355,3.7222,3.6956,3.6392,3.5626,3.5244,3.3844,3.1936,3.21,3.1579,3.0516,3.0067,3.0017,3.0226,3.0261,3.0358,3.0465,3.0418,2.9833,2.8785,2.8098,2.746,2.6833,2.6358,2.6058,2.5874,2.5399,2.5466,2.6161,2.7168,2.7715,2.7756,2.8589,2.9157,2.9337,2.8005,2.7182,2.7003,2.7437,2.7427,2.691,2.8002,2.8298,2.7668,2.8159,2.7915,2.6812,2.6617,2.5864,2.4481,2.5163,2.4954,2.3494,2.3629,2.3569,2.3111,2.253,2.2197,2.2183,2.2183,2.1987,2.1514,2.1512,2.1555,2.1563,2.1905,2.2089,2.2089,2.1865,2.1703,2.1703,2.1369,2.1127,2.1059,2.1232,2.1351,2.1355,2.1526,2.1664,2.1668,2.1758,2.1847,2.202,2.2109,2.2261,2.2454,2.2488,2.2559,2.2726,2.2793,2.2958,2.3228,2.3311,2.34,2.3598,2.3462,2.324,2.306,2.2981,2.2857,2.2757,2.2922,2.3043,2.3015,2.3015,2.3041,2.3104,2.3233,2.3332,2.3464,2.3502,2.3441,3.8619,3.8546,3.8334,3.817,3.7987,3.7635,3.7237,3.6826,3.6932,3.5487,3.3221,3.3368,3.313,3.2489,3.187,3.2142,3.2883,3.2319,3.2503,3.3288,3.2542,3.2014,3.169,3.0616,2.9914,2.9497,2.8616,2.813,2.7918,2.7078,2.7208,2.8417,2.9876,3.059,3.0568,3.1266,3.1759,3.194,3.1291,3.0483,2.964,2.9963,2.9885,2.9386,3.0276,3.0406,2.9671,3.0096,2.9894,2.8852,2.859,2.7804,2.6384,2.6944,2.6598,2.5054,2.481,2.4555,2.3988,2.352,2.3184,2.3049,2.2941,2.2955,2.3211,2.2995,2.2718,2.2519,2.2491,2.2552,2.2516,2.2227,2.1943,2.1933,2.1677,2.1471,2.1348,2.1679,2.1888,2.178,2.1907,2.2013,2.1987,2.2038,2.2103,2.2135,2.2182,2.2338,2.247,2.2494,2.2658,2.3067,2.3346,2.371,2.4147,2.4015,2.4161,2.4563,2.4074,2.3681,2.3438,2.3281,2.3051,2.2919,2.3016,2.313,2.3115,2.3115,2.3132,2.3187,2.3268,2.3389,2.3489,2.3499,2.3534,3.9886,3.9661,3.9639,3.9247,3.8663,3.805,3.7647,3.735,3.7113,3.6394,3.5312,3.5332,3.5002,3.4479,3.4289,3.4334,3.4485,3.4596,3.4658,3.4763,3.4732,3.4151,3.3244,3.282,3.2153,3.1336,3.1148,3.1078,3.1084,3.1148,3.1395,3.1859,3.2489,3.2729,3.267,3.4022,3.4674,3.4489,3.5376,3.4385,3.1646,3.2912,3.3227,3.225,3.3784,3.3981,3.2506,3.2339,3.1346,2.9595,2.9936,2.9356,2.7618,2.8029,2.811,2.7376,2.7077,2.6531,2.5438,2.5253,2.4878,2.4447,2.3854,2.3984,2.4911,2.4159,2.3143,2.2436,2.2382,2.2568,2.2528,2.2613,2.2647,2.2606,2.2191,2.1829,2.1885,2.196,2.2027,2.1906,2.2255,2.2379,2.2271,2.2469,2.2654,2.2648,2.2635,2.2567,2.2492,2.2499,2.274,2.3452,2.4388,2.4941,2.4817,2.4341,2.4388,2.4683,2.3912,2.358,2.3704,2.353,2.3241,2.3176,2.3309,2.3384,2.3409,2.3449,2.3425,2.3407,2.3448,2.3505,2.3507,2.3531,2.3598,4.1132,4.1034,4.0868,4.0339,3.9635,3.9324,3.8845,3.8247,3.8468,3.7942,3.6998,3.7071,3.6284,3.486,3.515,3.5287,3.5287,3.5374,3.55,3.5626,3.5489,3.5272,3.4997,3.4898,3.4579,3.4118,3.3561,3.3278,3.3293,3.351,3.3667,3.3981,3.5344,3.6129,3.6117,3.7244,3.7953,3.8138,3.8569,3.8166,3.694,3.5704,3.5023,3.4895,3.5257,3.5211,3.4583,3.4154,3.3158,3.1621,3.162,3.0748,2.8698,2.9414,2.9337,2.8154,2.7347,2.6443,2.5292,2.4799,2.4416,2.4098,2.3906,2.4037,2.4354,2.3828,2.3246,2.2926,2.3026,2.3241,2.3269,2.3101,2.3011,2.3012,2.2649,2.25,2.2916,2.2658,2.2584,2.3,2.2756,2.2563,2.2722,2.314,2.3371,2.3342,2.3315,2.3144,2.264,2.249,2.2787,2.3484,2.4618,2.5219,2.4972,2.493,2.4922,2.4942,2.4762,2.4582,2.3918,2.3684,2.3397,2.3329,2.3429,2.3505,2.3482,2.3498,2.3498,2.3522,2.3739,2.3836,2.3715,2.378,2.387,4.2295,4.2184,4.1908,4.1298,4.0511,4.0322,3.9688,3.8812,3.9088,3.864,3.7789,3.7975,3.7231,3.5896,3.6038,3.6251,3.6378,3.6374,3.656,3.6815,3.6594,3.6618,3.6834,3.6808,3.6785,3.6646,3.5963,3.5565,3.5615,3.6135,3.6346,3.6644,3.8399,3.9354,3.9368,4.0068,4.0533,4.0733,4.074,4.0752,4.0451,3.8462,3.723,3.7299,3.706,3.6732,3.6336,3.5962,3.4963,3.3336,3.3051,3.2089,3.028,3.07,3.0451,2.9221,2.8312,2.7435,2.6496,2.5514,2.4851,2.4623,2.4251,2.3934,2.3893,2.3515,2.3318,2.3446,2.3493,2.3531,2.3579,2.3298,2.3135,2.3182,2.2936,2.3002,2.3359,2.3046,2.3072,2.3746,2.3165,2.2739,2.3087,2.3556,2.3849,2.3595,2.3599,2.3537,2.2845,2.2699,2.3059,2.4318,2.5559,2.5864,2.5447,2.5572,2.5697,2.5541,2.5456,2.4833,2.4178,2.382,2.349,2.3406,2.3472,2.3505,2.3498,2.3498,2.3498,2.357,2.3755,2.3949,2.3715,2.396,2.4105,4.3267,4.2993,4.2619,4.2073,4.1334,4.0738,3.9765,3.8873,3.8558,3.8042,3.7611,3.7813,3.777,3.7543,3.734,3.7594,3.8004,3.802,3.8269,3.8629,3.8477,3.8558,3.8746,3.8586,3.8498,3.8498,3.8384,3.8327,3.8449,3.95,4.0172,4.0164,4.1285,4.1911,4.1718,4.1932,4.207,4.1886,4.1677,4.1483,4.1452,4.1041,4.0379,3.9762,3.9944,3.9335,3.8144,3.7872,3.6736,3.4278,3.4217,3.3449,3.2003,3.1679,3.1446,3.1045,3.0696,3.0359,2.9702,2.8241,2.7192,2.6704,2.5167,2.4231,2.4794,2.4061,2.3645,2.3845,2.3553,2.3265,2.3141,2.3123,2.3059,2.3071,2.3028,2.303,2.3103,2.3118,2.3316,2.3777,2.348,2.3217,2.3337,2.369,2.3946,2.3697,2.3321,2.3243,2.3242,2.3084,2.412,2.6216,2.7354,2.7519,2.6691,2.6394,2.6518,2.63,2.5607,2.4939,2.4442,2.4026,2.3785,2.3619,2.3817,2.3841,2.3597,2.3498,2.3498,2.3578,2.3731,2.3788,2.3772,2.4208,2.4311,4.3855,4.3909,4.3595,4.3292,4.3006,4.2394,4.1621,4.087,4.0914,4.0019,3.8789,3.9016,3.869,3.7805,3.789,3.8124,3.8466,3.8893,3.9283,3.9561,3.9356,3.9612,4.0257,4.0231,4.0197,4.0219,4.0365,4.054,4.0731,4.1162,4.1366,4.1478,4.2252,4.273,4.289,4.3204,4.342,4.3456,4.3239,4.2986,4.2767,4.2701,4.2386,4.1913,4.1247,4.0663,4.0132,3.9544,3.8411,3.6702,3.6426,3.5599,3.4167,3.3417,3.2826,3.2261,3.1314,3.0486,2.9865,2.8587,2.7644,2.7358,2.6812,2.6332,2.6449,2.6115,2.5639,2.5043,2.4715,2.426,2.3488,2.3251,2.3226,2.3302,2.3318,2.3475,2.3736,2.3542,2.3486,2.4086,2.4066,2.4069,2.4393,2.5132,2.5584,2.5413,2.5461,2.5208,2.4568,2.3944,2.4444,2.7212,2.8276,2.8251,2.7979,2.7219,2.6834,2.6528,2.6075,2.595,2.5597,2.5355,2.5135,2.5122,2.5027,2.4549,2.4413,2.3853,2.3806,2.3905,2.4053,2.436,2.3885,2.438,2.4375,4.4099,4.4216,4.4088,4.3863,4.3596,4.3211,4.2482,4.1632,4.1734,4.0801,3.942,3.9581,3.9248,3.8672,3.9178,3.9516,3.9581,3.9806,4.0132,4.0565,4.0419,4.0708,4.1239,4.127,4.1235,4.1254,4.1508,4.1734,4.1945,4.2323,4.2517,4.255,4.3199,4.367,4.3902,4.4166,4.4396,4.4499,4.4382,4.4109,4.3828,4.3772,4.3671,4.3302,4.2462,4.1813,4.1595,4.088,3.9872,3.8653,3.823,3.7351,3.5756,3.5039,3.4407,3.3669,3.2434,3.1488,3.0942,2.948,2.8479,2.8365,2.805,2.7829,2.7696,2.7701,2.7182,2.6467,2.6168,2.5707,2.5042,2.4762,2.4402,2.3761,2.3498,2.3664,2.4063,2.367,2.3655,2.4068,2.4611,2.4923,2.5248,2.6138,2.6706,2.6966,2.7221,2.6906,2.5821,2.4683,2.4823,2.7887,2.8989,2.9246,2.9243,2.8841,2.7727,2.7246,2.7249,2.7086,2.6859,2.6656,2.6616,2.6627,2.6264,2.5664,2.5059,2.4449,2.4377,2.4543,2.5111,2.5642,2.5127,2.4594,2.4638,4.4035,4.4075,4.4008,4.3659,4.3166,4.3071,4.2022,4.1004,4.0794,4.0439,3.9655,3.951,3.9877,4.0015,4.124,4.1896,4.1493,4.0999,4.1155,4.1853,4.182,4.184,4.1944,4.1802,4.1791,4.1824,4.1909,4.2024,4.2246,4.3209,4.3728,4.3885,4.438,4.4662,4.4843,4.478,4.4827,4.484,4.4787,4.465,4.4446,4.4322,4.4176,4.3925,4.3526,4.296,4.2261,4.1917,4.1061,3.9767,3.9475,3.8465,3.6957,3.6527,3.6131,3.5435,3.434,3.3851,3.366,3.1681,3.0567,3.0388,2.9199,2.882,2.8811,2.862,2.836,2.7876,2.7719,2.7507,2.7165,2.7019,2.6276,2.4128,2.3925,2.385,2.3749,2.3581,2.3536,2.3827,2.4731,2.5631,2.5955,2.6614,2.7366,2.8009,2.8234,2.795,2.6939,2.5818,2.5954,2.8117,2.9875,3.0569,3.0614,3.0463,2.9204,2.8229,2.8353,2.833,2.8039,2.7832,2.8051,2.8053,2.7425,2.6826,2.6414,2.5915,2.6003,2.621,2.6694,2.6933,2.6611,2.6102,2.5302,4.4626,4.4599,4.4366,4.4153,4.3914,4.3741,4.3408,4.3148,4.3145,4.2715,4.2125,4.2284,4.2076,4.1703,4.23,4.2768,4.3068,4.3012,4.3095,4.3119,4.2724,4.2659,4.2898,4.3025,4.3374,4.3759,4.3938,4.3944,4.4004,4.436,4.4544,4.4624,4.4789,4.4984,4.5127,4.478,4.4663,4.4853,4.4676,4.4406,4.4165,4.4309,4.4269,4.4008,4.3685,4.3334,4.311,4.2646,4.2177,4.1616,4.1277,4.0459,3.9339,3.8724,3.8162,3.7539,3.714,3.6436,3.5682,3.4868,3.3942,3.3578,3.2998,3.2538,3.1961,3.1643,3.093,2.9787,2.9341,2.8676,2.6999,2.6559,2.67,2.6409,2.5749,2.5148,2.5023,2.4353,2.4054,2.4459,2.494,2.5771,2.6986,2.7754,2.8374,2.942,2.9725,2.9495,2.9158,2.8608,2.9179,3.1096,3.1776,3.1854,3.1761,3.1542,3.0715,2.9855,2.9759,2.9614,2.9309,2.9216,2.9433,2.9188,2.857,2.8078,2.7661,2.7471,2.7483,2.7631,2.7917,2.8047,2.8106,2.7795,2.7281,4.5104,4.5171,4.4963,4.4883,4.4856,4.4593,4.4399,4.4331,4.4218,4.378,4.3249,4.3278,4.3123,4.2747,4.3053,4.3635,4.4289,4.4725,4.4918,4.4722,4.4034,4.3799,4.3967,4.4132,4.4422,4.4836,4.4984,4.5037,4.505,4.5144,4.518,4.5211,4.5197,4.5274,4.5421,4.5114,4.499,4.5144,4.5003,4.4766,4.4569,4.4539,4.4499,4.4316,4.4018,4.3839,4.3802,4.3501,4.3183,4.2851,4.2367,4.1679,4.0803,4.0244,3.976,3.9122,3.845,3.7728,3.6977,3.6193,3.5813,3.5267,3.515,3.4894,3.4327,3.4021,3.3174,3.2155,3.1717,3.0851,2.9463,2.9239,2.9582,3.0149,2.7635,2.6481,2.6349,2.5943,2.5673,2.6115,2.628,2.7126,2.8342,2.9057,2.9685,3.0824,3.1252,3.134,3.1345,3.1283,3.1947,3.2417,3.2569,3.2643,3.2765,3.2493,3.2121,3.1656,3.1286,3.0986,3.0646,3.0706,3.0871,3.0243,2.9631,2.9229,2.8817,2.868,2.8643,2.8891,2.9339,2.9825,3.0194,3.0312,3.0016,4.5497,4.5724,4.5711,4.5627,4.5604,4.5381,4.4968,4.4424,4.4177,4.3811,4.3265,4.3393,4.3334,4.3505,4.4172,4.4728,4.522,4.5761,4.6145,4.6091,4.5566,4.5064,4.4737,4.465,4.4795,4.5104,4.5251,4.5327,4.5424,4.5554,4.5677,4.5627,4.5617,4.5667,4.5627,4.5654,4.5534,4.5537,4.5577,4.5434,4.5167,4.5024,4.4863,4.4823,4.4553,4.4362,4.4296,4.4189,4.3872,4.3207,4.2862,4.2323,4.1528,4.1304,4.0982,4.0372,3.89,3.8424,3.7785,3.7206,3.6279,3.6122,3.6095,3.5595,3.5684,3.5503,3.5194,3.4627,3.4303,3.3995,3.3615,3.3495,3.3783,3.3668,2.9848,2.768,2.7937,2.7943,2.7735,2.7914,2.828,2.8831,2.9963,3.0376,3.1127,3.2092,3.2482,3.2436,3.2327,3.224,3.2474,3.2757,3.298,3.3265,3.3309,3.3015,3.2673,3.2552,3.2305,3.2132,3.1849,3.1902,3.1938,3.1329,3.079,3.0375,3.0195,3.0141,3.0332,3.0761,3.1314,3.1956,3.1998,3.1801,3.1734,4.5999,4.6022,4.5804,4.5677,4.568,4.5617,4.5638,4.5657,4.559,4.5441,4.5488,4.5571,4.5458,4.5663,4.5819,4.6078,4.6201,4.6385,4.652,4.6529,4.6186,4.5455,4.4771,4.4509,4.4934,4.5694,4.5678,4.5728,4.5932,4.5808,4.5707,4.5677,4.5707,4.5707,4.568,4.5568,4.5421,4.5407,4.5421,4.5301,4.5117,4.5157,4.509,4.4893,4.481,4.4633,4.4403,4.4205,4.3912,4.3471,4.3337,4.3118,4.2544,4.2345,4.2098,4.1793,4.1323,4.0723,4.0235,3.9743,3.9269,3.8715,3.8363,3.8324,3.7642,3.755,3.7218,3.6729,3.6174,3.5422,3.4535,3.4078,3.39,3.3463,3.1584,2.9812,2.8929,2.8343,2.8353,2.8677,2.8898,2.9707,3.0649,3.1229,3.1674,3.2709,3.3056,3.2998,3.2787,3.2677,3.2725,3.2905,3.3159,3.3566,3.3736,3.344,3.3239,3.3207,3.3129,3.314,3.2863,3.2725,3.2687,3.2429,3.1958,3.1521,3.1744,3.1867,3.2266,3.2308,3.2494,3.268,3.2541,3.237,3.2288,4.6644,4.672,4.6529,4.6445,4.6449,4.6329,4.64,4.6524,4.6444,4.6436,4.6583,4.6596,4.6596,4.6596,4.6596,4.6676,4.6783,4.6801,4.6881,4.6903,4.6543,4.589,4.5219,4.4896,4.532,4.6067,4.6008,4.6026,4.6133,4.5995,4.5862,4.5764,4.5831,4.5915,4.5911,4.5902,4.5835,4.5848,4.5741,4.5585,4.5482,4.5331,4.5301,4.518,4.5127,4.493,4.4606,4.4235,4.3861,4.3578,4.3481,4.3324,4.2969,4.2798,4.2637,4.2514,4.2045,4.1553,4.1249,4.0979,4.0552,4.0079,3.9961,3.9711,3.9229,3.9065,3.8758,3.8404,3.7938,3.7175,3.628,3.5562,3.514,3.4948,3.4231,3.3053,3.1226,3.0975,3.0766,3.081,3.0867,3.104,3.2065,3.2123,3.2505,3.3049,3.3239,3.3128,3.2975,3.2922,3.297,3.3235,3.3501,3.3922,3.411,3.3892,3.3854,3.3828,3.3881,3.392,3.3698,3.3428,3.3114,3.2949,3.2845,3.2774,3.2804,3.2905,3.3021,3.3067,3.3222,3.3415,3.341,3.2933,3.2855,4.7232,4.7455,4.7455,4.7469,4.7402,4.7232,4.7103,4.7072,4.6841,4.673,4.6756,4.6716,4.6783,4.669,4.681,4.6881,4.7125,4.7125,4.7232,4.7161,4.6867,4.6313,4.5834,4.565,4.5909,4.631,4.6266,4.6297,4.6337,4.6283,4.6079,4.5924,4.6062,4.6133,4.6133,4.632,4.6462,4.6302,4.6075,4.5955,4.5865,4.5594,4.5474,4.5534,4.5337,4.5154,4.485,4.4452,4.3978,4.3615,4.3578,4.3367,4.2945,4.2851,4.2688,4.2448,4.2029,4.1628,4.1398,4.1132,4.0697,4.0716,4.0646,4.0464,4.0483,4.0335,4.0121,4.0055,3.9762,3.9069,3.8312,3.7998,3.7457,3.6873,3.6731,3.6095,3.5059,3.437,3.3978,3.363,3.352,3.3547,3.3579,3.359,3.3659,3.4205,3.4204,3.4108,3.3816,3.355,3.3614,3.3743,3.4027,3.4312,3.4394,3.4352,3.4416,3.4475,3.456,3.456,3.431,3.398,3.3456,3.3152,3.3056,3.3078,3.3194,3.3336,3.3623,3.3946,3.4183,3.4493,3.4661,3.378,3.3398,4.7112,4.7179,4.7179,4.7313,4.7469,4.7446,4.7402,4.7388,4.7353,4.7255,4.7295,4.7277,4.7264,4.7295,4.7237,4.7348,4.7375,4.7362,4.7348,4.7139,4.7103,4.6774,4.6409,4.6222,4.6386,4.6698,4.6613,4.664,4.6738,4.6444,4.6279,4.6312,4.5991,4.5955,4.619,4.6089,4.5898,4.5881,4.5858,4.5871,4.5858,4.5707,4.5614,4.5667,4.5447,4.5274,4.5167,4.4877,4.4556,4.4242,4.3975,4.3795,4.3594,4.3391,4.3217,4.3065,4.2837,4.2629,4.2626,4.2425,4.2436,4.227,4.2051,4.2151,4.2153,4.1777,4.1648,4.1572,4.114,4.0313,3.9384,3.9206,3.8814,3.8232,3.784,3.7453,3.6593,3.5688,3.5136,3.5093,3.5087,3.5239,3.5388,3.5291,3.5335,3.5465,3.5362,3.5282,3.4868,3.4353,3.4525,3.4768,3.5258,3.563,3.5556,3.5398,3.5101,3.5118,3.5182,3.5219,3.4967,3.4632,3.414,3.367,3.3261,3.3406,3.3798,3.4124,3.4474,3.4817,3.5224,3.5714,3.5777,3.4807,3.4653,4.7183,4.7286,4.7286,4.7366,4.7482,4.7477,4.7477,4.7477,4.7477,4.7477,4.7477,4.7477,4.7477,4.7477,4.7477,4.7495,4.7477,4.7477,4.7415,4.7272,4.7166,4.7072,4.7014,4.6774,4.6805,4.7063,4.6938,4.6912,4.676,4.6573,4.6285,4.6191,4.5991,4.6048,4.6217,4.6098,4.6165,4.6125,4.5995,4.5942,4.5942,4.5778,4.5677,4.564,4.5461,4.5287,4.5261,4.5024,4.481,4.4593,4.4352,4.4045,4.3791,4.3588,4.3455,4.3297,4.3207,4.31,4.307,4.31,4.3038,4.3097,4.2956,4.2822,4.2731,4.2512,4.2445,4.2371,4.2063,4.15,4.0678,4.0296,4.0018,3.9734,3.9399,3.9226,3.8715,3.7254,3.5955,3.5943,3.5815,3.5872,3.6039,3.6278,3.6154,3.5913,3.5865,3.5817,3.6012,3.5629,3.5888,3.6218,3.6743,3.7003,3.6895,3.6545,3.5887,3.5795,3.5763,3.5779,3.569,3.5299,3.4889,3.4543,3.4299,3.4405,3.4746,3.505,3.5508,3.6123,3.6633,3.7088,3.7387,3.7286,3.7279,4.7232,4.7428,4.7446,4.7473,4.7477,4.7477,4.7477,4.7477,4.7477,4.7477,4.7477,4.7477,4.7477,4.7477,4.7477,4.7477,4.7477,4.7477,4.7455,4.7428,4.7286,4.7282,4.7322,4.7232,4.7125,4.717,4.7152,4.7028,4.6863,4.6676,4.6556,4.6125,4.6079,4.6213,4.6306,4.6329,4.6298,4.6231,4.6089,4.6039,4.6026,4.5835,4.5707,4.564,4.5524,4.539,4.5367,4.5211,4.501,4.4964,4.4686,4.4256,4.3872,4.3645,4.3524,4.33,4.338,4.3407,4.3354,4.33,4.33,4.3233,4.31,4.3036,4.2875,4.2742,4.2688,4.2771,4.2651,4.2516,4.2117,4.1617,4.1247,4.1005,4.1034,4.1108,4.0689,3.8795,3.7676,3.6926,3.7129,3.7233,3.6869,3.6777,3.6568,3.6418,3.6391,3.6434,3.6651,3.6839,3.7005,3.7133,3.751,3.7667,3.7575,3.7478,3.6853,3.6664,3.6535,3.6535,3.6552,3.6478,3.6209,3.5788,3.5615,3.5719,3.5789,3.5998,3.6574,3.7405,3.7753,3.7886,3.8661,3.9726,3.961,4.713,4.717,4.717,4.7286,4.7482,4.7477,4.7477,4.7477,4.7477,4.7477,4.7477,4.7477,4.7477,4.7477,4.7477,4.7477,4.7477,4.7477,4.7477,4.7477,4.7402,4.7455,4.7455,4.7428,4.7419,4.7446,4.7419,4.7322,4.7201,4.7121,4.6881,4.693,4.648,4.6276,4.6316,4.6138,4.5991,4.6018,4.5898,4.5844,4.5804,4.5764,4.572,4.572,4.5627,4.5617,4.5614,4.5591,4.5474,4.5264,4.518,4.494,4.4636,4.4366,4.4125,4.3912,4.3952,4.3938,4.3795,4.3808,4.3835,4.3741,4.3434,4.3257,4.319,4.298,4.2902,4.3049,4.3158,4.3038,4.2204,4.2234,4.1879,4.1454,4.1318,4.1334,4.1169,4.0656,3.9828,3.91,3.8926,3.8571,3.804,3.7635,3.7531,3.7411,3.7323,3.7355,3.7495,3.7655,3.7816,3.7928,3.806,3.812,3.8088,3.804,3.7788,3.766,3.7579,3.7563,3.7627,3.7836,3.7616,3.6905,3.6832,3.7104,3.7137,3.703,3.7362,3.7989,3.8268,3.8497,3.9204,3.9908,4.0469,4.7197,4.7313,4.7313,4.7393,4.7482,4.7477,4.7477,4.7477,4.7477,4.7477,4.7477,4.7477,4.7477,4.7477,4.7477,4.7477,4.7509,4.7477,4.7477,4.7477,4.7477,4.7477,4.7509,4.7509,4.7477,4.7495,4.7482,4.7322,4.7068,4.6876,4.6894,4.6711,4.6346,4.6346,4.6445,4.6191,4.5982,4.5942,4.5787,4.5707,4.5707,4.5707,4.5778,4.5888,4.5804,4.5791,4.5915,4.5764,4.5657,4.5497,4.5367,4.5234,4.5104,4.4943,4.4673,4.4336,4.4336,4.4299,4.4075,4.4008,4.3995,4.3968,4.3688,4.3524,4.3455,4.3284,4.318,4.3327,4.3564,4.3583,4.3166,4.3177,4.3016,4.2757,4.2544,4.2528,4.2574,4.2557,4.1934,4.1104,4.0568,3.9919,3.9075,3.8752,3.8614,3.8469,3.8293,3.8293,3.8353,3.8205,3.8213,3.8453,3.8481,3.8317,3.8305,3.8264,3.822,3.822,3.822,3.822,3.8204,3.8172,3.8,3.7576,3.7808,3.7972,3.794,3.768,3.8124,3.846,3.8635,3.8898,3.9445,4.0037,4.0375,4.7299,4.7477,4.7477,4.7477,4.7477,4.7477,4.7477,4.7477,4.7477,4.7477,4.7477,4.7477,4.7477,4.7491,4.7575,4.7629,4.7673,4.7696,4.7722,4.7736,4.7722,4.7682,4.7602,4.7575,4.7558,4.7477,4.7477,4.7228,4.6934,4.6863,4.6663,4.66,4.643,4.6471,4.6613,4.6422,4.6337,4.6199,4.6031,4.5867,4.5818,4.5871,4.5911,4.6119,4.5955,4.5995,4.5982,4.5928,4.5778,4.564,4.5511,4.5398,4.5381,4.5381,4.5127,4.4683,4.4553,4.4352,4.4152,4.4008,4.4008,4.3995,4.3928,4.3765,4.3711,4.3618,4.3588,4.3658,4.3791,4.3952,4.3816,4.3949,4.3916,4.3886,4.384,4.3932,4.3793,4.3625,4.3318,4.2632,4.2042,4.1224,4.0318,3.9803,3.9641,3.93,3.9122,3.9017,3.8981,3.8317,3.8313,3.8715,3.8788,3.8518,3.8417,3.8337,3.828,3.822,3.822,3.822,3.822,3.8204,3.806,3.8004,3.8012,3.8132,3.8188,3.8236,3.83,3.8476,3.8844,3.9036,3.9116,3.9208,3.944,4.7469,4.7495,4.7509,4.7477,4.7522,4.7535,4.7509,4.7509,4.7522,4.7477,4.7477,4.7495,4.7495,4.7558,4.7758,4.8003,4.8163,4.8208,4.8199,4.8168,4.8181,4.8043,4.786,4.7847,4.7664,4.7535,4.7477,4.7322,4.7068,4.7175,4.7188,4.6983,4.6902,4.7023,4.6996,4.672,4.6556,4.656,4.6503,4.6356,4.6195,4.6312,4.6209,4.6085,4.6165,4.6285,4.6062,4.6062,4.6035,4.5791,4.5724,4.5671,4.564,4.5657,4.5497,4.522,4.497,4.4703,4.4376,4.4205,4.4075,4.4032,4.3858,4.3765,4.3845,4.3925,4.3925,4.3925,4.3995,4.4008,4.4008,4.4008,4.4008,4.4008,4.4008,4.4008,4.4008,4.3992,4.3777,4.381,4.3118,4.2328,4.1478,4.1039,4.0628,4.0268,3.9966,3.9877,3.9678,3.9137,3.9137,3.9711,3.961,3.9322,3.8583,3.8494,3.8377,3.8281,3.8232,3.8277,3.8441,3.8513,3.8425,3.8361,3.8445,3.8606,3.8795,3.8767,3.8445,3.8364,3.8572,3.8492,3.8348,3.8489,3.8877,4.8008,4.8008,4.799,4.8008,4.8008,4.8008,4.7914,4.7758,4.7731,4.7642,4.7509,4.7495,4.7589,4.7731,4.7878,4.8065,4.8342,4.8422,4.8395,4.8409,4.8382,4.8217,4.7958,4.7874,4.7758,4.7544,4.7469,4.7353,4.7232,4.721,4.7197,4.7143,4.7112,4.7183,4.7277,4.7032,4.6907,4.6827,4.6703,4.6543,4.6493,4.6529,4.6552,4.6462,4.6587,4.6516,4.6507,4.6382,4.64,4.6205,4.6205,4.6111,4.6022,4.5955,4.5848,4.5537,4.5261,4.498,4.47,4.4556,4.4409,4.4329,4.4219,4.4312,4.4272,4.4202,4.4125,4.4008,4.4008,4.4008,4.4008,4.4008,4.4008,4.4008,4.4008,4.4008,4.4008,4.4008,4.3972,4.4125,4.4186,4.3427,4.2739,4.2285,4.1702,4.1058,4.0868,4.0833,4.0698,4.0375,4.0626,4.1195,4.0806,4.0292,3.93,3.8688,3.8555,3.8438,3.8313,3.8433,3.8807,3.8868,3.8957,3.9433,3.9999,3.9992,3.9693,3.9122,3.865,3.8413,3.822,3.8441,3.8694,3.8781,3.9311,4.8622,4.8609,4.848,4.8395,4.8382,4.8297,4.8177,4.8025,4.7838,4.7736,4.7616,4.7562,4.7696,4.7972,4.8065,4.8284,4.8654,4.8609,4.8556,4.8529,4.843,4.8252,4.8025,4.7891,4.7758,4.7477,4.7477,4.7388,4.7313,4.7272,4.7313,4.7112,4.7313,4.7348,4.7388,4.7313,4.7192,4.7166,4.6983,4.6836,4.6774,4.681,4.685,4.6881,4.6894,4.6881,4.6925,4.6872,4.6734,4.6569,4.6525,4.6422,4.632,4.6186,4.6062,4.5791,4.5568,4.5327,4.5117,4.4943,4.48,4.4703,4.4676,4.465,4.4416,4.4386,4.4282,4.4035,4.4008,4.4008,4.4008,4.4008,4.4008,4.4008,4.4008,4.4008,4.4035,4.4069,4.4149,4.4286,4.4449,4.4636,4.4013,4.3546,4.2857,4.1987,4.1744,4.1817,4.1742,4.1635,4.1686,4.2056,4.0842,4.0383,3.9945,3.9178,3.8935,3.8648,3.8527,3.8719,3.9167,3.9592,3.982,4.0469,4.1288,4.0953,4.0423,3.9622,3.8944,3.93,3.9523,3.9256,3.9279,3.9366,3.9802,4.9237,4.9197,4.8654,4.8435,4.8427,4.8065,4.8137,4.8275,4.7803,4.7736,4.7798,4.7669,4.7829,4.819,4.8342,4.8622,4.9202,4.9224,4.9023,4.8845,4.8719,4.8439,4.8145,4.7932,4.7785,4.7518,4.7477,4.7464,4.7504,4.7611,4.7455,4.7219,4.7522,4.7584,4.7598,4.7549,4.7469,4.7442,4.7348,4.7215,4.7179,4.7175,4.7157,4.6903,4.709,4.7197,4.6716,4.6907,4.6961,4.673,4.673,4.6676,4.6587,4.6444,4.6293,4.6133,4.5862,4.5657,4.5554,4.5251,4.496,4.4893,4.4863,4.4837,4.4603,4.4456,4.4282,4.4139,4.4182,4.4102,4.4062,4.4022,4.4059,4.4008,4.4022,4.4045,4.4095,4.4193,4.4289,4.4429,4.4633,4.486,4.5024,4.4485,4.4029,4.3181,4.3169,4.3242,4.315,4.3025,4.2669,4.2297,4.0686,4.0139,4.0308,3.9798,3.91,3.8934,3.8927,3.9255,3.9708,4.0118,4.0689,4.1478,4.2166,4.1673,4.1334,4.1065,4.0898,4.0898,4.0795,4.0332,4.0162,4.0259,4.0732,4.9286,4.9259,4.9037,4.8943,4.8943,4.8805,4.8636,4.8422,4.8324,4.8105,4.7887,4.7811,4.7865,4.811,4.8355,4.8609,4.8997,4.9237,4.917,4.917,4.9032,4.8738,4.8404,4.811,4.7994,4.7616,4.7509,4.7477,4.7504,4.7838,4.7664,4.7571,4.7798,4.7963,4.7963,4.7798,4.7731,4.7678,4.7589,4.7415,4.7402,4.7402,4.7388,4.7255,4.7295,4.7402,4.7215,4.7286,4.7241,4.7175,4.7135,4.7041,4.6907,4.6765,4.6631,4.644,4.6155,4.6022,4.5924,4.5621,4.5407,4.5354,4.5247,4.506,4.49,4.4927,4.4806,4.4663,4.4503,4.4452,4.4272,4.4242,4.4216,4.4072,4.4062,4.4125,4.4226,4.4349,4.4566,4.4763,4.4963,4.516,4.531,4.536,4.4908,4.4451,4.4562,4.4566,4.4306,4.4176,4.3753,4.3285,4.1863,4.07,4.0824,4.0093,3.922,3.932,3.9476,4.0072,4.0647,4.1072,4.1691,4.2469,4.3067,4.2887,4.2789,4.2862,4.2505,4.1785,4.1426,4.1167,4.1111,4.1148,4.1582,4.9286,4.9286,4.9286,4.9251,4.9152,4.9139,4.893,4.8596,4.8591,4.8417,4.7918,4.7905,4.7972,4.8123,4.8377,4.8703,4.8992,4.9179,4.9197,4.9139,4.9018,4.8836,4.8556,4.8342,4.8163,4.7803,4.7749,4.7807,4.7829,4.8052,4.8078,4.8052,4.8052,4.8257,4.8083,4.8056,4.7918,4.7838,4.7669,4.7495,4.7495,4.7589,4.7549,4.7522,4.7575,4.7562,4.7482,4.7442,4.7455,4.7424,4.7428,4.7393,4.7277,4.7143,4.6978,4.6747,4.6489,4.6333,4.6209,4.5938,4.5707,4.5587,4.5541,4.5394,4.5344,4.5287,4.509,4.4893,4.4853,4.4813,4.4536,4.4539,4.4526,4.4452,4.4426,4.4476,4.4533,4.4642,4.4873,4.5106,4.5293,4.544,4.548,4.5564,4.5316,4.4965,4.4936,4.4849,4.4579,4.4535,4.4589,4.4116,4.3421,4.237,4.1498,4.1089,4.0745,4.0596,4.0835,4.129,4.1817,4.2209,4.2769,4.3599,4.4039,4.4128,4.3972,4.3692,4.2967,4.212,4.1984,4.196,4.1851,4.1908,4.2227,4.9286,4.9286,4.9286,4.913,4.8871,4.8813,4.8818,4.8724,4.8529,4.8257,4.7985,4.7958,4.811,4.835,4.8604,4.8858,4.9085,4.9237,4.9197,4.9005,4.8992,4.8698,4.8542,4.8422,4.8395,4.8395,4.8275,4.8208,4.8288,4.8449,4.8564,4.8618,4.8519,4.8466,4.798,4.7927,4.7914,4.7878,4.7682,4.7616,4.7584,4.7789,4.7789,4.7749,4.7816,4.7829,4.7722,4.7584,4.7584,4.7571,4.7522,4.7469,4.7415,4.7263,4.7143,4.7059,4.6774,4.6609,4.6525,4.6018,4.58,4.5707,4.5617,4.5551,4.5381,4.5318,4.5291,4.5117,4.501,4.4974,4.4907,4.488,4.4853,4.4773,4.4733,4.477,4.4826,4.4805,4.5005,4.5303,4.552,4.5663,4.5667,4.5654,4.5537,4.5373,4.531,4.513,4.4906,4.4919,4.5063,4.4921,4.4412,4.3685,4.2806,4.2553,4.2295,4.2089,4.2019,4.2276,4.2754,4.3229,4.3896,4.4676,4.4686,4.4492,4.4429,4.4356,4.3579,4.2894,4.2848,4.2811,4.2668,4.2513,4.2652,4.9286,4.9286,4.9286,4.9098,4.8858,4.9045,4.9005,4.8778,4.8529,4.8328,4.8243,4.823,4.8257,4.8444,4.8671,4.8898,4.8992,4.9245,4.9165,4.9139,4.9098,4.8943,4.8769,4.8662,4.8596,4.8449,4.8395,4.8435,4.8368,4.8609,4.8556,4.8556,4.8778,4.8679,4.8546,4.8479,4.8457,4.8257,4.811,4.8016,4.7825,4.8056,4.8181,4.8074,4.8163,4.815,4.8016,4.7851,4.7771,4.7718,4.7642,4.7522,4.7509,4.7353,4.7353,4.7299,4.7085,4.6831,4.6663,4.6356,4.6115,4.5898,4.5734,4.5724,4.5577,4.5581,4.5497,4.543,4.5337,4.5301,4.5207,4.5171,4.5121,4.4907,4.4867,4.5,4.5026,4.4954,4.505,4.5399,4.568,4.5694,4.5677,4.5677,4.56,4.5591,4.5497,4.5493,4.5339,4.5379,4.548,4.5495,4.5194,4.4648,4.4105,4.3643,4.3179,4.2807,4.2692,4.277,4.3353,4.407,4.4396,4.4859,4.4833,4.4793,4.4787,4.4689,4.4222,4.38,4.3625,4.3341,4.3041,4.2771,4.2588,4.9144,4.913,4.9144,4.9005,4.8871,4.9152,4.9117,4.8818,4.8604,4.8489,4.844,4.8489,4.8556,4.8636,4.8836,4.8965,4.8992,4.9165,4.9286,4.9286,4.9286,4.9139,4.9037,4.8952,4.8916,4.8729,4.8703,4.8729,4.8769,4.8748,4.8769,4.8836,4.889,4.8965,4.8925,4.8831,4.8698,4.8497,4.8409,4.8262,4.8203,4.831,4.8457,4.8422,4.8449,4.8489,4.8368,4.8203,4.8025,4.7905,4.7758,4.7602,4.7549,4.7509,4.7495,4.7428,4.7353,4.7085,4.6867,4.6787,4.652,4.6138,4.6018,4.5964,4.5898,4.5888,4.5778,4.5707,4.5734,4.5614,4.5497,4.5461,4.5411,4.5197,4.5211,4.5344,4.5337,4.5264,4.5243,4.5593,4.5694,4.5694,4.5677,4.5677,4.5667,4.568,4.568,4.5677,4.5677,4.5677,4.5677,4.5692,4.5659,4.5165,4.477,4.4489,4.4013,4.3572,4.359,4.371,4.4058,4.4785,4.4903,4.5018,4.513,4.5211,4.5171,4.4976,4.4611,4.4339,4.4116,4.3794,4.3437,4.3048,4.2653,4.8818,4.8805,4.88,4.8831,4.8858,4.917,4.9098,4.8818,4.8791,4.8644,4.8435,4.8703,4.8791,4.8871,4.9157,4.9251,4.9251,4.9291,4.9286,4.9286,4.9286,4.9264,4.9245,4.9219,4.917,4.9219,4.9192,4.9085,4.9264,4.9157,4.917,4.9224,4.9179,4.9205,4.9125,4.9018,4.8845,4.8698,4.8676,4.8529,4.8484,4.8676,4.8716,4.8703,4.8729,4.8716,4.8609,4.8449,4.8257,4.811,4.7945,4.7771,4.7642,4.7553,4.7522,4.7509,4.7522,4.7313,4.7166,4.7099,4.6992,4.6676,4.6636,4.6476,4.6276,4.6182,4.6085,4.5978,4.5907,4.584,4.576,4.5791,4.5808,4.5728,4.5684,4.5711,4.5697,4.5663,4.5619,4.5694,4.5694,4.5677,4.5677,4.5677,4.5677,4.5677,4.5677,4.5677,4.5677,4.5677,4.5677,4.5694,4.5661,4.5581,4.5292,4.5031,4.4914,4.4465,4.4823,4.5014,4.5317,4.5294,4.5328,4.5402,4.5566,4.56,4.5457,4.5301,4.5097,4.4826,4.4443,4.398,4.3517,4.3067,4.2767,4.9037,4.8813,4.9063,4.9018,4.8871,4.917,4.9117,4.8813,4.8805,4.8751,4.8703,4.8764,4.8938,4.9152,4.9264,4.9272,4.9286,4.9286,4.9286,4.9286,4.9286,4.9286,4.9299,4.9331,4.9299,4.9331,4.9344,4.9366,4.9312,4.9312,4.9326,4.9272,4.9339,4.9326,4.9272,4.9192,4.9018,4.8911,4.893,4.885,4.8823,4.8983,4.8997,4.9037,4.9032,4.9023,4.897,4.8764,4.8618,4.8537,4.8337,4.8195,4.8168,4.8128,4.8101,4.7785,4.7642,4.7442,4.7388,4.7393,4.7313,4.7201,4.717,4.6917,4.6663,4.6476,4.6436,4.6272,4.6205,4.6178,4.6165,4.6178,4.6195,4.6169,4.6115,4.6022,4.5982,4.5844,4.5804,4.5677,4.5677,4.5677,4.5677,4.5677,4.5677,4.5677,4.5677,4.5677,4.5677,4.5677,4.5677,4.5677,4.568,4.5631,4.5627,4.5429,4.5488,4.5499,4.5657,4.568,4.5579,4.5536,4.565,4.5677,4.5677,4.5677,4.5654,4.5484,4.5318,4.4957,4.4556,4.4076,4.3619,4.3302,4.3117,4.8978,4.8826,4.9005,4.9063,4.9045,4.921,4.9184,4.9023,4.8992,4.8952,4.8831,4.8952,4.9098,4.9245,4.9272,4.9286,4.9286,4.9286,4.9286,4.9286,4.9299,4.9379,4.9424,4.9459,4.9566,4.9566,4.962,4.9681,4.9588,4.962,4.9646,4.9628,4.9521,4.9459,4.9432,4.9326,4.9197,4.9144,4.9144,4.9139,4.917,4.9197,4.9245,4.9286,4.9286,4.9286,4.9272,4.9045,4.8952,4.8831,4.8609,4.8404,4.8257,4.8083,4.8083,4.7785,4.7656,4.7616,4.7616,4.7518,4.7491,4.7477,4.7477,4.729,4.7077,4.6894,4.6734,4.6569,4.6569,4.6569,4.6583,4.6596,4.6583,4.6569,4.6453,4.632,4.6173,4.6008,4.5871,4.5734,4.5677,4.5677,4.5677,4.5677,4.5677,4.5677,4.5677,4.5677,4.5677,4.5677,4.5677,4.5677,4.5677,4.568,4.5677,4.5677,4.5654,4.5644,4.5654,4.5694,4.5677,4.5677,4.5677,4.5677,4.5677,4.5677,4.5694,4.5604,4.5421,4.5074,4.4833,4.4569,4.4223,4.3894,4.3808,4.8831,4.8805,4.8805,4.8992,4.9259,4.9286,4.9291,4.9286,4.9259,4.9125,4.8952,4.917,4.9277,4.9286,4.9286,4.9286,4.9286,4.9286,4.9286,4.9299,4.9379,4.9459,4.9553,4.9708,4.9761,4.997,5.005,4.9929,5.005,4.9996,4.9943,5.0063,4.9801,4.9633,4.9513,4.9379,4.9264,4.9251,4.9232,4.9245,4.9259,4.9272,4.9286,4.9286,4.9286,4.9286,4.9286,4.9237,4.9157,4.8925,4.8706,4.8479,4.8132,4.7798,4.7798,4.7731,4.7642,4.7629,4.7656,4.7589,4.7504,4.7477,4.7477,4.7437,4.7295,4.7188,4.7028,4.6934,4.6934,4.6903,4.6917,4.6917,4.6917,4.681,4.6663,4.652,4.6346,4.6142,4.5915,4.5791,4.5734,4.572,4.5677,4.5677,4.5677,4.5677,4.5677,4.5677,4.5677,4.5677,4.5677,4.5677,4.5677,4.5677,4.5677,4.5677,4.5677,4.5694,4.5677,4.5677,4.5677,4.5677,4.5677,4.5677,4.5677,4.5677,4.568,4.5564,4.5444,4.5287,4.51,4.506,4.481,4.4436,4.4296,4.9032,4.8805,4.8805,4.901,4.9291,4.9286,4.9286,4.9286,4.9286,4.9264,4.9192,4.9245,4.9286,4.9286,4.9286,4.9286,4.9286,4.9286,4.9286,4.9379,4.9473,4.9499,4.9539,4.9801,4.9889,4.9876,4.9956,5.0156,5.0196,5.0138,5.001,4.9849,4.9734,4.97,4.9526,4.9384,4.9286,4.9286,4.9286,4.9299,4.9326,4.9299,4.9286,4.9286,4.9286,4.9286,4.9286,4.9272,4.9085,4.8871,4.8818,4.8604,4.8315,4.7972,4.7847,4.7833,4.7664,4.7598,4.7616,4.7589,4.7509,4.7477,4.7477,4.7477,4.7455,4.7415,4.7362,4.7282,4.7255,4.7241,4.7241,4.7241,4.7215,4.705,4.6903,4.6716,4.6516,4.6262,4.6012,4.5915,4.5831,4.5778,4.5734,4.5694,4.5677,4.5677,4.5677,4.5677,4.5677,4.5677,4.5677,4.5677,4.5677,4.5677,4.5677,4.5677,4.5677,4.5677,4.5677,4.5677,4.5677,4.5677,4.5677,4.5677,4.5677,4.5677,4.5627,4.5484,4.5364,4.5324,4.5274,4.5207,4.5117,4.481,4.4663,4.9197,4.9018,4.9018,4.9112,4.9272,4.9286,4.9371,4.9432,4.9339,4.9451,4.9579,4.9419,4.9286,4.9286,4.9286,4.9286,4.9286,4.9286,4.9392,4.9513,4.9513,4.9601,4.9721,4.9868,4.9921,4.9935,5.0189,5.0357,5.0423,5.0504,5.0423,5.0183,5.0068,4.9801,4.9601,4.9473,4.9312,4.9286,4.9312,4.9366,4.9438,4.9379,4.9299,4.9286,4.9299,4.9299,4.9286,4.9286,4.9192,4.8992,4.8911,4.8778,4.8484,4.8132,4.8007,4.7945,4.7816,4.7549,4.7616,4.7575,4.7509,4.7522,4.7509,4.7509,4.7477,4.7455,4.7455,4.7388,4.7388,4.7371,4.7388,4.7388,4.7388,4.7277,4.7197,4.7081,4.6827,4.656,4.6369,4.6302,4.6182,4.6008,4.5928,4.5734,4.5734,4.5677,4.5677,4.5677,4.5677,4.5677,4.5677,4.5677,4.5677,4.5677,4.5677,4.5677,4.5677,4.5677,4.5677,4.5677,4.5677,4.5677,4.5677,4.5677,4.5677,4.5677,4.56,4.5497,4.5511,4.5537,4.543,4.5327,4.5251,4.5197,4.5116,4.9286,4.9286,4.9286,4.9286,4.9286,4.9286,4.9438,4.9561,4.9424,4.9539,4.9828,4.9459,4.9344,4.9339,4.9339,4.9331,4.9317,4.9286,4.9446,4.9499,4.9446,4.9601,4.9788,4.9948,5.0108,5.0295,5.0522,5.0723,5.0864,5.0883,5.0843,5.0824,5.053,5.0143,4.997,4.9721,4.9491,4.9513,4.9534,4.9593,4.9553,4.9518,4.9446,4.9406,4.9392,4.9398,4.9366,4.9339,4.9339,4.909,4.889,4.8724,4.8577,4.827,4.8262,4.8168,4.7883,4.7758,4.7771,4.7624,4.7589,4.7567,4.7535,4.7562,4.7562,4.7575,4.7558,4.7562,4.7562,4.7509,4.7509,4.7477,4.7477,4.7469,4.7402,4.7335,4.7054,4.6787,4.669,4.6623,4.6493,4.6293,4.6092,4.5884,4.5787,4.5747,4.5707,4.5677,4.5677,4.5677,4.5677,4.5677,4.5677,4.5677,4.5694,4.572,4.572,4.5677,4.5677,4.5677,4.5677,4.5677,4.5677,4.5677,4.5677,4.5677,4.5677,4.5627,4.5654,4.5654,4.5591,4.5484,4.5511,4.5484,4.556,4.9286,4.9286,4.9286,4.9286,4.9286,4.9286,4.9331,4.9371,4.9339,4.9384,4.9513,4.9446,4.9411,4.9633,4.9614,4.9521,4.9286,4.9286,4.9286,4.9326,4.9473,4.9641,4.9855,5.0108,5.0536,5.0696,5.079,5.0923,5.0984,5.099,5.0902,5.0715,5.0662,5.0362,5.0098,4.9921,4.9868,4.9836,4.9849,4.9916,4.9908,4.9868,4.9815,4.9855,4.9956,4.9815,4.9694,4.9646,4.9339,4.8978,4.8743,4.8631,4.8524,4.8444,4.839,4.8342,4.8043,4.795,4.7878,4.7762,4.7722,4.7843,4.7825,4.7825,4.7838,4.7838,4.7825,4.7798,4.7762,4.7602,4.7562,4.7509,4.7495,4.7428,4.7362,4.7286,4.7099,4.6921,4.6783,4.677,4.6747,4.652,4.6279,4.6115,4.5991,4.5938,4.5827,4.5797,4.5703,4.5688,4.5699,4.5739,4.5736,4.5694,4.5711,4.5778,4.5791,4.5734,4.572,4.5774,4.5774,4.5694,4.5677,4.5677,4.5677,4.5677,4.5677,4.5677,4.5694,4.568,4.568,4.5654,4.5677,4.5677,4.5677]}]]